<?xml version="1.0" encoding="UTF-8" standalone="no" ?>
<gpx xmlns="http://www.topografix.com/GPX/1/1" xmlns:xsi="http://www.w3.org/2001/XMLSchema-instance" xsi:schemaLocation="http://www.topografix.com/GPX/1/1 http://www.topografix.com/GPX/1/1/gpx.xsd" version="1.1" creator="VisuGPX - https://www.visugpx.com">
  <metadata>
    <name>Pic de Bure via Tete des Pras</name>
    <desc><![CDATA[plus de details:
http://stephane-despreaux.imag.fr/4sup/rando/2015/1447671165929.php]]></desc>
  </metadata>
  <trk>
    <name><![CDATA[2015-11-15-01-itiPrasPare]]></name>
    <trkseg>
      <trkpt lat="44.60267" lon="5.90517">
        <ele>1366.3</ele>
        <time>2015-11-15T06:53:21Z</time>
      </trkpt>
      <trkpt lat="44.60277" lon="5.90517">
        <ele>1368.3</ele>
        <time>2015-11-15T06:53:31Z</time>
      </trkpt>
      <trkpt lat="44.60286" lon="5.90519">
        <ele>1371.3</ele>
        <time>2015-11-15T06:53:38Z</time>
      </trkpt>
      <trkpt lat="44.60294" lon="5.90526">
        <ele>1370.3</ele>
        <time>2015-11-15T06:53:48Z</time>
      </trkpt>
      <trkpt lat="44.603" lon="5.90536">
        <ele>1370.3</ele>
        <time>2015-11-15T06:53:58Z</time>
      </trkpt>
      <trkpt lat="44.60308" lon="5.90544">
        <ele>1373.3</ele>
        <time>2015-11-15T06:54:13Z</time>
      </trkpt>
      <trkpt lat="44.60317" lon="5.9055">
        <ele>1373.3</ele>
        <time>2015-11-15T06:54:27Z</time>
      </trkpt>
      <trkpt lat="44.60326" lon="5.90554">
        <ele>1375.3</ele>
        <time>2015-11-15T06:54:41Z</time>
      </trkpt>
      <trkpt lat="44.60332" lon="5.90564">
        <ele>1380.3</ele>
        <time>2015-11-15T06:54:53Z</time>
      </trkpt>
      <trkpt lat="44.60341" lon="5.90569">
        <ele>1383.3</ele>
        <time>2015-11-15T06:55:04Z</time>
      </trkpt>
      <trkpt lat="44.60349" lon="5.90576">
        <ele>1382.3</ele>
        <time>2015-11-15T06:55:19Z</time>
      </trkpt>
      <trkpt lat="44.60358" lon="5.90581">
        <ele>1382.3</ele>
        <time>2015-11-15T06:55:32Z</time>
      </trkpt>
      <trkpt lat="44.60366" lon="5.90588">
        <ele>1387.3</ele>
        <time>2015-11-15T06:55:44Z</time>
      </trkpt>
      <trkpt lat="44.60375" lon="5.90592">
        <ele>1389.3</ele>
        <time>2015-11-15T06:55:57Z</time>
      </trkpt>
      <trkpt lat="44.60384" lon="5.90598">
        <ele>1389.3</ele>
        <time>2015-11-15T06:56:10Z</time>
      </trkpt>
      <trkpt lat="44.60391" lon="5.90605">
        <ele>1394.3</ele>
        <time>2015-11-15T06:56:31Z</time>
      </trkpt>
      <trkpt lat="44.604" lon="5.90608">
        <ele>1395.3</ele>
        <time>2015-11-15T06:56:42Z</time>
      </trkpt>
      <trkpt lat="44.60418" lon="5.9062">
        <ele>1402.3</ele>
        <time>2015-11-15T06:57:00Z</time>
      </trkpt>
      <trkpt lat="44.60427" lon="5.90623">
        <ele>1409.3</ele>
        <time>2015-11-15T06:57:07Z</time>
      </trkpt>
      <trkpt lat="44.60437" lon="5.90628">
        <ele>1413.3</ele>
        <time>2015-11-15T06:57:16Z</time>
      </trkpt>
      <trkpt lat="44.60447" lon="5.90634">
        <ele>1418.3</ele>
        <time>2015-11-15T06:57:28Z</time>
      </trkpt>
      <trkpt lat="44.60455" lon="5.90638">
        <ele>1418.3</ele>
        <time>2015-11-15T06:57:37Z</time>
      </trkpt>
      <trkpt lat="44.60464" lon="5.90645">
        <ele>1417.3</ele>
        <time>2015-11-15T06:57:47Z</time>
      </trkpt>
      <trkpt lat="44.60473" lon="5.90649">
        <ele>1421.3</ele>
        <time>2015-11-15T06:58:00Z</time>
      </trkpt>
      <trkpt lat="44.60483" lon="5.90651">
        <ele>1421.3</ele>
        <time>2015-11-15T06:58:15Z</time>
      </trkpt>
      <trkpt lat="44.60491" lon="5.90657">
        <ele>1421.3</ele>
        <time>2015-11-15T06:58:29Z</time>
      </trkpt>
      <trkpt lat="44.605" lon="5.90661">
        <ele>1424.3</ele>
        <time>2015-11-15T06:58:39Z</time>
      </trkpt>
      <trkpt lat="44.6051" lon="5.90663">
        <ele>1426.3</ele>
        <time>2015-11-15T06:58:52Z</time>
      </trkpt>
      <trkpt lat="44.60518" lon="5.90669">
        <ele>1426.3</ele>
        <time>2015-11-15T06:59:00Z</time>
      </trkpt>
      <trkpt lat="44.60526" lon="5.90675">
        <ele>1425.3</ele>
        <time>2015-11-15T06:59:09Z</time>
      </trkpt>
      <trkpt lat="44.60534" lon="5.90683">
        <ele>1431.3</ele>
        <time>2015-11-15T06:59:19Z</time>
      </trkpt>
      <trkpt lat="44.60543" lon="5.90689">
        <ele>1437.3</ele>
        <time>2015-11-15T06:59:27Z</time>
      </trkpt>
      <trkpt lat="44.60551" lon="5.90696">
        <ele>1440.3</ele>
        <time>2015-11-15T06:59:39Z</time>
      </trkpt>
      <trkpt lat="44.6056" lon="5.90704">
        <ele>1438.3</ele>
        <time>2015-11-15T06:59:57Z</time>
      </trkpt>
      <trkpt lat="44.60567" lon="5.90713">
        <ele>1437.3</ele>
        <time>2015-11-15T07:00:05Z</time>
      </trkpt>
      <trkpt lat="44.60576" lon="5.90722">
        <ele>1445.3</ele>
        <time>2015-11-15T07:00:15Z</time>
      </trkpt>
      <trkpt lat="44.60584" lon="5.90729">
        <ele>1446.3</ele>
        <time>2015-11-15T07:00:25Z</time>
      </trkpt>
      <trkpt lat="44.6059" lon="5.9074">
        <ele>1445.3</ele>
        <time>2015-11-15T07:00:37Z</time>
      </trkpt>
      <trkpt lat="44.60598" lon="5.90749">
        <ele>1445.3</ele>
        <time>2015-11-15T07:00:46Z</time>
      </trkpt>
      <trkpt lat="44.60606" lon="5.90757">
        <ele>1450.3</ele>
        <time>2015-11-15T07:00:55Z</time>
      </trkpt>
      <trkpt lat="44.60615" lon="5.90762">
        <ele>1452.3</ele>
        <time>2015-11-15T07:01:06Z</time>
      </trkpt>
      <trkpt lat="44.60624" lon="5.90769">
        <ele>1456.3</ele>
        <time>2015-11-15T07:01:21Z</time>
      </trkpt>
      <trkpt lat="44.60632" lon="5.90776">
        <ele>1450.3</ele>
        <time>2015-11-15T07:01:34Z</time>
      </trkpt>
      <trkpt lat="44.60639" lon="5.90784">
        <ele>1451.3</ele>
        <time>2015-11-15T07:01:43Z</time>
      </trkpt>
      <trkpt lat="44.60646" lon="5.90793">
        <ele>1451.3</ele>
        <time>2015-11-15T07:01:53Z</time>
      </trkpt>
      <trkpt lat="44.60654" lon="5.908">
        <ele>1455.3</ele>
        <time>2015-11-15T07:02:00Z</time>
      </trkpt>
      <trkpt lat="44.60664" lon="5.90808">
        <ele>1460.3</ele>
        <time>2015-11-15T07:02:07Z</time>
      </trkpt>
      <trkpt lat="44.60673" lon="5.90809">
        <ele>1462.3</ele>
        <time>2015-11-15T07:02:17Z</time>
      </trkpt>
      <trkpt lat="44.60681" lon="5.90817">
        <ele>1465.3</ele>
        <time>2015-11-15T07:02:28Z</time>
      </trkpt>
      <trkpt lat="44.60689" lon="5.90825">
        <ele>1464.3</ele>
        <time>2015-11-15T07:02:37Z</time>
      </trkpt>
      <trkpt lat="44.60696" lon="5.90832">
        <ele>1458.3</ele>
        <time>2015-11-15T07:02:49Z</time>
      </trkpt>
      <trkpt lat="44.60703" lon="5.90841">
        <ele>1458.3</ele>
        <time>2015-11-15T07:02:54Z</time>
      </trkpt>
      <trkpt lat="44.60711" lon="5.90847">
        <ele>1459.3</ele>
        <time>2015-11-15T07:03:00Z</time>
      </trkpt>
      <trkpt lat="44.6072" lon="5.90853">
        <ele>1462.3</ele>
        <time>2015-11-15T07:03:10Z</time>
      </trkpt>
      <trkpt lat="44.60729" lon="5.90858">
        <ele>1465.3</ele>
        <time>2015-11-15T07:03:22Z</time>
      </trkpt>
      <trkpt lat="44.60738" lon="5.90853">
        <ele>1463.3</ele>
        <time>2015-11-15T07:03:30Z</time>
      </trkpt>
      <trkpt lat="44.60749" lon="5.90853">
        <ele>1463.3</ele>
        <time>2015-11-15T07:03:39Z</time>
      </trkpt>
      <trkpt lat="44.60758" lon="5.90853">
        <ele>1460.3</ele>
        <time>2015-11-15T07:03:48Z</time>
      </trkpt>
      <trkpt lat="44.60767" lon="5.90854">
        <ele>1468.3</ele>
        <time>2015-11-15T07:04:04Z</time>
      </trkpt>
      <trkpt lat="44.60776" lon="5.9085">
        <ele>1465.3</ele>
        <time>2015-11-15T07:04:12Z</time>
      </trkpt>
      <trkpt lat="44.60786" lon="5.90852">
        <ele>1467.3</ele>
        <time>2015-11-15T07:04:20Z</time>
      </trkpt>
      <trkpt lat="44.60796" lon="5.90852">
        <ele>1468.3</ele>
        <time>2015-11-15T07:04:29Z</time>
      </trkpt>
      <trkpt lat="44.60806" lon="5.90847">
        <ele>1471.3</ele>
        <time>2015-11-15T07:04:37Z</time>
      </trkpt>
      <trkpt lat="44.60815" lon="5.90844">
        <ele>1477.3</ele>
        <time>2015-11-15T07:04:45Z</time>
      </trkpt>
      <trkpt lat="44.60827" lon="5.90843">
        <ele>1478.3</ele>
        <time>2015-11-15T07:04:55Z</time>
      </trkpt>
      <trkpt lat="44.60833" lon="5.90834">
        <ele>1476.3</ele>
        <time>2015-11-15T07:05:02Z</time>
      </trkpt>
      <trkpt lat="44.60842" lon="5.90828">
        <ele>1474.3</ele>
        <time>2015-11-15T07:05:12Z</time>
      </trkpt>
      <trkpt lat="44.60851" lon="5.90824">
        <ele>1474.3</ele>
        <time>2015-11-15T07:05:21Z</time>
      </trkpt>
      <trkpt lat="44.60859" lon="5.90814">
        <ele>1475.3</ele>
        <time>2015-11-15T07:05:28Z</time>
      </trkpt>
      <trkpt lat="44.6086" lon="5.908">
        <ele>1475.3</ele>
        <time>2015-11-15T07:05:38Z</time>
      </trkpt>
      <trkpt lat="44.60865" lon="5.90789">
        <ele>1473.3</ele>
        <time>2015-11-15T07:05:47Z</time>
      </trkpt>
      <trkpt lat="44.60871" lon="5.90778">
        <ele>1475.3</ele>
        <time>2015-11-15T07:05:57Z</time>
      </trkpt>
      <trkpt lat="44.60877" lon="5.90767">
        <ele>1474.3</ele>
        <time>2015-11-15T07:06:07Z</time>
      </trkpt>
      <trkpt lat="44.60882" lon="5.90753">
        <ele>1481.3</ele>
        <time>2015-11-15T07:06:21Z</time>
      </trkpt>
      <trkpt lat="44.60892" lon="5.90755">
        <ele>1491.3</ele>
        <time>2015-11-15T07:06:40Z</time>
      </trkpt>
      <trkpt lat="44.60905" lon="5.90768">
        <ele>1492.3</ele>
        <time>2015-11-15T07:06:53Z</time>
      </trkpt>
      <trkpt lat="44.60914" lon="5.90768">
        <ele>1494.3</ele>
        <time>2015-11-15T07:07:00Z</time>
      </trkpt>
      <trkpt lat="44.60922" lon="5.90777">
        <ele>1498.3</ele>
        <time>2015-11-15T07:07:10Z</time>
      </trkpt>
      <trkpt lat="44.60931" lon="5.9078">
        <ele>1491.3</ele>
        <time>2015-11-15T07:07:22Z</time>
      </trkpt>
      <trkpt lat="44.60941" lon="5.90778">
        <ele>1490.3</ele>
        <time>2015-11-15T07:07:33Z</time>
      </trkpt>
      <trkpt lat="44.60951" lon="5.9078">
        <ele>1496.3</ele>
        <time>2015-11-15T07:07:50Z</time>
      </trkpt>
      <trkpt lat="44.6096" lon="5.90783">
        <ele>1495.3</ele>
        <time>2015-11-15T07:07:55Z</time>
      </trkpt>
      <trkpt lat="44.6097" lon="5.90776">
        <ele>1499.3</ele>
        <time>2015-11-15T07:08:03Z</time>
      </trkpt>
      <trkpt lat="44.60981" lon="5.9078">
        <ele>1506.3</ele>
        <time>2015-11-15T07:08:16Z</time>
      </trkpt>
      <trkpt lat="44.60992" lon="5.90784">
        <ele>1506.3</ele>
        <time>2015-11-15T07:08:30Z</time>
      </trkpt>
      <trkpt lat="44.61001" lon="5.90787">
        <ele>1508.3</ele>
        <time>2015-11-15T07:08:44Z</time>
      </trkpt>
      <trkpt lat="44.61011" lon="5.90791">
        <ele>1511.3</ele>
        <time>2015-11-15T07:09:01Z</time>
      </trkpt>
      <trkpt lat="44.6102" lon="5.90794">
        <ele>1515.3</ele>
        <time>2015-11-15T07:09:09Z</time>
      </trkpt>
      <trkpt lat="44.6103" lon="5.90793">
        <ele>1516.3</ele>
        <time>2015-11-15T07:09:16Z</time>
      </trkpt>
      <trkpt lat="44.6104" lon="5.90789">
        <ele>1457.3</ele>
        <time>2015-11-15T07:09:31Z</time>
      </trkpt>
      <trkpt lat="44.61061" lon="5.90798">
        <ele>1517.3</ele>
        <time>2015-11-15T07:09:53Z</time>
      </trkpt>
      <trkpt lat="44.61071" lon="5.90796">
        <ele>1521.3</ele>
        <time>2015-11-15T07:10:05Z</time>
      </trkpt>
      <trkpt lat="44.61081" lon="5.90791">
        <ele>1527.3</ele>
        <time>2015-11-15T07:10:25Z</time>
      </trkpt>
      <trkpt lat="44.61091" lon="5.90788">
        <ele>1532.3</ele>
        <time>2015-11-15T07:10:34Z</time>
      </trkpt>
      <trkpt lat="44.611" lon="5.90789">
        <ele>1532.3</ele>
        <time>2015-11-15T07:10:46Z</time>
      </trkpt>
      <trkpt lat="44.6111" lon="5.90793">
        <ele>1529.3</ele>
        <time>2015-11-15T07:10:55Z</time>
      </trkpt>
      <trkpt lat="44.6112" lon="5.9079">
        <ele>1532.3</ele>
        <time>2015-11-15T07:11:11Z</time>
      </trkpt>
      <trkpt lat="44.61129" lon="5.90789">
        <ele>1538.3</ele>
        <time>2015-11-15T07:11:23Z</time>
      </trkpt>
      <trkpt lat="44.61139" lon="5.90788">
        <ele>1538.3</ele>
        <time>2015-11-15T07:11:33Z</time>
      </trkpt>
      <trkpt lat="44.61152" lon="5.9078">
        <ele>1539.3</ele>
        <time>2015-11-15T07:11:48Z</time>
      </trkpt>
      <trkpt lat="44.61159" lon="5.9077">
        <ele>1535.3</ele>
        <time>2015-11-15T07:12:21Z</time>
      </trkpt>
      <trkpt lat="44.61168" lon="5.90766">
        <ele>1537.3</ele>
        <time>2015-11-15T07:12:30Z</time>
      </trkpt>
      <trkpt lat="44.61177" lon="5.90771">
        <ele>1536.3</ele>
        <time>2015-11-15T07:12:38Z</time>
      </trkpt>
      <trkpt lat="44.61183" lon="5.90781">
        <ele>1537.3</ele>
        <time>2015-11-15T07:12:49Z</time>
      </trkpt>
      <trkpt lat="44.61193" lon="5.90783">
        <ele>1540.3</ele>
        <time>2015-11-15T07:12:56Z</time>
      </trkpt>
      <trkpt lat="44.61203" lon="5.9078">
        <ele>1540.3</ele>
        <time>2015-11-15T07:13:09Z</time>
      </trkpt>
      <trkpt lat="44.61219" lon="5.90775">
        <ele>1544.3</ele>
        <time>2015-11-15T07:13:25Z</time>
      </trkpt>
      <trkpt lat="44.61228" lon="5.90769">
        <ele>1555.3</ele>
        <time>2015-11-15T07:14:34Z</time>
      </trkpt>
      <trkpt lat="44.61238" lon="5.90766">
        <ele>1564.3</ele>
        <time>2015-11-15T07:15:38Z</time>
      </trkpt>
      <trkpt lat="44.61248" lon="5.90754">
        <ele>1568.3</ele>
        <time>2015-11-15T07:15:48Z</time>
      </trkpt>
      <trkpt lat="44.61258" lon="5.90744">
        <ele>1564.3</ele>
        <time>2015-11-15T07:16:00Z</time>
      </trkpt>
      <trkpt lat="44.61265" lon="5.90736">
        <ele>1565.3</ele>
        <time>2015-11-15T07:16:08Z</time>
      </trkpt>
      <trkpt lat="44.61273" lon="5.90731">
        <ele>1567.3</ele>
        <time>2015-11-15T07:16:17Z</time>
      </trkpt>
      <trkpt lat="44.61281" lon="5.90723">
        <ele>1575.3</ele>
        <time>2015-11-15T07:16:31Z</time>
      </trkpt>
      <trkpt lat="44.61291" lon="5.90725">
        <ele>1581.3</ele>
        <time>2015-11-15T07:16:43Z</time>
      </trkpt>
      <trkpt lat="44.61295" lon="5.90737">
        <ele>1581.3</ele>
        <time>2015-11-15T07:16:52Z</time>
      </trkpt>
      <trkpt lat="44.61297" lon="5.9075">
        <ele>1578.3</ele>
        <time>2015-11-15T07:17:00Z</time>
      </trkpt>
      <trkpt lat="44.61299" lon="5.90763">
        <ele>1578.3</ele>
        <time>2015-11-15T07:17:09Z</time>
      </trkpt>
      <trkpt lat="44.613" lon="5.90776">
        <ele>1580.3</ele>
        <time>2015-11-15T07:17:18Z</time>
      </trkpt>
      <trkpt lat="44.61307" lon="5.90785">
        <ele>1584.3</ele>
        <time>2015-11-15T07:17:29Z</time>
      </trkpt>
      <trkpt lat="44.61334" lon="5.9077">
        <ele>1582.3</ele>
        <time>2015-11-15T07:17:59Z</time>
      </trkpt>
      <trkpt lat="44.61343" lon="5.90772">
        <ele>1585.3</ele>
        <time>2015-11-15T07:18:12Z</time>
      </trkpt>
      <trkpt lat="44.61352" lon="5.90778">
        <ele>1595.3</ele>
        <time>2015-11-15T07:18:22Z</time>
      </trkpt>
      <trkpt lat="44.61364" lon="5.90772">
        <ele>1602.3</ele>
        <time>2015-11-15T07:18:33Z</time>
      </trkpt>
      <trkpt lat="44.61372" lon="5.90777">
        <ele>1608.3</ele>
        <time>2015-11-15T07:18:43Z</time>
      </trkpt>
      <trkpt lat="44.61381" lon="5.90782">
        <ele>1617.3</ele>
        <time>2015-11-15T07:19:00Z</time>
      </trkpt>
      <trkpt lat="44.6139" lon="5.90777">
        <ele>1617.3</ele>
        <time>2015-11-15T07:19:10Z</time>
      </trkpt>
      <trkpt lat="44.61395" lon="5.90788">
        <ele>1618.3</ele>
        <time>2015-11-15T07:19:24Z</time>
      </trkpt>
      <trkpt lat="44.61403" lon="5.90795">
        <ele>1613.3</ele>
        <time>2015-11-15T07:19:32Z</time>
      </trkpt>
      <trkpt lat="44.61415" lon="5.90802">
        <ele>1611.3</ele>
        <time>2015-11-15T07:19:41Z</time>
      </trkpt>
      <trkpt lat="44.61422" lon="5.90809">
        <ele>1613.3</ele>
        <time>2015-11-15T07:19:49Z</time>
      </trkpt>
      <trkpt lat="44.61434" lon="5.90812">
        <ele>1616.3</ele>
        <time>2015-11-15T07:19:57Z</time>
      </trkpt>
      <trkpt lat="44.61441" lon="5.90821">
        <ele>1619.3</ele>
        <time>2015-11-15T07:20:08Z</time>
      </trkpt>
      <trkpt lat="44.6145" lon="5.90827">
        <ele>1615.3</ele>
        <time>2015-11-15T07:20:17Z</time>
      </trkpt>
      <trkpt lat="44.61459" lon="5.90832">
        <ele>1613.3</ele>
        <time>2015-11-15T07:20:25Z</time>
      </trkpt>
      <trkpt lat="44.61467" lon="5.9084">
        <ele>1616.3</ele>
        <time>2015-11-15T07:20:32Z</time>
      </trkpt>
      <trkpt lat="44.61476" lon="5.90846">
        <ele>1615.3</ele>
        <time>2015-11-15T07:20:39Z</time>
      </trkpt>
      <trkpt lat="44.61477" lon="5.90859">
        <ele>1615.3</ele>
        <time>2015-11-15T07:20:50Z</time>
      </trkpt>
      <trkpt lat="44.61482" lon="5.9087">
        <ele>1611.3</ele>
        <time>2015-11-15T07:20:58Z</time>
      </trkpt>
      <trkpt lat="44.61487" lon="5.90882">
        <ele>1613.3</ele>
        <time>2015-11-15T07:21:05Z</time>
      </trkpt>
      <trkpt lat="44.61495" lon="5.9089">
        <ele>1611.3</ele>
        <time>2015-11-15T07:21:11Z</time>
      </trkpt>
      <trkpt lat="44.61503" lon="5.90897">
        <ele>1608.3</ele>
        <time>2015-11-15T07:21:19Z</time>
      </trkpt>
      <trkpt lat="44.61513" lon="5.90892">
        <ele>1612.3</ele>
        <time>2015-11-15T07:21:26Z</time>
      </trkpt>
      <trkpt lat="44.61524" lon="5.90893">
        <ele>1613.3</ele>
        <time>2015-11-15T07:21:37Z</time>
      </trkpt>
      <trkpt lat="44.6153" lon="5.90904">
        <ele>1611.3</ele>
        <time>2015-11-15T07:21:47Z</time>
      </trkpt>
      <trkpt lat="44.61536" lon="5.90919">
        <ele>1614.3</ele>
        <time>2015-11-15T07:21:55Z</time>
      </trkpt>
      <trkpt lat="44.61544" lon="5.90929">
        <ele>1619.3</ele>
        <time>2015-11-15T07:22:03Z</time>
      </trkpt>
      <trkpt lat="44.61552" lon="5.90936">
        <ele>1621.3</ele>
        <time>2015-11-15T07:22:12Z</time>
      </trkpt>
      <trkpt lat="44.6156" lon="5.90943">
        <ele>1621.3</ele>
        <time>2015-11-15T07:22:38Z</time>
      </trkpt>
      <trkpt lat="44.61572" lon="5.90956">
        <ele>1620.3</ele>
        <time>2015-11-15T07:22:56Z</time>
      </trkpt>
      <trkpt lat="44.61575" lon="5.90967">
        <ele>1623.3</ele>
        <time>2015-11-15T07:23:36Z</time>
      </trkpt>
      <trkpt lat="44.6158" lon="5.90979">
        <ele>1623.3</ele>
        <time>2015-11-15T07:23:42Z</time>
      </trkpt>
      <trkpt lat="44.61589" lon="5.90983">
        <ele>1614.3</ele>
        <time>2015-11-15T07:24:15Z</time>
      </trkpt>
      <trkpt lat="44.61594" lon="5.90995">
        <ele>1609.3</ele>
        <time>2015-11-15T07:24:26Z</time>
      </trkpt>
      <trkpt lat="44.61595" lon="5.91008">
        <ele>1606.3</ele>
        <time>2015-11-15T07:24:38Z</time>
      </trkpt>
      <trkpt lat="44.61592" lon="5.9102">
        <ele>1608.3</ele>
        <time>2015-11-15T07:24:47Z</time>
      </trkpt>
      <trkpt lat="44.61589" lon="5.91033">
        <ele>1608.3</ele>
        <time>2015-11-15T07:24:54Z</time>
      </trkpt>
      <trkpt lat="44.61587" lon="5.91047">
        <ele>1614.3</ele>
        <time>2015-11-15T07:25:01Z</time>
      </trkpt>
      <trkpt lat="44.61588" lon="5.91061">
        <ele>1615.3</ele>
        <time>2015-11-15T07:25:08Z</time>
      </trkpt>
      <trkpt lat="44.61587" lon="5.91075">
        <ele>1616.3</ele>
        <time>2015-11-15T07:25:15Z</time>
      </trkpt>
      <trkpt lat="44.61591" lon="5.91089">
        <ele>1615.3</ele>
        <time>2015-11-15T07:25:23Z</time>
      </trkpt>
      <trkpt lat="44.61596" lon="5.91101">
        <ele>1613.3</ele>
        <time>2015-11-15T07:25:31Z</time>
      </trkpt>
      <trkpt lat="44.61597" lon="5.91116">
        <ele>1603.3</ele>
        <time>2015-11-15T07:25:40Z</time>
      </trkpt>
      <trkpt lat="44.61598" lon="5.9113">
        <ele>1608.3</ele>
        <time>2015-11-15T07:25:48Z</time>
      </trkpt>
      <trkpt lat="44.61597" lon="5.91143">
        <ele>1612.3</ele>
        <time>2015-11-15T07:25:58Z</time>
      </trkpt>
      <trkpt lat="44.61599" lon="5.91156">
        <ele>1612.3</ele>
        <time>2015-11-15T07:26:12Z</time>
      </trkpt>
      <trkpt lat="44.61598" lon="5.91169">
        <ele>1615.3</ele>
        <time>2015-11-15T07:26:27Z</time>
      </trkpt>
      <trkpt lat="44.61599" lon="5.91185">
        <ele>1616.3</ele>
        <time>2015-11-15T07:26:42Z</time>
      </trkpt>
      <trkpt lat="44.61604" lon="5.91201">
        <ele>1614.3</ele>
        <time>2015-11-15T07:26:56Z</time>
      </trkpt>
      <trkpt lat="44.61603" lon="5.91215">
        <ele>1616.3</ele>
        <time>2015-11-15T07:27:08Z</time>
      </trkpt>
      <trkpt lat="44.61604" lon="5.91228">
        <ele>1616.3</ele>
        <time>2015-11-15T07:27:21Z</time>
      </trkpt>
      <trkpt lat="44.61607" lon="5.9124">
        <ele>1617.3</ele>
        <time>2015-11-15T07:27:39Z</time>
      </trkpt>
      <trkpt lat="44.61608" lon="5.91254">
        <ele>1618.3</ele>
        <time>2015-11-15T07:27:51Z</time>
      </trkpt>
      <trkpt lat="44.61612" lon="5.91265">
        <ele>1621.3</ele>
        <time>2015-11-15T07:28:13Z</time>
      </trkpt>
      <trkpt lat="44.61619" lon="5.91256">
        <ele>1622.3</ele>
        <time>2015-11-15T07:28:24Z</time>
      </trkpt>
      <trkpt lat="44.61627" lon="5.9125">
        <ele>1634.3</ele>
        <time>2015-11-15T07:28:41Z</time>
      </trkpt>
      <trkpt lat="44.61635" lon="5.91243">
        <ele>1634.3</ele>
        <time>2015-11-15T07:28:54Z</time>
      </trkpt>
      <trkpt lat="44.61641" lon="5.91252">
        <ele>1629.3</ele>
        <time>2015-11-15T07:29:16Z</time>
      </trkpt>
      <trkpt lat="44.61639" lon="5.9127">
        <ele>1640.3</ele>
        <time>2015-11-15T07:29:34Z</time>
      </trkpt>
      <trkpt lat="44.61648" lon="5.91267">
        <ele>1630.3</ele>
        <time>2015-11-15T07:32:37Z</time>
      </trkpt>
      <trkpt lat="44.61655" lon="5.91257">
        <ele>1625.3</ele>
        <time>2015-11-15T07:32:45Z</time>
      </trkpt>
      <trkpt lat="44.61663" lon="5.91248">
        <ele>1622.3</ele>
        <time>2015-11-15T07:32:53Z</time>
      </trkpt>
      <trkpt lat="44.61668" lon="5.91236">
        <ele>1624.3</ele>
        <time>2015-11-15T07:33:03Z</time>
      </trkpt>
      <trkpt lat="44.61672" lon="5.91223">
        <ele>1623.3</ele>
        <time>2015-11-15T07:33:11Z</time>
      </trkpt>
      <trkpt lat="44.61674" lon="5.91209">
        <ele>1631.3</ele>
        <time>2015-11-15T07:33:22Z</time>
      </trkpt>
      <trkpt lat="44.61679" lon="5.91198">
        <ele>1639.3</ele>
        <time>2015-11-15T07:33:35Z</time>
      </trkpt>
      <trkpt lat="44.6168" lon="5.91185">
        <ele>1644.3</ele>
        <time>2015-11-15T07:33:53Z</time>
      </trkpt>
      <trkpt lat="44.61688" lon="5.91191">
        <ele>1651.3</ele>
        <time>2015-11-15T07:34:14Z</time>
      </trkpt>
      <trkpt lat="44.61695" lon="5.912">
        <ele>1656.3</ele>
        <time>2015-11-15T07:34:35Z</time>
      </trkpt>
      <trkpt lat="44.61702" lon="5.91209">
        <ele>1656.3</ele>
        <time>2015-11-15T07:34:43Z</time>
      </trkpt>
      <trkpt lat="44.61709" lon="5.91221">
        <ele>1661.3</ele>
        <time>2015-11-15T07:34:51Z</time>
      </trkpt>
      <trkpt lat="44.61715" lon="5.91233">
        <ele>1664.3</ele>
        <time>2015-11-15T07:35:05Z</time>
      </trkpt>
      <trkpt lat="44.61723" lon="5.91242">
        <ele>1666.3</ele>
        <time>2015-11-15T07:35:16Z</time>
      </trkpt>
      <trkpt lat="44.61727" lon="5.91253">
        <ele>1671.3</ele>
        <time>2015-11-15T07:35:39Z</time>
      </trkpt>
      <trkpt lat="44.61733" lon="5.91263">
        <ele>1672.3</ele>
        <time>2015-11-15T07:35:50Z</time>
      </trkpt>
      <trkpt lat="44.61742" lon="5.9126">
        <ele>1674.3</ele>
        <time>2015-11-15T07:36:01Z</time>
      </trkpt>
      <trkpt lat="44.61746" lon="5.91242">
        <ele>1675.3</ele>
        <time>2015-11-15T07:36:14Z</time>
      </trkpt>
      <trkpt lat="44.61746" lon="5.91229">
        <ele>1679.3</ele>
        <time>2015-11-15T07:36:22Z</time>
      </trkpt>
      <trkpt lat="44.61746" lon="5.91215">
        <ele>1684.3</ele>
        <time>2015-11-15T07:36:30Z</time>
      </trkpt>
      <trkpt lat="44.61745" lon="5.912">
        <ele>1688.3</ele>
        <time>2015-11-15T07:36:41Z</time>
      </trkpt>
      <trkpt lat="44.61743" lon="5.91187">
        <ele>1694.3</ele>
        <time>2015-11-15T07:36:55Z</time>
      </trkpt>
      <trkpt lat="44.61746" lon="5.91174">
        <ele>1698.3</ele>
        <time>2015-11-15T07:37:06Z</time>
      </trkpt>
      <trkpt lat="44.6175" lon="5.91162">
        <ele>1701.3</ele>
        <time>2015-11-15T07:37:19Z</time>
      </trkpt>
      <trkpt lat="44.61759" lon="5.91169">
        <ele>1703.3</ele>
        <time>2015-11-15T07:37:39Z</time>
      </trkpt>
      <trkpt lat="44.61768" lon="5.91174">
        <ele>1706.3</ele>
        <time>2015-11-15T07:37:54Z</time>
      </trkpt>
      <trkpt lat="44.61775" lon="5.91181">
        <ele>1704.3</ele>
        <time>2015-11-15T07:38:10Z</time>
      </trkpt>
      <trkpt lat="44.61782" lon="5.9119">
        <ele>1709.3</ele>
        <time>2015-11-15T07:38:19Z</time>
      </trkpt>
      <trkpt lat="44.61788" lon="5.912">
        <ele>1713.3</ele>
        <time>2015-11-15T07:38:31Z</time>
      </trkpt>
      <trkpt lat="44.61796" lon="5.91193">
        <ele>1721.3</ele>
        <time>2015-11-15T07:38:48Z</time>
      </trkpt>
      <trkpt lat="44.61797" lon="5.9118">
        <ele>1724.3</ele>
        <time>2015-11-15T07:38:57Z</time>
      </trkpt>
      <trkpt lat="44.61796" lon="5.91167">
        <ele>1727.3</ele>
        <time>2015-11-15T07:39:05Z</time>
      </trkpt>
      <trkpt lat="44.61805" lon="5.91175">
        <ele>1730.3</ele>
        <time>2015-11-15T07:39:23Z</time>
      </trkpt>
      <trkpt lat="44.61813" lon="5.91183">
        <ele>1732.3</ele>
        <time>2015-11-15T07:39:35Z</time>
      </trkpt>
      <trkpt lat="44.6182" lon="5.91191">
        <ele>1738.3</ele>
        <time>2015-11-15T07:39:42Z</time>
      </trkpt>
      <trkpt lat="44.61826" lon="5.912">
        <ele>1740.3</ele>
        <time>2015-11-15T07:39:55Z</time>
      </trkpt>
      <trkpt lat="44.61834" lon="5.91194">
        <ele>1752.3</ele>
        <time>2015-11-15T07:40:17Z</time>
      </trkpt>
      <trkpt lat="44.61833" lon="5.91174">
        <ele>1750.3</ele>
        <time>2015-11-15T07:40:30Z</time>
      </trkpt>
      <trkpt lat="44.61833" lon="5.91161">
        <ele>1759.3</ele>
        <time>2015-11-15T07:40:42Z</time>
      </trkpt>
      <trkpt lat="44.61835" lon="5.91148">
        <ele>1764.3</ele>
        <time>2015-11-15T07:40:56Z</time>
      </trkpt>
      <trkpt lat="44.61832" lon="5.91135">
        <ele>1769.3</ele>
        <time>2015-11-15T07:41:06Z</time>
      </trkpt>
      <trkpt lat="44.6183" lon="5.91122">
        <ele>1769.3</ele>
        <time>2015-11-15T07:41:16Z</time>
      </trkpt>
      <trkpt lat="44.61826" lon="5.91108">
        <ele>1770.3</ele>
        <time>2015-11-15T07:41:28Z</time>
      </trkpt>
      <trkpt lat="44.61821" lon="5.91096">
        <ele>1774.3</ele>
        <time>2015-11-15T07:41:37Z</time>
      </trkpt>
      <trkpt lat="44.61822" lon="5.91083">
        <ele>1771.3</ele>
        <time>2015-11-15T07:41:51Z</time>
      </trkpt>
      <trkpt lat="44.61822" lon="5.9107">
        <ele>1771.3</ele>
        <time>2015-11-15T07:42:02Z</time>
      </trkpt>
      <trkpt lat="44.61823" lon="5.91056">
        <ele>1774.3</ele>
        <time>2015-11-15T07:42:16Z</time>
      </trkpt>
      <trkpt lat="44.61827" lon="5.91044">
        <ele>1776.3</ele>
        <time>2015-11-15T07:42:31Z</time>
      </trkpt>
      <trkpt lat="44.61831" lon="5.91027">
        <ele>1782.3</ele>
        <time>2015-11-15T07:42:49Z</time>
      </trkpt>
      <trkpt lat="44.61832" lon="5.91014">
        <ele>1782.3</ele>
        <time>2015-11-15T07:43:14Z</time>
      </trkpt>
      <trkpt lat="44.61829" lon="5.90993">
        <ele>1791.3</ele>
        <time>2015-11-15T07:43:35Z</time>
      </trkpt>
      <trkpt lat="44.61827" lon="5.90979">
        <ele>1792.3</ele>
        <time>2015-11-15T07:43:46Z</time>
      </trkpt>
      <trkpt lat="44.61828" lon="5.90966">
        <ele>1793.3</ele>
        <time>2015-11-15T07:44:01Z</time>
      </trkpt>
      <trkpt lat="44.61829" lon="5.90947">
        <ele>1798.3</ele>
        <time>2015-11-15T07:44:21Z</time>
      </trkpt>
      <trkpt lat="44.61834" lon="5.90936">
        <ele>1796.3</ele>
        <time>2015-11-15T07:44:31Z</time>
      </trkpt>
      <trkpt lat="44.61839" lon="5.90924">
        <ele>1799.3</ele>
        <time>2015-11-15T07:44:47Z</time>
      </trkpt>
      <trkpt lat="44.61847" lon="5.90915">
        <ele>1797.3</ele>
        <time>2015-11-15T07:44:58Z</time>
      </trkpt>
      <trkpt lat="44.61855" lon="5.90909">
        <ele>1797.3</ele>
        <time>2015-11-15T07:45:08Z</time>
      </trkpt>
      <trkpt lat="44.61864" lon="5.90904">
        <ele>1806.3</ele>
        <time>2015-11-15T07:45:34Z</time>
      </trkpt>
      <trkpt lat="44.61872" lon="5.90908">
        <ele>1811.3</ele>
        <time>2015-11-15T07:46:04Z</time>
      </trkpt>
      <trkpt lat="44.61877" lon="5.9092">
        <ele>1819.3</ele>
        <time>2015-11-15T07:46:21Z</time>
      </trkpt>
      <trkpt lat="44.61886" lon="5.90927">
        <ele>1826.3</ele>
        <time>2015-11-15T07:46:37Z</time>
      </trkpt>
      <trkpt lat="44.61893" lon="5.90936">
        <ele>1823.3</ele>
        <time>2015-11-15T07:46:52Z</time>
      </trkpt>
      <trkpt lat="44.619" lon="5.90945">
        <ele>1822.3</ele>
        <time>2015-11-15T07:47:03Z</time>
      </trkpt>
      <trkpt lat="44.61909" lon="5.90941">
        <ele>1821.3</ele>
        <time>2015-11-15T07:47:16Z</time>
      </trkpt>
      <trkpt lat="44.61917" lon="5.90935">
        <ele>1820.3</ele>
        <time>2015-11-15T07:47:36Z</time>
      </trkpt>
      <trkpt lat="44.61926" lon="5.90929">
        <ele>1817.3</ele>
        <time>2015-11-15T07:47:42Z</time>
      </trkpt>
      <trkpt lat="44.61935" lon="5.90923">
        <ele>1816.3</ele>
        <time>2015-11-15T07:47:49Z</time>
      </trkpt>
      <trkpt lat="44.61942" lon="5.90915">
        <ele>1821.3</ele>
        <time>2015-11-15T07:47:58Z</time>
      </trkpt>
      <trkpt lat="44.61951" lon="5.90907">
        <ele>1824.3</ele>
        <time>2015-11-15T07:48:09Z</time>
      </trkpt>
      <trkpt lat="44.61959" lon="5.909">
        <ele>1826.3</ele>
        <time>2015-11-15T07:48:19Z</time>
      </trkpt>
      <trkpt lat="44.61966" lon="5.90892">
        <ele>1829.3</ele>
        <time>2015-11-15T07:48:30Z</time>
      </trkpt>
      <trkpt lat="44.61975" lon="5.90888">
        <ele>1834.3</ele>
        <time>2015-11-15T07:49:44Z</time>
      </trkpt>
      <trkpt lat="44.61984" lon="5.90881">
        <ele>1834.3</ele>
        <time>2015-11-15T07:49:54Z</time>
      </trkpt>
      <trkpt lat="44.61989" lon="5.9087">
        <ele>1836.3</ele>
        <time>2015-11-15T07:50:09Z</time>
      </trkpt>
      <trkpt lat="44.61996" lon="5.90861">
        <ele>1838.3</ele>
        <time>2015-11-15T07:50:21Z</time>
      </trkpt>
      <trkpt lat="44.62002" lon="5.90853">
        <ele>1837.3</ele>
        <time>2015-11-15T07:50:38Z</time>
      </trkpt>
      <trkpt lat="44.6201" lon="5.90844">
        <ele>1843.3</ele>
        <time>2015-11-15T07:51:06Z</time>
      </trkpt>
      <trkpt lat="44.6201" lon="5.9083">
        <ele>1846.3</ele>
        <time>2015-11-15T07:51:23Z</time>
      </trkpt>
      <trkpt lat="44.62014" lon="5.90817">
        <ele>1854.3</ele>
        <time>2015-11-15T07:51:40Z</time>
      </trkpt>
      <trkpt lat="44.62017" lon="5.90805">
        <ele>1858.3</ele>
        <time>2015-11-15T07:51:58Z</time>
      </trkpt>
      <trkpt lat="44.62015" lon="5.90791">
        <ele>1859.3</ele>
        <time>2015-11-15T07:52:09Z</time>
      </trkpt>
      <trkpt lat="44.62014" lon="5.9077">
        <ele>1866.3</ele>
        <time>2015-11-15T07:52:37Z</time>
      </trkpt>
      <trkpt lat="44.62012" lon="5.90757">
        <ele>1868.3</ele>
        <time>2015-11-15T07:52:53Z</time>
      </trkpt>
      <trkpt lat="44.6201" lon="5.90744">
        <ele>1872.3</ele>
        <time>2015-11-15T07:53:24Z</time>
      </trkpt>
      <trkpt lat="44.62005" lon="5.90734">
        <ele>1876.3</ele>
        <time>2015-11-15T07:53:37Z</time>
      </trkpt>
      <trkpt lat="44.61995" lon="5.90729">
        <ele>1879.3</ele>
        <time>2015-11-15T07:53:51Z</time>
      </trkpt>
      <trkpt lat="44.61989" lon="5.90719">
        <ele>1882.3</ele>
        <time>2015-11-15T07:54:13Z</time>
      </trkpt>
      <trkpt lat="44.61982" lon="5.9071">
        <ele>1880.3</ele>
        <time>2015-11-15T07:54:21Z</time>
      </trkpt>
      <trkpt lat="44.61985" lon="5.90698">
        <ele>1882.3</ele>
        <time>2015-11-15T07:54:52Z</time>
      </trkpt>
      <trkpt lat="44.61992" lon="5.90691">
        <ele>1883.3</ele>
        <time>2015-11-15T07:55:24Z</time>
      </trkpt>
      <trkpt lat="44.62001" lon="5.90689">
        <ele>1893.3</ele>
        <time>2015-11-15T07:55:40Z</time>
      </trkpt>
      <trkpt lat="44.62008" lon="5.9068">
        <ele>1890.3</ele>
        <time>2015-11-15T07:56:08Z</time>
      </trkpt>
      <trkpt lat="44.62012" lon="5.90667">
        <ele>1884.3</ele>
        <time>2015-11-15T07:56:23Z</time>
      </trkpt>
      <trkpt lat="44.62004" lon="5.9066">
        <ele>1896.3</ele>
        <time>2015-11-15T07:57:11Z</time>
      </trkpt>
      <trkpt lat="44.62001" lon="5.90648">
        <ele>1904.3</ele>
        <time>2015-11-15T07:57:38Z</time>
      </trkpt>
      <trkpt lat="44.62005" lon="5.90637">
        <ele>1908.3</ele>
        <time>2015-11-15T07:58:02Z</time>
      </trkpt>
      <trkpt lat="44.62" lon="5.90626">
        <ele>1914.3</ele>
        <time>2015-11-15T07:58:44Z</time>
      </trkpt>
      <trkpt lat="44.62" lon="5.90612">
        <ele>1917.3</ele>
        <time>2015-11-15T08:00:24Z</time>
      </trkpt>
      <trkpt lat="44.61996" lon="5.90599">
        <ele>1926.3</ele>
        <time>2015-11-15T08:01:27Z</time>
      </trkpt>
      <trkpt lat="44.61995" lon="5.90586">
        <ele>1930.3</ele>
        <time>2015-11-15T08:01:44Z</time>
      </trkpt>
      <trkpt lat="44.61996" lon="5.90573">
        <ele>1933.3</ele>
        <time>2015-11-15T08:02:08Z</time>
      </trkpt>
      <trkpt lat="44.61998" lon="5.90561">
        <ele>1939.3</ele>
        <time>2015-11-15T08:03:09Z</time>
      </trkpt>
      <trkpt lat="44.61993" lon="5.90549">
        <ele>1953.3</ele>
        <time>2015-11-15T08:04:45Z</time>
      </trkpt>
      <trkpt lat="44.61983" lon="5.9055">
        <ele>1956.3</ele>
        <time>2015-11-15T08:05:00Z</time>
      </trkpt>
      <trkpt lat="44.61973" lon="5.90552">
        <ele>1962.3</ele>
        <time>2015-11-15T08:05:19Z</time>
      </trkpt>
      <trkpt lat="44.61963" lon="5.90552">
        <ele>1967.3</ele>
        <time>2015-11-15T08:05:46Z</time>
      </trkpt>
      <trkpt lat="44.61962" lon="5.90539">
        <ele>1972.3</ele>
        <time>2015-11-15T08:06:28Z</time>
      </trkpt>
      <trkpt lat="44.61957" lon="5.90529">
        <ele>1986.3</ele>
        <time>2015-11-15T08:09:19Z</time>
      </trkpt>
      <trkpt lat="44.61957" lon="5.90516">
        <ele>1993.3</ele>
        <time>2015-11-15T08:09:44Z</time>
      </trkpt>
      <trkpt lat="44.61948" lon="5.90514">
        <ele>1998.3</ele>
        <time>2015-11-15T08:09:58Z</time>
      </trkpt>
      <trkpt lat="44.61946" lon="5.90499">
        <ele>2010.3</ele>
        <time>2015-11-15T08:10:53Z</time>
      </trkpt>
      <trkpt lat="44.61937" lon="5.90499">
        <ele>2010.3</ele>
        <time>2015-11-15T08:11:09Z</time>
      </trkpt>
      <trkpt lat="44.61941" lon="5.90488">
        <ele>2011.3</ele>
        <time>2015-11-15T08:11:46Z</time>
      </trkpt>
      <trkpt lat="44.61945" lon="5.90476">
        <ele>2010.3</ele>
        <time>2015-11-15T08:12:25Z</time>
      </trkpt>
      <trkpt lat="44.61939" lon="5.90467">
        <ele>2016.3</ele>
        <time>2015-11-15T08:12:46Z</time>
      </trkpt>
      <trkpt lat="44.61934" lon="5.90456">
        <ele>2019.3</ele>
        <time>2015-11-15T08:12:57Z</time>
      </trkpt>
      <trkpt lat="44.6193" lon="5.90444">
        <ele>2020.3</ele>
        <time>2015-11-15T08:13:13Z</time>
      </trkpt>
      <trkpt lat="44.61921" lon="5.9044">
        <ele>2024.3</ele>
        <time>2015-11-15T08:16:43Z</time>
      </trkpt>
      <trkpt lat="44.61912" lon="5.90439">
        <ele>2028.3</ele>
        <time>2015-11-15T08:17:00Z</time>
      </trkpt>
      <trkpt lat="44.61903" lon="5.90438">
        <ele>2032.3</ele>
        <time>2015-11-15T08:17:17Z</time>
      </trkpt>
      <trkpt lat="44.61894" lon="5.90433">
        <ele>2032.3</ele>
        <time>2015-11-15T08:17:34Z</time>
      </trkpt>
      <trkpt lat="44.61885" lon="5.90432">
        <ele>2035.3</ele>
        <time>2015-11-15T08:17:50Z</time>
      </trkpt>
      <trkpt lat="44.61882" lon="5.9042">
        <ele>2036.3</ele>
        <time>2015-11-15T08:18:10Z</time>
      </trkpt>
      <trkpt lat="44.61881" lon="5.90406">
        <ele>2039.3</ele>
        <time>2015-11-15T08:18:29Z</time>
      </trkpt>
      <trkpt lat="44.61885" lon="5.90394">
        <ele>2045.3</ele>
        <time>2015-11-15T08:18:47Z</time>
      </trkpt>
      <trkpt lat="44.61887" lon="5.90382">
        <ele>2049.3</ele>
        <time>2015-11-15T08:19:19Z</time>
      </trkpt>
      <trkpt lat="44.61894" lon="5.9037">
        <ele>2051.3</ele>
        <time>2015-11-15T08:21:56Z</time>
      </trkpt>
      <trkpt lat="44.619" lon="5.9036">
        <ele>2055.3</ele>
        <time>2015-11-15T08:22:33Z</time>
      </trkpt>
      <trkpt lat="44.61906" lon="5.90349">
        <ele>2063.3</ele>
        <time>2015-11-15T08:23:08Z</time>
      </trkpt>
      <trkpt lat="44.61915" lon="5.90345">
        <ele>2069.3</ele>
        <time>2015-11-15T08:23:51Z</time>
      </trkpt>
      <trkpt lat="44.61923" lon="5.9034">
        <ele>2088.3</ele>
        <time>2015-11-15T08:26:37Z</time>
      </trkpt>
      <trkpt lat="44.6193" lon="5.9033">
        <ele>2091.3</ele>
        <time>2015-11-15T08:27:15Z</time>
      </trkpt>
      <trkpt lat="44.61937" lon="5.90321">
        <ele>2096.3</ele>
        <time>2015-11-15T08:27:43Z</time>
      </trkpt>
      <trkpt lat="44.61942" lon="5.9031">
        <ele>2103.3</ele>
        <time>2015-11-15T08:28:21Z</time>
      </trkpt>
      <trkpt lat="44.61948" lon="5.903">
        <ele>2111.3</ele>
        <time>2015-11-15T08:28:55Z</time>
      </trkpt>
      <trkpt lat="44.61954" lon="5.90291">
        <ele>2117.3</ele>
        <time>2015-11-15T08:29:38Z</time>
      </trkpt>
      <trkpt lat="44.61955" lon="5.90277">
        <ele>2123.3</ele>
        <time>2015-11-15T08:30:07Z</time>
      </trkpt>
      <trkpt lat="44.61957" lon="5.90264">
        <ele>2122.3</ele>
        <time>2015-11-15T08:30:26Z</time>
      </trkpt>
      <trkpt lat="44.61957" lon="5.90251">
        <ele>2126.3</ele>
        <time>2015-11-15T08:30:52Z</time>
      </trkpt>
      <trkpt lat="44.61957" lon="5.90238">
        <ele>2135.3</ele>
        <time>2015-11-15T08:31:26Z</time>
      </trkpt>
      <trkpt lat="44.61958" lon="5.90224">
        <ele>2138.3</ele>
        <time>2015-11-15T08:31:48Z</time>
      </trkpt>
      <trkpt lat="44.61955" lon="5.90211">
        <ele>2141.3</ele>
        <time>2015-11-15T08:32:09Z</time>
      </trkpt>
      <trkpt lat="44.61958" lon="5.90199">
        <ele>2136.3</ele>
        <time>2015-11-15T08:33:39Z</time>
      </trkpt>
      <trkpt lat="44.61954" lon="5.90186">
        <ele>2137.3</ele>
        <time>2015-11-15T08:36:29Z</time>
      </trkpt>
      <trkpt lat="44.61952" lon="5.90173">
        <ele>2140.3</ele>
        <time>2015-11-15T08:36:41Z</time>
      </trkpt>
      <trkpt lat="44.61944" lon="5.90162">
        <ele>2148.3</ele>
        <time>2015-11-15T08:36:58Z</time>
      </trkpt>
      <trkpt lat="44.61938" lon="5.90151">
        <ele>2148.3</ele>
        <time>2015-11-15T08:37:07Z</time>
      </trkpt>
      <trkpt lat="44.61931" lon="5.90142">
        <ele>2147.3</ele>
        <time>2015-11-15T08:37:20Z</time>
      </trkpt>
      <trkpt lat="44.61922" lon="5.90136">
        <ele>2152.3</ele>
        <time>2015-11-15T08:38:09Z</time>
      </trkpt>
      <trkpt lat="44.61914" lon="5.90129">
        <ele>2155.3</ele>
        <time>2015-11-15T08:38:16Z</time>
      </trkpt>
      <trkpt lat="44.61905" lon="5.90121">
        <ele>2159.3</ele>
        <time>2015-11-15T08:38:39Z</time>
      </trkpt>
      <trkpt lat="44.61899" lon="5.9011">
        <ele>2158.3</ele>
        <time>2015-11-15T08:38:47Z</time>
      </trkpt>
      <trkpt lat="44.61893" lon="5.901">
        <ele>2161.3</ele>
        <time>2015-11-15T08:38:56Z</time>
      </trkpt>
      <trkpt lat="44.61884" lon="5.90093">
        <ele>2165.3</ele>
        <time>2015-11-15T08:39:36Z</time>
      </trkpt>
      <trkpt lat="44.61885" lon="5.9008">
        <ele>2171.3</ele>
        <time>2015-11-15T08:39:44Z</time>
      </trkpt>
      <trkpt lat="44.61884" lon="5.90067">
        <ele>2176.3</ele>
        <time>2015-11-15T08:40:18Z</time>
      </trkpt>
      <trkpt lat="44.61887" lon="5.90079">
        <ele>2175.3</ele>
        <time>2015-11-15T08:42:28Z</time>
      </trkpt>
      <trkpt lat="44.61885" lon="5.90091">
        <ele>2169.3</ele>
        <time>2015-11-15T08:43:01Z</time>
      </trkpt>
      <trkpt lat="44.61893" lon="5.90099">
        <ele>2165.3</ele>
        <time>2015-11-15T08:43:28Z</time>
      </trkpt>
      <trkpt lat="44.61901" lon="5.90106">
        <ele>2163.3</ele>
        <time>2015-11-15T08:43:48Z</time>
      </trkpt>
      <trkpt lat="44.61909" lon="5.90114">
        <ele>2163.3</ele>
        <time>2015-11-15T08:44:04Z</time>
      </trkpt>
      <trkpt lat="44.61916" lon="5.90122">
        <ele>2160.3</ele>
        <time>2015-11-15T08:44:21Z</time>
      </trkpt>
      <trkpt lat="44.61924" lon="5.90129">
        <ele>2161.3</ele>
        <time>2015-11-15T08:44:39Z</time>
      </trkpt>
      <trkpt lat="44.61932" lon="5.90137">
        <ele>2163.3</ele>
        <time>2015-11-15T08:44:56Z</time>
      </trkpt>
      <trkpt lat="44.61941" lon="5.9014">
        <ele>2162.3</ele>
        <time>2015-11-15T08:45:09Z</time>
      </trkpt>
      <trkpt lat="44.61949" lon="5.90142">
        <ele>2160.3</ele>
        <time>2015-11-15T08:45:36Z</time>
      </trkpt>
      <trkpt lat="44.61958" lon="5.90147">
        <ele>2162.3</ele>
        <time>2015-11-15T08:45:57Z</time>
      </trkpt>
      <trkpt lat="44.61968" lon="5.90148">
        <ele>2170.3</ele>
        <time>2015-11-15T08:46:33Z</time>
      </trkpt>
      <trkpt lat="44.61976" lon="5.90142">
        <ele>2176.3</ele>
        <time>2015-11-15T08:47:38Z</time>
      </trkpt>
      <trkpt lat="44.61967" lon="5.90145">
        <ele>2171.3</ele>
        <time>2015-11-15T08:48:24Z</time>
      </trkpt>
      <trkpt lat="44.61957" lon="5.90147">
        <ele>2167.3</ele>
        <time>2015-11-15T08:48:48Z</time>
      </trkpt>
      <trkpt lat="44.61958" lon="5.9016">
        <ele>2163.3</ele>
        <time>2015-11-15T08:49:09Z</time>
      </trkpt>
      <trkpt lat="44.61949" lon="5.90164">
        <ele>2156.3</ele>
        <time>2015-11-15T08:49:39Z</time>
      </trkpt>
      <trkpt lat="44.61945" lon="5.90176">
        <ele>2150.3</ele>
        <time>2015-11-15T08:50:12Z</time>
      </trkpt>
      <trkpt lat="44.61954" lon="5.90182">
        <ele>2150.3</ele>
        <time>2015-11-15T08:50:36Z</time>
      </trkpt>
      <trkpt lat="44.61957" lon="5.90194">
        <ele>2149.3</ele>
        <time>2015-11-15T08:50:50Z</time>
      </trkpt>
      <trkpt lat="44.61958" lon="5.90207">
        <ele>2147.3</ele>
        <time>2015-11-15T08:51:08Z</time>
      </trkpt>
      <trkpt lat="44.61961" lon="5.90219">
        <ele>2146.3</ele>
        <time>2015-11-15T08:51:27Z</time>
      </trkpt>
      <trkpt lat="44.61961" lon="5.90233">
        <ele>2144.3</ele>
        <time>2015-11-15T08:51:41Z</time>
      </trkpt>
      <trkpt lat="44.61966" lon="5.90244">
        <ele>2143.3</ele>
        <time>2015-11-15T08:51:58Z</time>
      </trkpt>
      <trkpt lat="44.61965" lon="5.90256">
        <ele>2143.3</ele>
        <time>2015-11-15T08:52:15Z</time>
      </trkpt>
      <trkpt lat="44.61957" lon="5.90263">
        <ele>2136.3</ele>
        <time>2015-11-15T08:53:25Z</time>
      </trkpt>
      <trkpt lat="44.61955" lon="5.90276">
        <ele>2132.3</ele>
        <time>2015-11-15T08:53:45Z</time>
      </trkpt>
      <trkpt lat="44.61955" lon="5.90262">
        <ele>2136.3</ele>
        <time>2015-11-15T08:54:27Z</time>
      </trkpt>
      <trkpt lat="44.61958" lon="5.90248">
        <ele>2134.3</ele>
        <time>2015-11-15T08:54:45Z</time>
      </trkpt>
      <trkpt lat="44.61951" lon="5.90239">
        <ele>2133.3</ele>
        <time>2015-11-15T08:54:57Z</time>
      </trkpt>
      <trkpt lat="44.6195" lon="5.90226">
        <ele>2136.3</ele>
        <time>2015-11-15T08:55:24Z</time>
      </trkpt>
      <trkpt lat="44.61949" lon="5.90213">
        <ele>2138.3</ele>
        <time>2015-11-15T08:55:41Z</time>
      </trkpt>
      <trkpt lat="44.61947" lon="5.902">
        <ele>2139.3</ele>
        <time>2015-11-15T08:55:58Z</time>
      </trkpt>
      <trkpt lat="44.6195" lon="5.90187">
        <ele>2143.3</ele>
        <time>2015-11-15T08:56:25Z</time>
      </trkpt>
      <trkpt lat="44.61945" lon="5.90177">
        <ele>2149.3</ele>
        <time>2015-11-15T08:57:00Z</time>
      </trkpt>
      <trkpt lat="44.61942" lon="5.90165">
        <ele>2150.3</ele>
        <time>2015-11-15T08:57:12Z</time>
      </trkpt>
      <trkpt lat="44.61935" lon="5.90155">
        <ele>2150.3</ele>
        <time>2015-11-15T08:57:31Z</time>
      </trkpt>
      <trkpt lat="44.61927" lon="5.90149">
        <ele>2153.3</ele>
        <time>2015-11-15T08:58:06Z</time>
      </trkpt>
      <trkpt lat="44.61922" lon="5.90138">
        <ele>2156.3</ele>
        <time>2015-11-15T08:58:25Z</time>
      </trkpt>
      <trkpt lat="44.61915" lon="5.9013">
        <ele>2156.3</ele>
        <time>2015-11-15T08:58:42Z</time>
      </trkpt>
      <trkpt lat="44.61906" lon="5.90122">
        <ele>2158.3</ele>
        <time>2015-11-15T08:58:59Z</time>
      </trkpt>
      <trkpt lat="44.61899" lon="5.90114">
        <ele>2159.3</ele>
        <time>2015-11-15T08:59:19Z</time>
      </trkpt>
      <trkpt lat="44.61891" lon="5.90105">
        <ele>2158.3</ele>
        <time>2015-11-15T08:59:34Z</time>
      </trkpt>
      <trkpt lat="44.61883" lon="5.90097">
        <ele>2160.3</ele>
        <time>2015-11-15T08:59:52Z</time>
      </trkpt>
      <trkpt lat="44.61878" lon="5.90086">
        <ele>2163.3</ele>
        <time>2015-11-15T09:00:11Z</time>
      </trkpt>
      <trkpt lat="44.61885" lon="5.90079">
        <ele>2171.3</ele>
        <time>2015-11-15T09:01:10Z</time>
      </trkpt>
      <trkpt lat="44.61885" lon="5.90066">
        <ele>2177.3</ele>
        <time>2015-11-15T09:02:18Z</time>
      </trkpt>
      <trkpt lat="44.61886" lon="5.90053">
        <ele>2185.3</ele>
        <time>2015-11-15T09:02:48Z</time>
      </trkpt>
      <trkpt lat="44.61893" lon="5.90042">
        <ele>2186.3</ele>
        <time>2015-11-15T09:03:07Z</time>
      </trkpt>
      <trkpt lat="44.61902" lon="5.90046">
        <ele>2197.3</ele>
        <time>2015-11-15T09:03:42Z</time>
      </trkpt>
      <trkpt lat="44.61911" lon="5.90047">
        <ele>2208.3</ele>
        <time>2015-11-15T09:04:20Z</time>
      </trkpt>
      <trkpt lat="44.61918" lon="5.90037">
        <ele>2204.3</ele>
        <time>2015-11-15T09:04:42Z</time>
      </trkpt>
      <trkpt lat="44.61919" lon="5.90024">
        <ele>2205.3</ele>
        <time>2015-11-15T09:05:01Z</time>
      </trkpt>
      <trkpt lat="44.61927" lon="5.90018">
        <ele>2216.3</ele>
        <time>2015-11-15T09:05:50Z</time>
      </trkpt>
      <trkpt lat="44.61937" lon="5.90016">
        <ele>2225.3</ele>
        <time>2015-11-15T09:06:27Z</time>
      </trkpt>
      <trkpt lat="44.6194" lon="5.90004">
        <ele>2235.3</ele>
        <time>2015-11-15T09:07:19Z</time>
      </trkpt>
      <trkpt lat="44.61949" lon="5.89998">
        <ele>2239.3</ele>
        <time>2015-11-15T09:08:35Z</time>
      </trkpt>
      <trkpt lat="44.61958" lon="5.89998">
        <ele>2236.3</ele>
        <time>2015-11-15T09:08:58Z</time>
      </trkpt>
      <trkpt lat="44.61968" lon="5.89999">
        <ele>2240.3</ele>
        <time>2015-11-15T09:09:19Z</time>
      </trkpt>
      <trkpt lat="44.61977" lon="5.89993">
        <ele>2247.3</ele>
        <time>2015-11-15T09:09:43Z</time>
      </trkpt>
      <trkpt lat="44.61987" lon="5.8999">
        <ele>2249.3</ele>
        <time>2015-11-15T09:10:13Z</time>
      </trkpt>
      <trkpt lat="44.61996" lon="5.89987">
        <ele>2258.3</ele>
        <time>2015-11-15T09:10:38Z</time>
      </trkpt>
      <trkpt lat="44.62004" lon="5.89981">
        <ele>2281.3</ele>
        <time>2015-11-15T09:13:19Z</time>
      </trkpt>
      <trkpt lat="44.62013" lon="5.89976">
        <ele>2288.3</ele>
        <time>2015-11-15T09:14:28Z</time>
      </trkpt>
      <trkpt lat="44.62022" lon="5.89973">
        <ele>2305.3</ele>
        <time>2015-11-15T09:16:07Z</time>
      </trkpt>
      <trkpt lat="44.62031" lon="5.89973">
        <ele>2304.3</ele>
        <time>2015-11-15T09:16:57Z</time>
      </trkpt>
      <trkpt lat="44.62039" lon="5.89979">
        <ele>2324.3</ele>
        <time>2015-11-15T09:19:05Z</time>
      </trkpt>
      <trkpt lat="44.62045" lon="5.89967">
        <ele>2330.3</ele>
        <time>2015-11-15T09:19:50Z</time>
      </trkpt>
      <trkpt lat="44.62053" lon="5.8996">
        <ele>2328.3</ele>
        <time>2015-11-15T09:21:23Z</time>
      </trkpt>
      <trkpt lat="44.62058" lon="5.89949">
        <ele>2334.3</ele>
        <time>2015-11-15T09:22:00Z</time>
      </trkpt>
      <trkpt lat="44.62064" lon="5.89939">
        <ele>2341.3</ele>
        <time>2015-11-15T09:22:42Z</time>
      </trkpt>
      <trkpt lat="44.62074" lon="5.89938">
        <ele>2350.3</ele>
        <time>2015-11-15T09:23:38Z</time>
      </trkpt>
      <trkpt lat="44.62082" lon="5.89931">
        <ele>2355.3</ele>
        <time>2015-11-15T09:25:32Z</time>
      </trkpt>
      <trkpt lat="44.6209" lon="5.89924">
        <ele>2373.3</ele>
        <time>2015-11-15T09:26:39Z</time>
      </trkpt>
      <trkpt lat="44.621" lon="5.89929">
        <ele>2384.3</ele>
        <time>2015-11-15T09:29:50Z</time>
      </trkpt>
      <trkpt lat="44.62108" lon="5.89934">
        <ele>2393.3</ele>
        <time>2015-11-15T09:30:44Z</time>
      </trkpt>
      <trkpt lat="44.62116" lon="5.89927">
        <ele>2399.3</ele>
        <time>2015-11-15T09:31:23Z</time>
      </trkpt>
      <trkpt lat="44.62126" lon="5.89928">
        <ele>2415.3</ele>
        <time>2015-11-15T09:34:08Z</time>
      </trkpt>
      <trkpt lat="44.62135" lon="5.89927">
        <ele>2422.3</ele>
        <time>2015-11-15T09:36:01Z</time>
      </trkpt>
      <trkpt lat="44.62144" lon="5.89922">
        <ele>2432.3</ele>
        <time>2015-11-15T09:36:43Z</time>
      </trkpt>
      <trkpt lat="44.62142" lon="5.89935">
        <ele>2445.3</ele>
        <time>2015-11-15T09:37:08Z</time>
      </trkpt>
      <trkpt lat="44.62149" lon="5.89926">
        <ele>2438.3</ele>
        <time>2015-11-15T09:37:30Z</time>
      </trkpt>
      <trkpt lat="44.62158" lon="5.89921">
        <ele>2443.3</ele>
        <time>2015-11-15T09:38:23Z</time>
      </trkpt>
      <trkpt lat="44.62163" lon="5.89932">
        <ele>2455.3</ele>
        <time>2015-11-15T09:38:48Z</time>
      </trkpt>
      <trkpt lat="44.62172" lon="5.89937">
        <ele>2462.3</ele>
        <time>2015-11-15T09:40:21Z</time>
      </trkpt>
      <trkpt lat="44.62181" lon="5.89939">
        <ele>2462.3</ele>
        <time>2015-11-15T09:41:16Z</time>
      </trkpt>
      <trkpt lat="44.62187" lon="5.8993">
        <ele>2467.3</ele>
        <time>2015-11-15T09:41:47Z</time>
      </trkpt>
      <trkpt lat="44.62188" lon="5.89917">
        <ele>2489.3</ele>
        <time>2015-11-15T09:43:13Z</time>
      </trkpt>
      <trkpt lat="44.62187" lon="5.89903">
        <ele>2493.3</ele>
        <time>2015-11-15T09:43:54Z</time>
      </trkpt>
      <trkpt lat="44.62195" lon="5.89898">
        <ele>2503.3</ele>
        <time>2015-11-15T09:44:50Z</time>
      </trkpt>
      <trkpt lat="44.62199" lon="5.89886">
        <ele>2522.3</ele>
        <time>2015-11-15T09:46:28Z</time>
      </trkpt>
      <trkpt lat="44.62208" lon="5.89889">
        <ele>2520.3</ele>
        <time>2015-11-15T09:47:56Z</time>
      </trkpt>
      <trkpt lat="44.62216" lon="5.89896">
        <ele>2519.3</ele>
        <time>2015-11-15T09:48:15Z</time>
      </trkpt>
      <trkpt lat="44.62223" lon="5.8991">
        <ele>2526.3</ele>
        <time>2015-11-15T09:48:55Z</time>
      </trkpt>
      <trkpt lat="44.62227" lon="5.89922">
        <ele>2528.3</ele>
        <time>2015-11-15T09:49:23Z</time>
      </trkpt>
      <trkpt lat="44.62232" lon="5.89933">
        <ele>2532.3</ele>
        <time>2015-11-15T09:50:01Z</time>
      </trkpt>
      <trkpt lat="44.62238" lon="5.89944">
        <ele>2539.3</ele>
        <time>2015-11-15T09:50:57Z</time>
      </trkpt>
      <trkpt lat="44.62243" lon="5.89955">
        <ele>2547.3</ele>
        <time>2015-11-15T09:51:38Z</time>
      </trkpt>
      <trkpt lat="44.62252" lon="5.89962">
        <ele>2552.3</ele>
        <time>2015-11-15T09:53:03Z</time>
      </trkpt>
      <trkpt lat="44.62257" lon="5.8995">
        <ele>2559.3</ele>
        <time>2015-11-15T09:54:41Z</time>
      </trkpt>
      <trkpt lat="44.62258" lon="5.89937">
        <ele>2564.3</ele>
        <time>2015-11-15T09:55:08Z</time>
      </trkpt>
      <trkpt lat="44.62263" lon="5.89924">
        <ele>2568.3</ele>
        <time>2015-11-15T09:56:36Z</time>
      </trkpt>
      <trkpt lat="44.62268" lon="5.89913">
        <ele>2571.3</ele>
        <time>2015-11-15T09:57:14Z</time>
      </trkpt>
      <trkpt lat="44.62277" lon="5.89912">
        <ele>2571.3</ele>
        <time>2015-11-15T09:57:46Z</time>
      </trkpt>
      <trkpt lat="44.62271" lon="5.89902">
        <ele>2587.3</ele>
        <time>2015-11-15T09:59:20Z</time>
      </trkpt>
      <trkpt lat="44.62274" lon="5.89889">
        <ele>2592.3</ele>
        <time>2015-11-15T10:04:00Z</time>
      </trkpt>
      <trkpt lat="44.62281" lon="5.89881">
        <ele>2593.3</ele>
        <time>2015-11-15T10:04:58Z</time>
      </trkpt>
      <trkpt lat="44.6229" lon="5.89876">
        <ele>2595.3</ele>
        <time>2015-11-15T10:05:09Z</time>
      </trkpt>
      <trkpt lat="44.62295" lon="5.89865">
        <ele>2595.3</ele>
        <time>2015-11-15T10:05:25Z</time>
      </trkpt>
      <trkpt lat="44.62302" lon="5.89854">
        <ele>2596.3</ele>
        <time>2015-11-15T10:05:35Z</time>
      </trkpt>
      <trkpt lat="44.62309" lon="5.89846">
        <ele>2599.3</ele>
        <time>2015-11-15T10:07:09Z</time>
      </trkpt>
      <trkpt lat="44.62315" lon="5.89835">
        <ele>2604.3</ele>
        <time>2015-11-15T10:07:25Z</time>
      </trkpt>
      <trkpt lat="44.62318" lon="5.89823">
        <ele>2603.3</ele>
        <time>2015-11-15T10:07:41Z</time>
      </trkpt>
      <trkpt lat="44.62328" lon="5.89809">
        <ele>2603.3</ele>
        <time>2015-11-15T10:08:00Z</time>
      </trkpt>
      <trkpt lat="44.62335" lon="5.89791">
        <ele>2604.3</ele>
        <time>2015-11-15T10:08:18Z</time>
      </trkpt>
      <trkpt lat="44.62337" lon="5.89778">
        <ele>2604.3</ele>
        <time>2015-11-15T10:08:28Z</time>
      </trkpt>
      <trkpt lat="44.62341" lon="5.89766">
        <ele>2607.3</ele>
        <time>2015-11-15T10:08:38Z</time>
      </trkpt>
      <trkpt lat="44.62344" lon="5.89751">
        <ele>2608.3</ele>
        <time>2015-11-15T10:08:48Z</time>
      </trkpt>
      <trkpt lat="44.62349" lon="5.89737">
        <ele>2607.3</ele>
        <time>2015-11-15T10:08:59Z</time>
      </trkpt>
      <trkpt lat="44.62353" lon="5.89725">
        <ele>2605.3</ele>
        <time>2015-11-15T10:09:09Z</time>
      </trkpt>
      <trkpt lat="44.62358" lon="5.89713">
        <ele>2606.3</ele>
        <time>2015-11-15T10:09:21Z</time>
      </trkpt>
      <trkpt lat="44.62365" lon="5.89704">
        <ele>2604.3</ele>
        <time>2015-11-15T10:09:31Z</time>
      </trkpt>
      <trkpt lat="44.62372" lon="5.89695">
        <ele>2603.3</ele>
        <time>2015-11-15T10:09:40Z</time>
      </trkpt>
      <trkpt lat="44.62378" lon="5.89687">
        <ele>2604.3</ele>
        <time>2015-11-15T10:09:48Z</time>
      </trkpt>
      <trkpt lat="44.62383" lon="5.89675">
        <ele>2604.3</ele>
        <time>2015-11-15T10:10:00Z</time>
      </trkpt>
      <trkpt lat="44.62386" lon="5.89687">
        <ele>2606.3</ele>
        <time>2015-11-15T10:11:59Z</time>
      </trkpt>
      <trkpt lat="44.62396" lon="5.89688">
        <ele>2606.3</ele>
        <time>2015-11-15T10:12:10Z</time>
      </trkpt>
      <trkpt lat="44.62404" lon="5.89693">
        <ele>2604.3</ele>
        <time>2015-11-15T10:12:20Z</time>
      </trkpt>
      <trkpt lat="44.62416" lon="5.89692">
        <ele>2603.3</ele>
        <time>2015-11-15T10:12:31Z</time>
      </trkpt>
      <trkpt lat="44.62425" lon="5.8969">
        <ele>2604.3</ele>
        <time>2015-11-15T10:12:41Z</time>
      </trkpt>
      <trkpt lat="44.62435" lon="5.89687">
        <ele>2600.3</ele>
        <time>2015-11-15T10:12:51Z</time>
      </trkpt>
      <trkpt lat="44.62444" lon="5.89684">
        <ele>2600.3</ele>
        <time>2015-11-15T10:13:00Z</time>
      </trkpt>
      <trkpt lat="44.62452" lon="5.8968">
        <ele>2600.3</ele>
        <time>2015-11-15T10:13:09Z</time>
      </trkpt>
      <trkpt lat="44.62461" lon="5.89678">
        <ele>2601.3</ele>
        <time>2015-11-15T10:13:17Z</time>
      </trkpt>
      <trkpt lat="44.6247" lon="5.89675">
        <ele>2599.3</ele>
        <time>2015-11-15T10:13:27Z</time>
      </trkpt>
      <trkpt lat="44.62478" lon="5.89666">
        <ele>2600.3</ele>
        <time>2015-11-15T10:13:39Z</time>
      </trkpt>
      <trkpt lat="44.62489" lon="5.89665">
        <ele>2599.3</ele>
        <time>2015-11-15T10:13:51Z</time>
      </trkpt>
      <trkpt lat="44.62497" lon="5.89659">
        <ele>2598.3</ele>
        <time>2015-11-15T10:14:00Z</time>
      </trkpt>
      <trkpt lat="44.62507" lon="5.89656">
        <ele>2595.3</ele>
        <time>2015-11-15T10:14:12Z</time>
      </trkpt>
      <trkpt lat="44.62517" lon="5.89653">
        <ele>2597.3</ele>
        <time>2015-11-15T10:14:24Z</time>
      </trkpt>
      <trkpt lat="44.62526" lon="5.89648">
        <ele>2600.3</ele>
        <time>2015-11-15T10:14:32Z</time>
      </trkpt>
      <trkpt lat="44.62535" lon="5.89646">
        <ele>2600.3</ele>
        <time>2015-11-15T10:14:43Z</time>
      </trkpt>
      <trkpt lat="44.62544" lon="5.89645">
        <ele>2602.3</ele>
        <time>2015-11-15T10:14:53Z</time>
      </trkpt>
      <trkpt lat="44.62554" lon="5.89643">
        <ele>2603.3</ele>
        <time>2015-11-15T10:15:03Z</time>
      </trkpt>
      <trkpt lat="44.62564" lon="5.89644">
        <ele>2601.3</ele>
        <time>2015-11-15T10:15:15Z</time>
      </trkpt>
      <trkpt lat="44.62574" lon="5.89643">
        <ele>2603.3</ele>
        <time>2015-11-15T10:15:26Z</time>
      </trkpt>
      <trkpt lat="44.62584" lon="5.89646">
        <ele>2603.3</ele>
        <time>2015-11-15T10:15:34Z</time>
      </trkpt>
      <trkpt lat="44.62593" lon="5.89648">
        <ele>2605.3</ele>
        <time>2015-11-15T10:15:43Z</time>
      </trkpt>
      <trkpt lat="44.62603" lon="5.89648">
        <ele>2604.3</ele>
        <time>2015-11-15T10:15:57Z</time>
      </trkpt>
      <trkpt lat="44.62613" lon="5.8965">
        <ele>2602.3</ele>
        <time>2015-11-15T10:16:12Z</time>
      </trkpt>
      <trkpt lat="44.62622" lon="5.89652">
        <ele>2605.3</ele>
        <time>2015-11-15T10:16:23Z</time>
      </trkpt>
      <trkpt lat="44.62631" lon="5.89657">
        <ele>2604.3</ele>
        <time>2015-11-15T10:16:33Z</time>
      </trkpt>
      <trkpt lat="44.6264" lon="5.8966">
        <ele>2607.3</ele>
        <time>2015-11-15T10:16:43Z</time>
      </trkpt>
      <trkpt lat="44.62653" lon="5.89668">
        <ele>2609.3</ele>
        <time>2015-11-15T10:16:59Z</time>
      </trkpt>
      <trkpt lat="44.62662" lon="5.89673">
        <ele>2605.3</ele>
        <time>2015-11-15T10:17:09Z</time>
      </trkpt>
      <trkpt lat="44.62671" lon="5.89676">
        <ele>2605.3</ele>
        <time>2015-11-15T10:17:20Z</time>
      </trkpt>
      <trkpt lat="44.62681" lon="5.89679">
        <ele>2605.3</ele>
        <time>2015-11-15T10:17:29Z</time>
      </trkpt>
      <trkpt lat="44.6269" lon="5.89682">
        <ele>2605.3</ele>
        <time>2015-11-15T10:17:41Z</time>
      </trkpt>
      <trkpt lat="44.62699" lon="5.89683">
        <ele>2605.3</ele>
        <time>2015-11-15T10:17:52Z</time>
      </trkpt>
      <trkpt lat="44.62716" lon="5.89679">
        <ele>2605.3</ele>
        <time>2015-11-15T10:18:12Z</time>
      </trkpt>
      <trkpt lat="44.62725" lon="5.89675">
        <ele>2604.3</ele>
        <time>2015-11-15T10:18:20Z</time>
      </trkpt>
      <trkpt lat="44.62733" lon="5.89668">
        <ele>2604.3</ele>
        <time>2015-11-15T10:18:28Z</time>
      </trkpt>
      <trkpt lat="44.62741" lon="5.8966">
        <ele>2605.3</ele>
        <time>2015-11-15T10:18:38Z</time>
      </trkpt>
      <trkpt lat="44.62752" lon="5.89651">
        <ele>2602.3</ele>
        <time>2015-11-15T10:18:50Z</time>
      </trkpt>
      <trkpt lat="44.62758" lon="5.89642">
        <ele>2601.3</ele>
        <time>2015-11-15T10:18:59Z</time>
      </trkpt>
      <trkpt lat="44.62766" lon="5.89634">
        <ele>2600.3</ele>
        <time>2015-11-15T10:19:08Z</time>
      </trkpt>
      <trkpt lat="44.62772" lon="5.89624">
        <ele>2602.3</ele>
        <time>2015-11-15T10:19:16Z</time>
      </trkpt>
      <trkpt lat="44.62778" lon="5.89614">
        <ele>2602.3</ele>
        <time>2015-11-15T10:19:24Z</time>
      </trkpt>
      <trkpt lat="44.62783" lon="5.89603">
        <ele>2600.3</ele>
        <time>2015-11-15T10:19:32Z</time>
      </trkpt>
      <trkpt lat="44.6279" lon="5.89592">
        <ele>2601.3</ele>
        <time>2015-11-15T10:19:42Z</time>
      </trkpt>
      <trkpt lat="44.62797" lon="5.89583">
        <ele>2600.3</ele>
        <time>2015-11-15T10:19:51Z</time>
      </trkpt>
      <trkpt lat="44.62805" lon="5.89577">
        <ele>2598.3</ele>
        <time>2015-11-15T10:19:59Z</time>
      </trkpt>
      <trkpt lat="44.62817" lon="5.89569">
        <ele>2599.3</ele>
        <time>2015-11-15T10:20:12Z</time>
      </trkpt>
      <trkpt lat="44.62826" lon="5.89563">
        <ele>2599.3</ele>
        <time>2015-11-15T10:20:28Z</time>
      </trkpt>
      <trkpt lat="44.62835" lon="5.89569">
        <ele>2600.3</ele>
        <time>2015-11-15T10:20:37Z</time>
      </trkpt>
      <trkpt lat="44.62844" lon="5.89576">
        <ele>2598.3</ele>
        <time>2015-11-15T10:20:50Z</time>
      </trkpt>
      <trkpt lat="44.62853" lon="5.89579">
        <ele>2600.3</ele>
        <time>2015-11-15T10:21:01Z</time>
      </trkpt>
      <trkpt lat="44.62861" lon="5.89583">
        <ele>2602.3</ele>
        <time>2015-11-15T10:21:11Z</time>
      </trkpt>
      <trkpt lat="44.62869" lon="5.8959">
        <ele>2604.3</ele>
        <time>2015-11-15T10:21:21Z</time>
      </trkpt>
      <trkpt lat="44.62876" lon="5.89598">
        <ele>2603.3</ele>
        <time>2015-11-15T10:21:33Z</time>
      </trkpt>
      <trkpt lat="44.62885" lon="5.89605">
        <ele>2599.3</ele>
        <time>2015-11-15T10:21:49Z</time>
      </trkpt>
      <trkpt lat="44.62894" lon="5.89609">
        <ele>2600.3</ele>
        <time>2015-11-15T10:21:57Z</time>
      </trkpt>
      <trkpt lat="44.62903" lon="5.89613">
        <ele>2603.3</ele>
        <time>2015-11-15T10:22:04Z</time>
      </trkpt>
      <trkpt lat="44.62911" lon="5.89621">
        <ele>2604.3</ele>
        <time>2015-11-15T10:22:14Z</time>
      </trkpt>
      <trkpt lat="44.62918" lon="5.89628">
        <ele>2604.3</ele>
        <time>2015-11-15T10:22:24Z</time>
      </trkpt>
      <trkpt lat="44.62927" lon="5.89633">
        <ele>2603.3</ele>
        <time>2015-11-15T10:22:33Z</time>
      </trkpt>
      <trkpt lat="44.62937" lon="5.89637">
        <ele>2605.3</ele>
        <time>2015-11-15T10:22:44Z</time>
      </trkpt>
      <trkpt lat="44.62944" lon="5.89645">
        <ele>2605.3</ele>
        <time>2015-11-15T10:22:56Z</time>
      </trkpt>
      <trkpt lat="44.62953" lon="5.89652">
        <ele>2603.3</ele>
        <time>2015-11-15T10:23:11Z</time>
      </trkpt>
      <trkpt lat="44.62961" lon="5.8966">
        <ele>2603.3</ele>
        <time>2015-11-15T10:23:18Z</time>
      </trkpt>
      <trkpt lat="44.6297" lon="5.89664">
        <ele>2605.3</ele>
        <time>2015-11-15T10:23:28Z</time>
      </trkpt>
      <trkpt lat="44.62978" lon="5.89672">
        <ele>2603.3</ele>
        <time>2015-11-15T10:23:39Z</time>
      </trkpt>
      <trkpt lat="44.62986" lon="5.8968">
        <ele>2601.3</ele>
        <time>2015-11-15T10:23:49Z</time>
      </trkpt>
      <trkpt lat="44.62994" lon="5.89687">
        <ele>2598.3</ele>
        <time>2015-11-15T10:23:59Z</time>
      </trkpt>
      <trkpt lat="44.63003" lon="5.89693">
        <ele>2595.3</ele>
        <time>2015-11-15T10:24:11Z</time>
      </trkpt>
      <trkpt lat="44.63012" lon="5.897">
        <ele>2597.3</ele>
        <time>2015-11-15T10:24:19Z</time>
      </trkpt>
      <trkpt lat="44.63021" lon="5.89705">
        <ele>2597.3</ele>
        <time>2015-11-15T10:24:27Z</time>
      </trkpt>
      <trkpt lat="44.63029" lon="5.89711">
        <ele>2596.3</ele>
        <time>2015-11-15T10:24:37Z</time>
      </trkpt>
      <trkpt lat="44.63038" lon="5.89717">
        <ele>2595.3</ele>
        <time>2015-11-15T10:24:45Z</time>
      </trkpt>
      <trkpt lat="44.63041" lon="5.89729">
        <ele>2594.3</ele>
        <time>2015-11-15T10:24:58Z</time>
      </trkpt>
      <trkpt lat="44.63049" lon="5.89737">
        <ele>2598.3</ele>
        <time>2015-11-15T10:25:09Z</time>
      </trkpt>
      <trkpt lat="44.63058" lon="5.8974">
        <ele>2592.3</ele>
        <time>2015-11-15T10:25:24Z</time>
      </trkpt>
      <trkpt lat="44.63064" lon="5.8975">
        <ele>2594.3</ele>
        <time>2015-11-15T10:26:13Z</time>
      </trkpt>
      <trkpt lat="44.63068" lon="5.89761">
        <ele>2595.3</ele>
        <time>2015-11-15T10:26:26Z</time>
      </trkpt>
      <trkpt lat="44.63074" lon="5.89772">
        <ele>2595.3</ele>
        <time>2015-11-15T10:26:37Z</time>
      </trkpt>
      <trkpt lat="44.63081" lon="5.89781">
        <ele>2589.3</ele>
        <time>2015-11-15T10:26:46Z</time>
      </trkpt>
      <trkpt lat="44.63088" lon="5.8979">
        <ele>2586.3</ele>
        <time>2015-11-15T10:26:56Z</time>
      </trkpt>
      <trkpt lat="44.63093" lon="5.89801">
        <ele>2583.3</ele>
        <time>2015-11-15T10:27:04Z</time>
      </trkpt>
      <trkpt lat="44.63101" lon="5.89806">
        <ele>2581.3</ele>
        <time>2015-11-15T10:27:10Z</time>
      </trkpt>
      <trkpt lat="44.63105" lon="5.89819">
        <ele>2579.3</ele>
        <time>2015-11-15T10:27:18Z</time>
      </trkpt>
      <trkpt lat="44.63109" lon="5.89831">
        <ele>2576.3</ele>
        <time>2015-11-15T10:27:27Z</time>
      </trkpt>
      <trkpt lat="44.63112" lon="5.89844">
        <ele>2577.3</ele>
        <time>2015-11-15T10:27:35Z</time>
      </trkpt>
      <trkpt lat="44.63115" lon="5.89857">
        <ele>2577.3</ele>
        <time>2015-11-15T10:27:44Z</time>
      </trkpt>
      <trkpt lat="44.63121" lon="5.89867">
        <ele>2580.3</ele>
        <time>2015-11-15T10:27:52Z</time>
      </trkpt>
      <trkpt lat="44.63125" lon="5.8988">
        <ele>2579.3</ele>
        <time>2015-11-15T10:28:01Z</time>
      </trkpt>
      <trkpt lat="44.63131" lon="5.89891">
        <ele>2578.3</ele>
        <time>2015-11-15T10:28:11Z</time>
      </trkpt>
      <trkpt lat="44.63138" lon="5.89901">
        <ele>2575.3</ele>
        <time>2015-11-15T10:28:20Z</time>
      </trkpt>
      <trkpt lat="44.63148" lon="5.8991">
        <ele>2576.3</ele>
        <time>2015-11-15T10:28:29Z</time>
      </trkpt>
      <trkpt lat="44.63153" lon="5.89922">
        <ele>2573.3</ele>
        <time>2015-11-15T10:28:40Z</time>
      </trkpt>
      <trkpt lat="44.63159" lon="5.89931">
        <ele>2572.3</ele>
        <time>2015-11-15T10:28:48Z</time>
      </trkpt>
      <trkpt lat="44.63166" lon="5.89941">
        <ele>2572.3</ele>
        <time>2015-11-15T10:28:59Z</time>
      </trkpt>
      <trkpt lat="44.63171" lon="5.89952">
        <ele>2572.3</ele>
        <time>2015-11-15T10:29:07Z</time>
      </trkpt>
      <trkpt lat="44.63179" lon="5.89962">
        <ele>2568.3</ele>
        <time>2015-11-15T10:29:18Z</time>
      </trkpt>
      <trkpt lat="44.63181" lon="5.89974">
        <ele>2565.3</ele>
        <time>2015-11-15T10:29:27Z</time>
      </trkpt>
      <trkpt lat="44.63185" lon="5.89986">
        <ele>2567.3</ele>
        <time>2015-11-15T10:29:34Z</time>
      </trkpt>
      <trkpt lat="44.6319" lon="5.89998">
        <ele>2565.3</ele>
        <time>2015-11-15T10:29:42Z</time>
      </trkpt>
      <trkpt lat="44.63191" lon="5.9001">
        <ele>2565.3</ele>
        <time>2015-11-15T10:29:50Z</time>
      </trkpt>
      <trkpt lat="44.63193" lon="5.90024">
        <ele>2563.3</ele>
        <time>2015-11-15T10:29:58Z</time>
      </trkpt>
      <trkpt lat="44.63196" lon="5.90036">
        <ele>2562.3</ele>
        <time>2015-11-15T10:30:06Z</time>
      </trkpt>
      <trkpt lat="44.632" lon="5.90048">
        <ele>2559.3</ele>
        <time>2015-11-15T10:30:14Z</time>
      </trkpt>
      <trkpt lat="44.63203" lon="5.90061">
        <ele>2559.3</ele>
        <time>2015-11-15T10:30:24Z</time>
      </trkpt>
      <trkpt lat="44.63208" lon="5.90071">
        <ele>2557.3</ele>
        <time>2015-11-15T10:30:34Z</time>
      </trkpt>
      <trkpt lat="44.63216" lon="5.90081">
        <ele>2556.3</ele>
        <time>2015-11-15T10:30:44Z</time>
      </trkpt>
      <trkpt lat="44.63225" lon="5.90085">
        <ele>2553.3</ele>
        <time>2015-11-15T10:30:53Z</time>
      </trkpt>
      <trkpt lat="44.63234" lon="5.90091">
        <ele>2551.3</ele>
        <time>2015-11-15T10:31:01Z</time>
      </trkpt>
      <trkpt lat="44.6324" lon="5.90101">
        <ele>2550.3</ele>
        <time>2015-11-15T10:31:07Z</time>
      </trkpt>
      <trkpt lat="44.63243" lon="5.90114">
        <ele>2551.3</ele>
        <time>2015-11-15T10:31:16Z</time>
      </trkpt>
      <trkpt lat="44.63247" lon="5.90125">
        <ele>2552.3</ele>
        <time>2015-11-15T10:31:24Z</time>
      </trkpt>
      <trkpt lat="44.63251" lon="5.90138">
        <ele>2554.3</ele>
        <time>2015-11-15T10:31:33Z</time>
      </trkpt>
      <trkpt lat="44.63253" lon="5.90154">
        <ele>2552.3</ele>
        <time>2015-11-15T10:31:43Z</time>
      </trkpt>
      <trkpt lat="44.63256" lon="5.90168">
        <ele>2551.3</ele>
        <time>2015-11-15T10:31:51Z</time>
      </trkpt>
      <trkpt lat="44.6326" lon="5.90179">
        <ele>2552.3</ele>
        <time>2015-11-15T10:31:59Z</time>
      </trkpt>
      <trkpt lat="44.63262" lon="5.90193">
        <ele>2550.3</ele>
        <time>2015-11-15T10:32:08Z</time>
      </trkpt>
      <trkpt lat="44.63265" lon="5.90206">
        <ele>2552.3</ele>
        <time>2015-11-15T10:32:20Z</time>
      </trkpt>
      <trkpt lat="44.63266" lon="5.9022">
        <ele>2552.3</ele>
        <time>2015-11-15T10:32:28Z</time>
      </trkpt>
      <trkpt lat="44.63268" lon="5.90233">
        <ele>2552.3</ele>
        <time>2015-11-15T10:32:36Z</time>
      </trkpt>
      <trkpt lat="44.63268" lon="5.90247">
        <ele>2552.3</ele>
        <time>2015-11-15T10:32:45Z</time>
      </trkpt>
      <trkpt lat="44.63271" lon="5.90261">
        <ele>2553.3</ele>
        <time>2015-11-15T10:33:00Z</time>
      </trkpt>
      <trkpt lat="44.63275" lon="5.90276">
        <ele>2553.3</ele>
        <time>2015-11-15T10:33:12Z</time>
      </trkpt>
      <trkpt lat="44.63279" lon="5.90289">
        <ele>2554.3</ele>
        <time>2015-11-15T10:33:21Z</time>
      </trkpt>
      <trkpt lat="44.63285" lon="5.903">
        <ele>2555.3</ele>
        <time>2015-11-15T10:33:31Z</time>
      </trkpt>
      <trkpt lat="44.6329" lon="5.90312">
        <ele>2558.3</ele>
        <time>2015-11-15T10:33:40Z</time>
      </trkpt>
      <trkpt lat="44.63292" lon="5.90325">
        <ele>2558.3</ele>
        <time>2015-11-15T10:33:51Z</time>
      </trkpt>
      <trkpt lat="44.63295" lon="5.90339">
        <ele>2558.3</ele>
        <time>2015-11-15T10:34:01Z</time>
      </trkpt>
      <trkpt lat="44.63302" lon="5.90349">
        <ele>2562.3</ele>
        <time>2015-11-15T10:34:11Z</time>
      </trkpt>
      <trkpt lat="44.63309" lon="5.90358">
        <ele>2560.3</ele>
        <time>2015-11-15T10:34:19Z</time>
      </trkpt>
      <trkpt lat="44.63317" lon="5.90364">
        <ele>2556.3</ele>
        <time>2015-11-15T10:34:28Z</time>
      </trkpt>
      <trkpt lat="44.63328" lon="5.90374">
        <ele>2554.3</ele>
        <time>2015-11-15T10:34:45Z</time>
      </trkpt>
      <trkpt lat="44.63339" lon="5.9038">
        <ele>2560.3</ele>
        <time>2015-11-15T10:34:55Z</time>
      </trkpt>
      <trkpt lat="44.63349" lon="5.90381">
        <ele>2563.3</ele>
        <time>2015-11-15T10:35:03Z</time>
      </trkpt>
      <trkpt lat="44.63358" lon="5.90378">
        <ele>2561.3</ele>
        <time>2015-11-15T10:35:16Z</time>
      </trkpt>
      <trkpt lat="44.63368" lon="5.90372">
        <ele>2560.3</ele>
        <time>2015-11-15T10:35:27Z</time>
      </trkpt>
      <trkpt lat="44.63377" lon="5.90377">
        <ele>2559.3</ele>
        <time>2015-11-15T10:36:22Z</time>
      </trkpt>
      <trkpt lat="44.63387" lon="5.90381">
        <ele>2558.3</ele>
        <time>2015-11-15T10:36:32Z</time>
      </trkpt>
      <trkpt lat="44.63395" lon="5.90386">
        <ele>2558.3</ele>
        <time>2015-11-15T10:36:39Z</time>
      </trkpt>
      <trkpt lat="44.63404" lon="5.90392">
        <ele>2560.3</ele>
        <time>2015-11-15T10:36:48Z</time>
      </trkpt>
      <trkpt lat="44.63408" lon="5.90404">
        <ele>2561.3</ele>
        <time>2015-11-15T10:37:22Z</time>
      </trkpt>
      <trkpt lat="44.63409" lon="5.90417">
        <ele>2562.3</ele>
        <time>2015-11-15T10:37:32Z</time>
      </trkpt>
      <trkpt lat="44.63405" lon="5.9043">
        <ele>2559.3</ele>
        <time>2015-11-15T10:37:40Z</time>
      </trkpt>
      <trkpt lat="44.63402" lon="5.90443">
        <ele>2560.3</ele>
        <time>2015-11-15T10:39:46Z</time>
      </trkpt>
      <trkpt lat="44.63401" lon="5.90456">
        <ele>2562.3</ele>
        <time>2015-11-15T10:40:00Z</time>
      </trkpt>
      <trkpt lat="44.63399" lon="5.9047">
        <ele>2562.3</ele>
        <time>2015-11-15T10:40:15Z</time>
      </trkpt>
      <trkpt lat="44.63397" lon="5.90487">
        <ele>2562.3</ele>
        <time>2015-11-15T10:40:33Z</time>
      </trkpt>
      <trkpt lat="44.63403" lon="5.90497">
        <ele>2560.3</ele>
        <time>2015-11-15T10:40:46Z</time>
      </trkpt>
      <trkpt lat="44.63397" lon="5.9051">
        <ele>2561.3</ele>
        <time>2015-11-15T10:41:21Z</time>
      </trkpt>
      <trkpt lat="44.63393" lon="5.90526">
        <ele>2563.3</ele>
        <time>2015-11-15T10:41:29Z</time>
      </trkpt>
      <trkpt lat="44.63392" lon="5.90539">
        <ele>2566.3</ele>
        <time>2015-11-15T10:41:37Z</time>
      </trkpt>
      <trkpt lat="44.63388" lon="5.90551">
        <ele>2560.3</ele>
        <time>2015-11-15T10:41:47Z</time>
      </trkpt>
      <trkpt lat="44.63386" lon="5.90564">
        <ele>2564.3</ele>
        <time>2015-11-15T10:41:57Z</time>
      </trkpt>
      <trkpt lat="44.63384" lon="5.90576">
        <ele>2562.3</ele>
        <time>2015-11-15T10:42:05Z</time>
      </trkpt>
      <trkpt lat="44.63379" lon="5.90589">
        <ele>2564.3</ele>
        <time>2015-11-15T10:42:17Z</time>
      </trkpt>
      <trkpt lat="44.63372" lon="5.90597">
        <ele>2558.3</ele>
        <time>2015-11-15T10:42:36Z</time>
      </trkpt>
      <trkpt lat="44.63371" lon="5.90609">
        <ele>2560.3</ele>
        <time>2015-11-15T10:42:55Z</time>
      </trkpt>
      <trkpt lat="44.63371" lon="5.90623">
        <ele>2561.3</ele>
        <time>2015-11-15T10:43:05Z</time>
      </trkpt>
      <trkpt lat="44.63371" lon="5.90637">
        <ele>2559.3</ele>
        <time>2015-11-15T10:43:15Z</time>
      </trkpt>
      <trkpt lat="44.6337" lon="5.90652">
        <ele>2563.3</ele>
        <time>2015-11-15T10:43:24Z</time>
      </trkpt>
      <trkpt lat="44.63369" lon="5.90667">
        <ele>2564.3</ele>
        <time>2015-11-15T10:43:37Z</time>
      </trkpt>
      <trkpt lat="44.63368" lon="5.90683">
        <ele>2565.3</ele>
        <time>2015-11-15T10:43:44Z</time>
      </trkpt>
      <trkpt lat="44.63367" lon="5.90697">
        <ele>2567.3</ele>
        <time>2015-11-15T10:43:55Z</time>
      </trkpt>
      <trkpt lat="44.63365" lon="5.90709">
        <ele>2569.3</ele>
        <time>2015-11-15T10:44:02Z</time>
      </trkpt>
      <trkpt lat="44.63364" lon="5.90726">
        <ele>2571.3</ele>
        <time>2015-11-15T10:44:10Z</time>
      </trkpt>
      <trkpt lat="44.63361" lon="5.90739">
        <ele>2569.3</ele>
        <time>2015-11-15T10:44:22Z</time>
      </trkpt>
      <trkpt lat="44.63359" lon="5.90752">
        <ele>2568.3</ele>
        <time>2015-11-15T10:44:29Z</time>
      </trkpt>
      <trkpt lat="44.63356" lon="5.90765">
        <ele>2568.3</ele>
        <time>2015-11-15T10:44:36Z</time>
      </trkpt>
      <trkpt lat="44.63354" lon="5.90778">
        <ele>2570.3</ele>
        <time>2015-11-15T10:44:46Z</time>
      </trkpt>
      <trkpt lat="44.63352" lon="5.90792">
        <ele>2571.3</ele>
        <time>2015-11-15T10:44:57Z</time>
      </trkpt>
      <trkpt lat="44.63348" lon="5.90813">
        <ele>2569.3</ele>
        <time>2015-11-15T10:45:10Z</time>
      </trkpt>
      <trkpt lat="44.63346" lon="5.90828">
        <ele>2568.3</ele>
        <time>2015-11-15T10:45:18Z</time>
      </trkpt>
      <trkpt lat="44.63344" lon="5.90842">
        <ele>2568.3</ele>
        <time>2015-11-15T10:45:28Z</time>
      </trkpt>
      <trkpt lat="44.63343" lon="5.90856">
        <ele>2566.3</ele>
        <time>2015-11-15T10:45:39Z</time>
      </trkpt>
      <trkpt lat="44.63336" lon="5.90866">
        <ele>2567.3</ele>
        <time>2015-11-15T10:45:49Z</time>
      </trkpt>
      <trkpt lat="44.63334" lon="5.90878">
        <ele>2562.3</ele>
        <time>2015-11-15T10:46:00Z</time>
      </trkpt>
      <trkpt lat="44.63331" lon="5.90891">
        <ele>2561.3</ele>
        <time>2015-11-15T10:46:10Z</time>
      </trkpt>
      <trkpt lat="44.63329" lon="5.90907">
        <ele>2559.3</ele>
        <time>2015-11-15T10:46:21Z</time>
      </trkpt>
      <trkpt lat="44.63326" lon="5.9092">
        <ele>2558.3</ele>
        <time>2015-11-15T10:46:30Z</time>
      </trkpt>
      <trkpt lat="44.63323" lon="5.90933">
        <ele>2556.3</ele>
        <time>2015-11-15T10:46:40Z</time>
      </trkpt>
      <trkpt lat="44.63322" lon="5.90946">
        <ele>2559.3</ele>
        <time>2015-11-15T10:46:48Z</time>
      </trkpt>
      <trkpt lat="44.63319" lon="5.90958">
        <ele>2562.3</ele>
        <time>2015-11-15T10:46:56Z</time>
      </trkpt>
      <trkpt lat="44.63318" lon="5.90971">
        <ele>2562.3</ele>
        <time>2015-11-15T10:47:04Z</time>
      </trkpt>
      <trkpt lat="44.63316" lon="5.90985">
        <ele>2562.3</ele>
        <time>2015-11-15T10:47:12Z</time>
      </trkpt>
      <trkpt lat="44.63314" lon="5.91">
        <ele>2563.3</ele>
        <time>2015-11-15T10:47:24Z</time>
      </trkpt>
      <trkpt lat="44.63312" lon="5.91012">
        <ele>2562.3</ele>
        <time>2015-11-15T10:47:32Z</time>
      </trkpt>
      <trkpt lat="44.63309" lon="5.91024">
        <ele>2563.3</ele>
        <time>2015-11-15T10:47:39Z</time>
      </trkpt>
      <trkpt lat="44.63307" lon="5.91038">
        <ele>2562.3</ele>
        <time>2015-11-15T10:47:49Z</time>
      </trkpt>
      <trkpt lat="44.63304" lon="5.91051">
        <ele>2561.3</ele>
        <time>2015-11-15T10:47:57Z</time>
      </trkpt>
      <trkpt lat="44.63302" lon="5.91065">
        <ele>2557.3</ele>
        <time>2015-11-15T10:48:07Z</time>
      </trkpt>
      <trkpt lat="44.63302" lon="5.91078">
        <ele>2558.3</ele>
        <time>2015-11-15T10:48:16Z</time>
      </trkpt>
      <trkpt lat="44.63299" lon="5.9109">
        <ele>2553.3</ele>
        <time>2015-11-15T10:48:27Z</time>
      </trkpt>
      <trkpt lat="44.63296" lon="5.91104">
        <ele>2555.3</ele>
        <time>2015-11-15T10:48:35Z</time>
      </trkpt>
      <trkpt lat="44.63294" lon="5.91117">
        <ele>2555.3</ele>
        <time>2015-11-15T10:48:43Z</time>
      </trkpt>
      <trkpt lat="44.63292" lon="5.91131">
        <ele>2554.3</ele>
        <time>2015-11-15T10:48:52Z</time>
      </trkpt>
      <trkpt lat="44.63291" lon="5.91144">
        <ele>2556.3</ele>
        <time>2015-11-15T10:48:59Z</time>
      </trkpt>
      <trkpt lat="44.63289" lon="5.91157">
        <ele>2556.3</ele>
        <time>2015-11-15T10:49:06Z</time>
      </trkpt>
      <trkpt lat="44.63285" lon="5.91169">
        <ele>2560.3</ele>
        <time>2015-11-15T10:52:18Z</time>
      </trkpt>
      <trkpt lat="44.63281" lon="5.9119">
        <ele>2562.3</ele>
        <time>2015-11-15T10:52:35Z</time>
      </trkpt>
      <trkpt lat="44.6328" lon="5.91203">
        <ele>2559.3</ele>
        <time>2015-11-15T10:52:44Z</time>
      </trkpt>
      <trkpt lat="44.63277" lon="5.91218">
        <ele>2560.3</ele>
        <time>2015-11-15T10:52:53Z</time>
      </trkpt>
      <trkpt lat="44.63276" lon="5.91232">
        <ele>2562.3</ele>
        <time>2015-11-15T10:53:01Z</time>
      </trkpt>
      <trkpt lat="44.63274" lon="5.91246">
        <ele>2561.3</ele>
        <time>2015-11-15T10:53:11Z</time>
      </trkpt>
      <trkpt lat="44.63271" lon="5.91258">
        <ele>2561.3</ele>
        <time>2015-11-15T10:53:19Z</time>
      </trkpt>
      <trkpt lat="44.6327" lon="5.91272">
        <ele>2562.3</ele>
        <time>2015-11-15T10:53:28Z</time>
      </trkpt>
      <trkpt lat="44.63267" lon="5.91287">
        <ele>2562.3</ele>
        <time>2015-11-15T10:53:38Z</time>
      </trkpt>
      <trkpt lat="44.63265" lon="5.913">
        <ele>2562.3</ele>
        <time>2015-11-15T10:53:46Z</time>
      </trkpt>
      <trkpt lat="44.63262" lon="5.91313">
        <ele>2563.3</ele>
        <time>2015-11-15T10:53:54Z</time>
      </trkpt>
      <trkpt lat="44.63261" lon="5.91326">
        <ele>2563.3</ele>
        <time>2015-11-15T10:54:02Z</time>
      </trkpt>
      <trkpt lat="44.63258" lon="5.91339">
        <ele>2561.3</ele>
        <time>2015-11-15T10:54:11Z</time>
      </trkpt>
      <trkpt lat="44.63258" lon="5.91352">
        <ele>2562.3</ele>
        <time>2015-11-15T10:54:20Z</time>
      </trkpt>
      <trkpt lat="44.63256" lon="5.91366">
        <ele>2562.3</ele>
        <time>2015-11-15T10:54:31Z</time>
      </trkpt>
      <trkpt lat="44.63252" lon="5.91378">
        <ele>2562.3</ele>
        <time>2015-11-15T10:54:41Z</time>
      </trkpt>
      <trkpt lat="44.63248" lon="5.91389">
        <ele>2562.3</ele>
        <time>2015-11-15T10:54:53Z</time>
      </trkpt>
      <trkpt lat="44.63242" lon="5.91398">
        <ele>2562.3</ele>
        <time>2015-11-15T10:55:00Z</time>
      </trkpt>
      <trkpt lat="44.63235" lon="5.91409">
        <ele>2563.3</ele>
        <time>2015-11-15T10:55:09Z</time>
      </trkpt>
      <trkpt lat="44.63227" lon="5.91415">
        <ele>2561.3</ele>
        <time>2015-11-15T10:55:19Z</time>
      </trkpt>
      <trkpt lat="44.6322" lon="5.91423">
        <ele>2562.3</ele>
        <time>2015-11-15T10:55:29Z</time>
      </trkpt>
      <trkpt lat="44.63214" lon="5.91434">
        <ele>2563.3</ele>
        <time>2015-11-15T10:55:39Z</time>
      </trkpt>
      <trkpt lat="44.63209" lon="5.91446">
        <ele>2563.3</ele>
        <time>2015-11-15T10:55:48Z</time>
      </trkpt>
      <trkpt lat="44.63203" lon="5.91461">
        <ele>2564.3</ele>
        <time>2015-11-15T10:55:58Z</time>
      </trkpt>
      <trkpt lat="44.632" lon="5.91475">
        <ele>2564.3</ele>
        <time>2015-11-15T10:56:09Z</time>
      </trkpt>
      <trkpt lat="44.632" lon="5.91488">
        <ele>2564.3</ele>
        <time>2015-11-15T10:56:17Z</time>
      </trkpt>
      <trkpt lat="44.63197" lon="5.91501">
        <ele>2564.3</ele>
        <time>2015-11-15T10:56:26Z</time>
      </trkpt>
      <trkpt lat="44.63192" lon="5.91514">
        <ele>2561.3</ele>
        <time>2015-11-15T10:56:36Z</time>
      </trkpt>
      <trkpt lat="44.63187" lon="5.91525">
        <ele>2560.3</ele>
        <time>2015-11-15T10:56:44Z</time>
      </trkpt>
      <trkpt lat="44.63183" lon="5.91539">
        <ele>2558.3</ele>
        <time>2015-11-15T10:56:55Z</time>
      </trkpt>
      <trkpt lat="44.6318" lon="5.91551">
        <ele>2560.3</ele>
        <time>2015-11-15T10:57:05Z</time>
      </trkpt>
      <trkpt lat="44.63176" lon="5.91564">
        <ele>2562.3</ele>
        <time>2015-11-15T10:57:14Z</time>
      </trkpt>
      <trkpt lat="44.63173" lon="5.91576">
        <ele>2562.3</ele>
        <time>2015-11-15T10:57:25Z</time>
      </trkpt>
      <trkpt lat="44.63171" lon="5.91588">
        <ele>2564.3</ele>
        <time>2015-11-15T10:57:31Z</time>
      </trkpt>
      <trkpt lat="44.63169" lon="5.91603">
        <ele>2560.3</ele>
        <time>2015-11-15T10:57:47Z</time>
      </trkpt>
      <trkpt lat="44.63166" lon="5.91615">
        <ele>2562.3</ele>
        <time>2015-11-15T10:57:55Z</time>
      </trkpt>
      <trkpt lat="44.63164" lon="5.91631">
        <ele>2564.3</ele>
        <time>2015-11-15T10:58:01Z</time>
      </trkpt>
      <trkpt lat="44.63161" lon="5.91643">
        <ele>2562.3</ele>
        <time>2015-11-15T10:58:08Z</time>
      </trkpt>
      <trkpt lat="44.63161" lon="5.91658">
        <ele>2563.3</ele>
        <time>2015-11-15T10:58:18Z</time>
      </trkpt>
      <trkpt lat="44.63159" lon="5.91687">
        <ele>2502.3</ele>
        <time>2015-11-15T10:58:37Z</time>
      </trkpt>
      <trkpt lat="44.63156" lon="5.91699">
        <ele>2536.3</ele>
        <time>2015-11-15T10:58:44Z</time>
      </trkpt>
      <trkpt lat="44.63154" lon="5.91712">
        <ele>2546.3</ele>
        <time>2015-11-15T10:58:50Z</time>
      </trkpt>
      <trkpt lat="44.6315" lon="5.91724">
        <ele>2550.3</ele>
        <time>2015-11-15T10:59:01Z</time>
      </trkpt>
      <trkpt lat="44.63144" lon="5.91734">
        <ele>2546.3</ele>
        <time>2015-11-15T10:59:11Z</time>
      </trkpt>
      <trkpt lat="44.63139" lon="5.91746">
        <ele>2551.3</ele>
        <time>2015-11-15T10:59:18Z</time>
      </trkpt>
      <trkpt lat="44.63134" lon="5.91757">
        <ele>2552.3</ele>
        <time>2015-11-15T10:59:26Z</time>
      </trkpt>
      <trkpt lat="44.6313" lon="5.91769">
        <ele>2552.3</ele>
        <time>2015-11-15T10:59:37Z</time>
      </trkpt>
      <trkpt lat="44.63128" lon="5.91783">
        <ele>2554.3</ele>
        <time>2015-11-15T10:59:47Z</time>
      </trkpt>
      <trkpt lat="44.63124" lon="5.91794">
        <ele>2553.3</ele>
        <time>2015-11-15T10:59:57Z</time>
      </trkpt>
      <trkpt lat="44.63123" lon="5.91809">
        <ele>2554.3</ele>
        <time>2015-11-15T11:00:05Z</time>
      </trkpt>
      <trkpt lat="44.6312" lon="5.91822">
        <ele>2555.3</ele>
        <time>2015-11-15T11:00:15Z</time>
      </trkpt>
      <trkpt lat="44.63122" lon="5.91839">
        <ele>2556.3</ele>
        <time>2015-11-15T11:00:29Z</time>
      </trkpt>
      <trkpt lat="44.63123" lon="5.91851">
        <ele>2557.3</ele>
        <time>2015-11-15T11:00:36Z</time>
      </trkpt>
      <trkpt lat="44.63122" lon="5.91879">
        <ele>2559.3</ele>
        <time>2015-11-15T11:00:54Z</time>
      </trkpt>
      <trkpt lat="44.63123" lon="5.91894">
        <ele>2557.3</ele>
        <time>2015-11-15T11:01:04Z</time>
      </trkpt>
      <trkpt lat="44.63125" lon="5.91907">
        <ele>2561.3</ele>
        <time>2015-11-15T11:01:12Z</time>
      </trkpt>
      <trkpt lat="44.63124" lon="5.9192">
        <ele>2558.3</ele>
        <time>2015-11-15T11:01:19Z</time>
      </trkpt>
      <trkpt lat="44.63125" lon="5.91933">
        <ele>2557.3</ele>
        <time>2015-11-15T11:01:29Z</time>
      </trkpt>
      <trkpt lat="44.63123" lon="5.91948">
        <ele>2558.3</ele>
        <time>2015-11-15T11:01:37Z</time>
      </trkpt>
      <trkpt lat="44.63123" lon="5.9196">
        <ele>2559.3</ele>
        <time>2015-11-15T11:01:45Z</time>
      </trkpt>
      <trkpt lat="44.63123" lon="5.91974">
        <ele>2561.3</ele>
        <time>2015-11-15T11:01:52Z</time>
      </trkpt>
      <trkpt lat="44.63125" lon="5.91987">
        <ele>2562.3</ele>
        <time>2015-11-15T11:02:01Z</time>
      </trkpt>
      <trkpt lat="44.63124" lon="5.92001">
        <ele>2561.3</ele>
        <time>2015-11-15T11:02:10Z</time>
      </trkpt>
      <trkpt lat="44.63122" lon="5.92016">
        <ele>2558.3</ele>
        <time>2015-11-15T11:02:31Z</time>
      </trkpt>
      <trkpt lat="44.63116" lon="5.92028">
        <ele>2556.3</ele>
        <time>2015-11-15T11:03:39Z</time>
      </trkpt>
      <trkpt lat="44.63105" lon="5.92045">
        <ele>2557.3</ele>
        <time>2015-11-15T11:03:53Z</time>
      </trkpt>
      <trkpt lat="44.63099" lon="5.92056">
        <ele>2557.3</ele>
        <time>2015-11-15T11:04:02Z</time>
      </trkpt>
      <trkpt lat="44.63097" lon="5.92068">
        <ele>2555.3</ele>
        <time>2015-11-15T11:04:13Z</time>
      </trkpt>
      <trkpt lat="44.63092" lon="5.92079">
        <ele>2555.3</ele>
        <time>2015-11-15T11:04:22Z</time>
      </trkpt>
      <trkpt lat="44.63089" lon="5.92091">
        <ele>2555.3</ele>
        <time>2015-11-15T11:04:30Z</time>
      </trkpt>
      <trkpt lat="44.63087" lon="5.92105">
        <ele>2557.3</ele>
        <time>2015-11-15T11:04:37Z</time>
      </trkpt>
      <trkpt lat="44.63087" lon="5.92121">
        <ele>2557.3</ele>
        <time>2015-11-15T11:04:48Z</time>
      </trkpt>
      <trkpt lat="44.63089" lon="5.92134">
        <ele>2554.3</ele>
        <time>2015-11-15T11:04:59Z</time>
      </trkpt>
      <trkpt lat="44.63087" lon="5.9215">
        <ele>2553.3</ele>
        <time>2015-11-15T11:05:09Z</time>
      </trkpt>
      <trkpt lat="44.63086" lon="5.92164">
        <ele>2552.3</ele>
        <time>2015-11-15T11:05:19Z</time>
      </trkpt>
      <trkpt lat="44.63087" lon="5.92182">
        <ele>2552.3</ele>
        <time>2015-11-15T11:05:29Z</time>
      </trkpt>
      <trkpt lat="44.63087" lon="5.92196">
        <ele>2542.3</ele>
        <time>2015-11-15T11:05:41Z</time>
      </trkpt>
      <trkpt lat="44.63088" lon="5.92209">
        <ele>2543.3</ele>
        <time>2015-11-15T11:05:50Z</time>
      </trkpt>
      <trkpt lat="44.63086" lon="5.92222">
        <ele>2544.3</ele>
        <time>2015-11-15T11:05:55Z</time>
      </trkpt>
      <trkpt lat="44.63082" lon="5.92234">
        <ele>2542.3</ele>
        <time>2015-11-15T11:06:04Z</time>
      </trkpt>
      <trkpt lat="44.63081" lon="5.92247">
        <ele>2543.3</ele>
        <time>2015-11-15T11:06:11Z</time>
      </trkpt>
      <trkpt lat="44.63077" lon="5.92265">
        <ele>2544.3</ele>
        <time>2015-11-15T11:06:20Z</time>
      </trkpt>
      <trkpt lat="44.63073" lon="5.92277">
        <ele>2544.3</ele>
        <time>2015-11-15T11:06:28Z</time>
      </trkpt>
      <trkpt lat="44.63068" lon="5.92289">
        <ele>2545.3</ele>
        <time>2015-11-15T11:06:34Z</time>
      </trkpt>
      <trkpt lat="44.63061" lon="5.92307">
        <ele>2543.3</ele>
        <time>2015-11-15T11:06:49Z</time>
      </trkpt>
      <trkpt lat="44.63056" lon="5.92317">
        <ele>2541.3</ele>
        <time>2015-11-15T11:06:56Z</time>
      </trkpt>
      <trkpt lat="44.6305" lon="5.9233">
        <ele>2537.3</ele>
        <time>2015-11-15T11:07:05Z</time>
      </trkpt>
      <trkpt lat="44.63046" lon="5.92342">
        <ele>2536.3</ele>
        <time>2015-11-15T11:07:14Z</time>
      </trkpt>
      <trkpt lat="44.63041" lon="5.92354">
        <ele>2537.3</ele>
        <time>2015-11-15T11:07:21Z</time>
      </trkpt>
      <trkpt lat="44.63038" lon="5.92366">
        <ele>2538.3</ele>
        <time>2015-11-15T11:07:30Z</time>
      </trkpt>
      <trkpt lat="44.63036" lon="5.92379">
        <ele>2537.3</ele>
        <time>2015-11-15T11:07:37Z</time>
      </trkpt>
      <trkpt lat="44.63034" lon="5.92392">
        <ele>2535.3</ele>
        <time>2015-11-15T11:07:45Z</time>
      </trkpt>
      <trkpt lat="44.63035" lon="5.92405">
        <ele>2535.3</ele>
        <time>2015-11-15T11:07:53Z</time>
      </trkpt>
      <trkpt lat="44.63033" lon="5.92418">
        <ele>2536.3</ele>
        <time>2015-11-15T11:07:57Z</time>
      </trkpt>
      <trkpt lat="44.63022" lon="5.92423">
        <ele>2527.3</ele>
        <time>2015-11-15T11:08:22Z</time>
      </trkpt>
      <trkpt lat="44.6302" lon="5.92436">
        <ele>2523.3</ele>
        <time>2015-11-15T11:08:35Z</time>
      </trkpt>
      <trkpt lat="44.63014" lon="5.92446">
        <ele>2522.3</ele>
        <time>2015-11-15T11:08:42Z</time>
      </trkpt>
      <trkpt lat="44.6301" lon="5.92458">
        <ele>2521.3</ele>
        <time>2015-11-15T11:08:50Z</time>
      </trkpt>
      <trkpt lat="44.63001" lon="5.92464">
        <ele>2521.3</ele>
        <time>2015-11-15T11:08:59Z</time>
      </trkpt>
      <trkpt lat="44.62992" lon="5.92468">
        <ele>2521.3</ele>
        <time>2015-11-15T11:09:06Z</time>
      </trkpt>
      <trkpt lat="44.62983" lon="5.92471">
        <ele>2521.3</ele>
        <time>2015-11-15T11:09:14Z</time>
      </trkpt>
      <trkpt lat="44.62974" lon="5.92476">
        <ele>2521.3</ele>
        <time>2015-11-15T11:09:22Z</time>
      </trkpt>
      <trkpt lat="44.62968" lon="5.92486">
        <ele>2519.3</ele>
        <time>2015-11-15T11:09:31Z</time>
      </trkpt>
      <trkpt lat="44.62961" lon="5.92494">
        <ele>2518.3</ele>
        <time>2015-11-15T11:09:40Z</time>
      </trkpt>
      <trkpt lat="44.62953" lon="5.92503">
        <ele>2517.3</ele>
        <time>2015-11-15T11:09:51Z</time>
      </trkpt>
      <trkpt lat="44.62944" lon="5.92521">
        <ele>2517.3</ele>
        <time>2015-11-15T11:10:08Z</time>
      </trkpt>
      <trkpt lat="44.62941" lon="5.92535">
        <ele>2520.3</ele>
        <time>2015-11-15T11:10:17Z</time>
      </trkpt>
      <trkpt lat="44.62936" lon="5.92546">
        <ele>2523.3</ele>
        <time>2015-11-15T11:11:51Z</time>
      </trkpt>
      <trkpt lat="44.62932" lon="5.92559">
        <ele>2524.3</ele>
        <time>2015-11-15T11:12:03Z</time>
      </trkpt>
      <trkpt lat="44.62928" lon="5.9257">
        <ele>2525.3</ele>
        <time>2015-11-15T11:12:12Z</time>
      </trkpt>
      <trkpt lat="44.62925" lon="5.92582">
        <ele>2527.3</ele>
        <time>2015-11-15T11:12:22Z</time>
      </trkpt>
      <trkpt lat="44.62923" lon="5.92596">
        <ele>2531.3</ele>
        <time>2015-11-15T11:12:32Z</time>
      </trkpt>
      <trkpt lat="44.6292" lon="5.9261">
        <ele>2532.3</ele>
        <time>2015-11-15T11:12:43Z</time>
      </trkpt>
      <trkpt lat="44.62919" lon="5.92623">
        <ele>2534.3</ele>
        <time>2015-11-15T11:12:55Z</time>
      </trkpt>
      <trkpt lat="44.62916" lon="5.92637">
        <ele>2533.3</ele>
        <time>2015-11-15T11:13:12Z</time>
      </trkpt>
      <trkpt lat="44.62909" lon="5.92671">
        <ele>2537.3</ele>
        <time>2015-11-15T11:13:37Z</time>
      </trkpt>
      <trkpt lat="44.62909" lon="5.92685">
        <ele>2540.3</ele>
        <time>2015-11-15T11:13:53Z</time>
      </trkpt>
      <trkpt lat="44.62908" lon="5.92698">
        <ele>2541.3</ele>
        <time>2015-11-15T11:14:08Z</time>
      </trkpt>
      <trkpt lat="44.62904" lon="5.92717">
        <ele>2542.3</ele>
        <time>2015-11-15T11:14:21Z</time>
      </trkpt>
      <trkpt lat="44.62901" lon="5.92729">
        <ele>2544.3</ele>
        <time>2015-11-15T11:14:34Z</time>
      </trkpt>
      <trkpt lat="44.62897" lon="5.92742">
        <ele>2545.3</ele>
        <time>2015-11-15T11:14:47Z</time>
      </trkpt>
      <trkpt lat="44.62897" lon="5.92755">
        <ele>2546.3</ele>
        <time>2015-11-15T11:14:58Z</time>
      </trkpt>
      <trkpt lat="44.62902" lon="5.92787">
        <ele>2548.3</ele>
        <time>2015-11-15T11:15:29Z</time>
      </trkpt>
      <trkpt lat="44.62903" lon="5.928">
        <ele>2549.3</ele>
        <time>2015-11-15T11:15:42Z</time>
      </trkpt>
      <trkpt lat="44.62895" lon="5.92808">
        <ele>2553.3</ele>
        <time>2015-11-15T11:15:58Z</time>
      </trkpt>
      <trkpt lat="44.62889" lon="5.92817">
        <ele>2553.3</ele>
        <time>2015-11-15T11:16:20Z</time>
      </trkpt>
      <trkpt lat="44.62889" lon="5.92836">
        <ele>2560.3</ele>
        <time>2015-11-15T11:16:38Z</time>
      </trkpt>
      <trkpt lat="44.62881" lon="5.92847">
        <ele>2562.3</ele>
        <time>2015-11-15T11:17:03Z</time>
      </trkpt>
      <trkpt lat="44.62875" lon="5.92857">
        <ele>2564.3</ele>
        <time>2015-11-15T11:17:15Z</time>
      </trkpt>
      <trkpt lat="44.62858" lon="5.92866">
        <ele>2566.3</ele>
        <time>2015-11-15T11:17:44Z</time>
      </trkpt>
      <trkpt lat="44.6285" lon="5.92857">
        <ele>2567.3</ele>
        <time>2015-11-15T11:17:54Z</time>
      </trkpt>
      <trkpt lat="44.62842" lon="5.92866">
        <ele>2567.3</ele>
        <time>2015-11-15T11:18:12Z</time>
      </trkpt>
      <trkpt lat="44.62832" lon="5.92861">
        <ele>2570.3</ele>
        <time>2015-11-15T11:18:31Z</time>
      </trkpt>
      <trkpt lat="44.62824" lon="5.92856">
        <ele>2574.3</ele>
        <time>2015-11-15T11:18:46Z</time>
      </trkpt>
      <trkpt lat="44.62815" lon="5.92858">
        <ele>2577.3</ele>
        <time>2015-11-15T11:18:57Z</time>
      </trkpt>
      <trkpt lat="44.62805" lon="5.92859">
        <ele>2576.3</ele>
        <time>2015-11-15T11:19:07Z</time>
      </trkpt>
      <trkpt lat="44.62797" lon="5.92867">
        <ele>2576.3</ele>
        <time>2015-11-15T11:19:16Z</time>
      </trkpt>
      <trkpt lat="44.6279" lon="5.92876">
        <ele>2579.3</ele>
        <time>2015-11-15T11:19:27Z</time>
      </trkpt>
      <trkpt lat="44.6279" lon="5.92888">
        <ele>2581.3</ele>
        <time>2015-11-15T11:19:39Z</time>
      </trkpt>
      <trkpt lat="44.6279" lon="5.92901">
        <ele>2584.3</ele>
        <time>2015-11-15T11:19:52Z</time>
      </trkpt>
      <trkpt lat="44.62788" lon="5.92914">
        <ele>2584.3</ele>
        <time>2015-11-15T11:20:08Z</time>
      </trkpt>
      <trkpt lat="44.62784" lon="5.92927">
        <ele>2585.3</ele>
        <time>2015-11-15T11:20:19Z</time>
      </trkpt>
      <trkpt lat="44.62781" lon="5.92939">
        <ele>2588.3</ele>
        <time>2015-11-15T11:20:29Z</time>
      </trkpt>
      <trkpt lat="44.62776" lon="5.92951">
        <ele>2590.3</ele>
        <time>2015-11-15T11:20:38Z</time>
      </trkpt>
      <trkpt lat="44.62772" lon="5.92963">
        <ele>2591.3</ele>
        <time>2015-11-15T11:20:47Z</time>
      </trkpt>
      <trkpt lat="44.62769" lon="5.92976">
        <ele>2590.3</ele>
        <time>2015-11-15T11:21:12Z</time>
      </trkpt>
      <trkpt lat="44.62767" lon="5.92989">
        <ele>2595.3</ele>
        <time>2015-11-15T11:21:23Z</time>
      </trkpt>
      <trkpt lat="44.62766" lon="5.93006">
        <ele>2595.3</ele>
        <time>2015-11-15T11:21:38Z</time>
      </trkpt>
      <trkpt lat="44.62775" lon="5.93012">
        <ele>2599.3</ele>
        <time>2015-11-15T11:21:52Z</time>
      </trkpt>
      <trkpt lat="44.62782" lon="5.9302">
        <ele>2600.3</ele>
        <time>2015-11-15T11:22:04Z</time>
      </trkpt>
      <trkpt lat="44.62788" lon="5.93031">
        <ele>2601.3</ele>
        <time>2015-11-15T11:22:16Z</time>
      </trkpt>
      <trkpt lat="44.6279" lon="5.93043">
        <ele>2605.3</ele>
        <time>2015-11-15T11:22:27Z</time>
      </trkpt>
      <trkpt lat="44.62793" lon="5.93056">
        <ele>2608.3</ele>
        <time>2015-11-15T11:22:43Z</time>
      </trkpt>
      <trkpt lat="44.62788" lon="5.93067">
        <ele>2609.3</ele>
        <time>2015-11-15T11:22:57Z</time>
      </trkpt>
      <trkpt lat="44.6278" lon="5.93074">
        <ele>2609.3</ele>
        <time>2015-11-15T11:23:10Z</time>
      </trkpt>
      <trkpt lat="44.62773" lon="5.93083">
        <ele>2605.3</ele>
        <time>2015-11-15T11:23:50Z</time>
      </trkpt>
      <trkpt lat="44.62769" lon="5.93096">
        <ele>2612.3</ele>
        <time>2015-11-15T11:24:04Z</time>
      </trkpt>
      <trkpt lat="44.62762" lon="5.93108">
        <ele>2615.3</ele>
        <time>2015-11-15T11:24:15Z</time>
      </trkpt>
      <trkpt lat="44.62756" lon="5.93119">
        <ele>2616.3</ele>
        <time>2015-11-15T11:24:32Z</time>
      </trkpt>
      <trkpt lat="44.62755" lon="5.93132">
        <ele>2613.3</ele>
        <time>2015-11-15T11:24:50Z</time>
      </trkpt>
      <trkpt lat="44.62749" lon="5.93142">
        <ele>2619.3</ele>
        <time>2015-11-15T11:25:05Z</time>
      </trkpt>
      <trkpt lat="44.62741" lon="5.9315">
        <ele>2623.3</ele>
        <time>2015-11-15T11:25:16Z</time>
      </trkpt>
      <trkpt lat="44.62732" lon="5.93157">
        <ele>2625.3</ele>
        <time>2015-11-15T11:25:30Z</time>
      </trkpt>
      <trkpt lat="44.62726" lon="5.93167">
        <ele>2629.3</ele>
        <time>2015-11-15T11:25:44Z</time>
      </trkpt>
      <trkpt lat="44.62718" lon="5.93176">
        <ele>2633.3</ele>
        <time>2015-11-15T11:25:57Z</time>
      </trkpt>
      <trkpt lat="44.6271" lon="5.93183">
        <ele>2635.3</ele>
        <time>2015-11-15T11:26:26Z</time>
      </trkpt>
      <trkpt lat="44.62709" lon="5.93196">
        <ele>2637.3</ele>
        <time>2015-11-15T11:26:44Z</time>
      </trkpt>
      <trkpt lat="44.62701" lon="5.93202">
        <ele>2638.3</ele>
        <time>2015-11-15T11:26:58Z</time>
      </trkpt>
      <trkpt lat="44.62692" lon="5.93207">
        <ele>2641.3</ele>
        <time>2015-11-15T11:27:15Z</time>
      </trkpt>
      <trkpt lat="44.62692" lon="5.9322">
        <ele>2641.3</ele>
        <time>2015-11-15T11:27:39Z</time>
      </trkpt>
      <trkpt lat="44.62694" lon="5.93233">
        <ele>2647.3</ele>
        <time>2015-11-15T11:27:55Z</time>
      </trkpt>
      <trkpt lat="44.62691" lon="5.93245">
        <ele>2651.3</ele>
        <time>2015-11-15T11:28:22Z</time>
      </trkpt>
      <trkpt lat="44.62685" lon="5.93255">
        <ele>2654.3</ele>
        <time>2015-11-15T11:28:39Z</time>
      </trkpt>
      <trkpt lat="44.62681" lon="5.93268">
        <ele>2658.3</ele>
        <time>2015-11-15T11:28:58Z</time>
      </trkpt>
      <trkpt lat="44.62679" lon="5.9328">
        <ele>2665.3</ele>
        <time>2015-11-15T11:29:12Z</time>
      </trkpt>
      <trkpt lat="44.62673" lon="5.93289">
        <ele>2666.3</ele>
        <time>2015-11-15T11:29:36Z</time>
      </trkpt>
      <trkpt lat="44.6267" lon="5.93302">
        <ele>2669.3</ele>
        <time>2015-11-15T11:29:55Z</time>
      </trkpt>
      <trkpt lat="44.62663" lon="5.93312">
        <ele>2672.3</ele>
        <time>2015-11-15T11:30:11Z</time>
      </trkpt>
      <trkpt lat="44.62664" lon="5.93325">
        <ele>2674.3</ele>
        <time>2015-11-15T11:30:28Z</time>
      </trkpt>
      <trkpt lat="44.62667" lon="5.93338">
        <ele>2675.3</ele>
        <time>2015-11-15T11:30:49Z</time>
      </trkpt>
      <trkpt lat="44.62671" lon="5.9335">
        <ele>2677.3</ele>
        <time>2015-11-15T11:31:02Z</time>
      </trkpt>
      <trkpt lat="44.62667" lon="5.93362">
        <ele>2682.3</ele>
        <time>2015-11-15T11:31:24Z</time>
      </trkpt>
      <trkpt lat="44.6266" lon="5.9337">
        <ele>2685.3</ele>
        <time>2015-11-15T11:31:40Z</time>
      </trkpt>
      <trkpt lat="44.62657" lon="5.93384">
        <ele>2691.3</ele>
        <time>2015-11-15T11:32:01Z</time>
      </trkpt>
      <trkpt lat="44.62662" lon="5.93403">
        <ele>2696.3</ele>
        <time>2015-11-15T11:32:23Z</time>
      </trkpt>
      <trkpt lat="44.62666" lon="5.93415">
        <ele>2696.3</ele>
        <time>2015-11-15T11:32:36Z</time>
      </trkpt>
      <trkpt lat="44.62668" lon="5.93428">
        <ele>2700.3</ele>
        <time>2015-11-15T11:32:54Z</time>
      </trkpt>
      <trkpt lat="44.62671" lon="5.9344">
        <ele>2704.3</ele>
        <time>2015-11-15T11:33:06Z</time>
      </trkpt>
      <trkpt lat="44.62674" lon="5.93456">
        <ele>2705.3</ele>
        <time>2015-11-15T11:33:20Z</time>
      </trkpt>
      <trkpt lat="44.62673" lon="5.9347">
        <ele>2708.3</ele>
        <time>2015-11-15T11:33:34Z</time>
      </trkpt>
      <trkpt lat="44.62671" lon="5.93483">
        <ele>2711.3</ele>
        <time>2015-11-15T11:33:48Z</time>
      </trkpt>
      <trkpt lat="44.62668" lon="5.93496">
        <ele>2713.3</ele>
        <time>2015-11-15T11:34:05Z</time>
      </trkpt>
      <trkpt lat="44.62663" lon="5.93507">
        <ele>2715.3</ele>
        <time>2015-11-15T11:34:30Z</time>
      </trkpt>
      <trkpt lat="44.62666" lon="5.93495">
        <ele>2711.3</ele>
        <time>2015-11-15T11:53:15Z</time>
      </trkpt>
      <trkpt lat="44.62671" lon="5.93483">
        <ele>2708.3</ele>
        <time>2015-11-15T11:54:21Z</time>
      </trkpt>
      <trkpt lat="44.62674" lon="5.93469">
        <ele>2706.3</ele>
        <time>2015-11-15T11:54:36Z</time>
      </trkpt>
      <trkpt lat="44.62676" lon="5.93456">
        <ele>2703.3</ele>
        <time>2015-11-15T11:54:51Z</time>
      </trkpt>
      <trkpt lat="44.62674" lon="5.93442">
        <ele>2702.3</ele>
        <time>2015-11-15T11:55:02Z</time>
      </trkpt>
      <trkpt lat="44.6267" lon="5.9343">
        <ele>2699.3</ele>
        <time>2015-11-15T11:55:12Z</time>
      </trkpt>
      <trkpt lat="44.62669" lon="5.93417">
        <ele>2695.3</ele>
        <time>2015-11-15T11:55:24Z</time>
      </trkpt>
      <trkpt lat="44.62664" lon="5.93406">
        <ele>2693.3</ele>
        <time>2015-11-15T11:55:33Z</time>
      </trkpt>
      <trkpt lat="44.62659" lon="5.93391">
        <ele>2690.3</ele>
        <time>2015-11-15T11:55:46Z</time>
      </trkpt>
      <trkpt lat="44.62656" lon="5.93379">
        <ele>2688.3</ele>
        <time>2015-11-15T11:55:59Z</time>
      </trkpt>
      <trkpt lat="44.62662" lon="5.93369">
        <ele>2685.3</ele>
        <time>2015-11-15T11:56:13Z</time>
      </trkpt>
      <trkpt lat="44.62666" lon="5.93357">
        <ele>2682.3</ele>
        <time>2015-11-15T11:56:27Z</time>
      </trkpt>
      <trkpt lat="44.62668" lon="5.93343">
        <ele>2678.3</ele>
        <time>2015-11-15T11:56:40Z</time>
      </trkpt>
      <trkpt lat="44.62666" lon="5.93329">
        <ele>2675.3</ele>
        <time>2015-11-15T11:56:51Z</time>
      </trkpt>
      <trkpt lat="44.62663" lon="5.93317">
        <ele>2672.3</ele>
        <time>2015-11-15T11:57:04Z</time>
      </trkpt>
      <trkpt lat="44.62661" lon="5.93305">
        <ele>2669.3</ele>
        <time>2015-11-15T11:57:23Z</time>
      </trkpt>
      <trkpt lat="44.6266" lon="5.93292">
        <ele>2668.3</ele>
        <time>2015-11-15T11:57:37Z</time>
      </trkpt>
      <trkpt lat="44.62654" lon="5.93281">
        <ele>2665.3</ele>
        <time>2015-11-15T11:57:50Z</time>
      </trkpt>
      <trkpt lat="44.62652" lon="5.93268">
        <ele>2663.3</ele>
        <time>2015-11-15T11:58:02Z</time>
      </trkpt>
      <trkpt lat="44.62652" lon="5.93255">
        <ele>2660.3</ele>
        <time>2015-11-15T11:58:12Z</time>
      </trkpt>
      <trkpt lat="44.62642" lon="5.93238">
        <ele>2652.3</ele>
        <time>2015-11-15T11:58:28Z</time>
      </trkpt>
      <trkpt lat="44.62633" lon="5.93233">
        <ele>2650.3</ele>
        <time>2015-11-15T11:58:39Z</time>
      </trkpt>
      <trkpt lat="44.62624" lon="5.93234">
        <ele>2647.3</ele>
        <time>2015-11-15T11:58:48Z</time>
      </trkpt>
      <trkpt lat="44.62614" lon="5.93232">
        <ele>2643.3</ele>
        <time>2015-11-15T11:59:01Z</time>
      </trkpt>
      <trkpt lat="44.62605" lon="5.93228">
        <ele>2643.3</ele>
        <time>2015-11-15T11:59:08Z</time>
      </trkpt>
      <trkpt lat="44.62595" lon="5.93227">
        <ele>2642.3</ele>
        <time>2015-11-15T11:59:18Z</time>
      </trkpt>
      <trkpt lat="44.62586" lon="5.93222">
        <ele>2641.3</ele>
        <time>2015-11-15T11:59:27Z</time>
      </trkpt>
      <trkpt lat="44.62578" lon="5.93216">
        <ele>2643.3</ele>
        <time>2015-11-15T11:59:34Z</time>
      </trkpt>
      <trkpt lat="44.62569" lon="5.93209">
        <ele>2642.3</ele>
        <time>2015-11-15T11:59:43Z</time>
      </trkpt>
      <trkpt lat="44.62566" lon="5.93196">
        <ele>2642.3</ele>
        <time>2015-11-15T11:59:51Z</time>
      </trkpt>
      <trkpt lat="44.62562" lon="5.93184">
        <ele>2641.3</ele>
        <time>2015-11-15T11:59:59Z</time>
      </trkpt>
      <trkpt lat="44.62557" lon="5.93172">
        <ele>2642.3</ele>
        <time>2015-11-15T12:00:07Z</time>
      </trkpt>
      <trkpt lat="44.62557" lon="5.93158">
        <ele>2641.3</ele>
        <time>2015-11-15T12:00:17Z</time>
      </trkpt>
      <trkpt lat="44.62553" lon="5.93145">
        <ele>2639.3</ele>
        <time>2015-11-15T12:00:27Z</time>
      </trkpt>
      <trkpt lat="44.62549" lon="5.93132">
        <ele>2638.3</ele>
        <time>2015-11-15T12:00:41Z</time>
      </trkpt>
      <trkpt lat="44.62541" lon="5.93126">
        <ele>2635.3</ele>
        <time>2015-11-15T12:00:57Z</time>
      </trkpt>
      <trkpt lat="44.62534" lon="5.93117">
        <ele>2638.3</ele>
        <time>2015-11-15T12:01:06Z</time>
      </trkpt>
      <trkpt lat="44.62529" lon="5.93102">
        <ele>2638.3</ele>
        <time>2015-11-15T12:01:19Z</time>
      </trkpt>
      <trkpt lat="44.62523" lon="5.93092">
        <ele>2636.3</ele>
        <time>2015-11-15T12:01:33Z</time>
      </trkpt>
      <trkpt lat="44.62519" lon="5.93081">
        <ele>2638.3</ele>
        <time>2015-11-15T12:01:45Z</time>
      </trkpt>
      <trkpt lat="44.62512" lon="5.93071">
        <ele>2639.3</ele>
        <time>2015-11-15T12:01:59Z</time>
      </trkpt>
      <trkpt lat="44.62504" lon="5.93063">
        <ele>2640.3</ele>
        <time>2015-11-15T12:02:12Z</time>
      </trkpt>
      <trkpt lat="44.62498" lon="5.93051">
        <ele>2639.3</ele>
        <time>2015-11-15T12:02:26Z</time>
      </trkpt>
      <trkpt lat="44.62493" lon="5.9304">
        <ele>2639.3</ele>
        <time>2015-11-15T12:02:36Z</time>
      </trkpt>
      <trkpt lat="44.62489" lon="5.93028">
        <ele>2636.3</ele>
        <time>2015-11-15T12:02:47Z</time>
      </trkpt>
      <trkpt lat="44.62492" lon="5.93014">
        <ele>2634.3</ele>
        <time>2015-11-15T12:02:58Z</time>
      </trkpt>
      <trkpt lat="44.62496" lon="5.93002">
        <ele>2631.3</ele>
        <time>2015-11-15T12:03:09Z</time>
      </trkpt>
      <trkpt lat="44.62498" lon="5.9299">
        <ele>2629.3</ele>
        <time>2015-11-15T12:03:23Z</time>
      </trkpt>
      <trkpt lat="44.62502" lon="5.92978">
        <ele>2627.3</ele>
        <time>2015-11-15T12:05:03Z</time>
      </trkpt>
      <trkpt lat="44.62511" lon="5.92963">
        <ele>2624.3</ele>
        <time>2015-11-15T12:05:18Z</time>
      </trkpt>
      <trkpt lat="44.6252" lon="5.92966">
        <ele>2618.3</ele>
        <time>2015-11-15T12:05:45Z</time>
      </trkpt>
      <trkpt lat="44.62525" lon="5.92955">
        <ele>2612.3</ele>
        <time>2015-11-15T12:06:12Z</time>
      </trkpt>
      <trkpt lat="44.62529" lon="5.92941">
        <ele>2610.3</ele>
        <time>2015-11-15T12:06:23Z</time>
      </trkpt>
      <trkpt lat="44.62534" lon="5.9293">
        <ele>2608.3</ele>
        <time>2015-11-15T12:06:34Z</time>
      </trkpt>
      <trkpt lat="44.62536" lon="5.92917">
        <ele>2608.3</ele>
        <time>2015-11-15T12:07:48Z</time>
      </trkpt>
      <trkpt lat="44.62542" lon="5.92906">
        <ele>2606.3</ele>
        <time>2015-11-15T12:07:57Z</time>
      </trkpt>
      <trkpt lat="44.62549" lon="5.92898">
        <ele>2603.3</ele>
        <time>2015-11-15T12:08:05Z</time>
      </trkpt>
      <trkpt lat="44.62554" lon="5.92887">
        <ele>2599.3</ele>
        <time>2015-11-15T12:08:14Z</time>
      </trkpt>
      <trkpt lat="44.62554" lon="5.92872">
        <ele>2602.3</ele>
        <time>2015-11-15T12:08:24Z</time>
      </trkpt>
      <trkpt lat="44.62558" lon="5.9286">
        <ele>2603.3</ele>
        <time>2015-11-15T12:08:32Z</time>
      </trkpt>
      <trkpt lat="44.62556" lon="5.92846">
        <ele>2599.3</ele>
        <time>2015-11-15T12:08:44Z</time>
      </trkpt>
      <trkpt lat="44.62554" lon="5.92834">
        <ele>2601.3</ele>
        <time>2015-11-15T12:08:52Z</time>
      </trkpt>
      <trkpt lat="44.62557" lon="5.9282">
        <ele>2602.3</ele>
        <time>2015-11-15T12:09:03Z</time>
      </trkpt>
      <trkpt lat="44.62556" lon="5.92806">
        <ele>2601.3</ele>
        <time>2015-11-15T12:09:12Z</time>
      </trkpt>
      <trkpt lat="44.62554" lon="5.92793">
        <ele>2599.3</ele>
        <time>2015-11-15T12:09:20Z</time>
      </trkpt>
      <trkpt lat="44.62553" lon="5.9278">
        <ele>2600.3</ele>
        <time>2015-11-15T12:09:28Z</time>
      </trkpt>
      <trkpt lat="44.62559" lon="5.92769">
        <ele>2602.3</ele>
        <time>2015-11-15T12:09:35Z</time>
      </trkpt>
      <trkpt lat="44.6256" lon="5.92757">
        <ele>2600.3</ele>
        <time>2015-11-15T12:09:42Z</time>
      </trkpt>
      <trkpt lat="44.6256" lon="5.92744">
        <ele>2599.3</ele>
        <time>2015-11-15T12:09:55Z</time>
      </trkpt>
      <trkpt lat="44.62552" lon="5.92734">
        <ele>2595.3</ele>
        <time>2015-11-15T12:10:02Z</time>
      </trkpt>
      <trkpt lat="44.62557" lon="5.92721">
        <ele>2593.3</ele>
        <time>2015-11-15T12:10:09Z</time>
      </trkpt>
      <trkpt lat="44.62557" lon="5.92705">
        <ele>2595.3</ele>
        <time>2015-11-15T12:10:17Z</time>
      </trkpt>
      <trkpt lat="44.6255" lon="5.92697">
        <ele>2592.3</ele>
        <time>2015-11-15T12:10:29Z</time>
      </trkpt>
      <trkpt lat="44.62543" lon="5.92688">
        <ele>2589.3</ele>
        <time>2015-11-15T12:10:35Z</time>
      </trkpt>
      <trkpt lat="44.62541" lon="5.92674">
        <ele>2584.3</ele>
        <time>2015-11-15T12:10:44Z</time>
      </trkpt>
      <trkpt lat="44.62533" lon="5.92681">
        <ele>2586.3</ele>
        <time>2015-11-15T12:11:13Z</time>
      </trkpt>
      <trkpt lat="44.62529" lon="5.92694">
        <ele>2588.3</ele>
        <time>2015-11-15T12:11:24Z</time>
      </trkpt>
      <trkpt lat="44.62524" lon="5.92705">
        <ele>2587.3</ele>
        <time>2015-11-15T12:11:35Z</time>
      </trkpt>
      <trkpt lat="44.62524" lon="5.92718">
        <ele>2580.3</ele>
        <time>2015-11-15T12:11:49Z</time>
      </trkpt>
      <trkpt lat="44.62527" lon="5.92731">
        <ele>2574.3</ele>
        <time>2015-11-15T12:12:34Z</time>
      </trkpt>
      <trkpt lat="44.6252" lon="5.9274">
        <ele>2564.3</ele>
        <time>2015-11-15T12:15:40Z</time>
      </trkpt>
      <trkpt lat="44.62514" lon="5.92751">
        <ele>2558.3</ele>
        <time>2015-11-15T12:15:57Z</time>
      </trkpt>
      <trkpt lat="44.62506" lon="5.92757">
        <ele>2650.3</ele>
        <time>2015-11-15T12:16:13Z</time>
      </trkpt>
      <trkpt lat="44.62498" lon="5.92762">
        <ele>2564.3</ele>
        <time>2015-11-15T12:16:28Z</time>
      </trkpt>
      <trkpt lat="44.6249" lon="5.92767">
        <ele>2559.3</ele>
        <time>2015-11-15T12:16:58Z</time>
      </trkpt>
      <trkpt lat="44.62482" lon="5.92775">
        <ele>2547.3</ele>
        <time>2015-11-15T12:18:10Z</time>
      </trkpt>
      <trkpt lat="44.62473" lon="5.92776">
        <ele>2543.3</ele>
        <time>2015-11-15T12:18:26Z</time>
      </trkpt>
      <trkpt lat="44.62461" lon="5.92776">
        <ele>2533.3</ele>
        <time>2015-11-15T12:18:57Z</time>
      </trkpt>
      <trkpt lat="44.62463" lon="5.92789">
        <ele>2532.3</ele>
        <time>2015-11-15T12:19:48Z</time>
      </trkpt>
      <trkpt lat="44.62457" lon="5.92799">
        <ele>2529.3</ele>
        <time>2015-11-15T12:20:51Z</time>
      </trkpt>
      <trkpt lat="44.62458" lon="5.92812">
        <ele>2529.3</ele>
        <time>2015-11-15T12:21:41Z</time>
      </trkpt>
      <trkpt lat="44.62456" lon="5.92799">
        <ele>2526.3</ele>
        <time>2015-11-15T12:22:52Z</time>
      </trkpt>
      <trkpt lat="44.62458" lon="5.92812">
        <ele>2526.3</ele>
        <time>2015-11-15T12:24:03Z</time>
      </trkpt>
      <trkpt lat="44.62458" lon="5.92825">
        <ele>2528.3</ele>
        <time>2015-11-15T12:24:15Z</time>
      </trkpt>
      <trkpt lat="44.6245" lon="5.9283">
        <ele>2523.3</ele>
        <time>2015-11-15T12:25:20Z</time>
      </trkpt>
      <trkpt lat="44.6246" lon="5.92833">
        <ele>2522.3</ele>
        <time>2015-11-15T12:28:56Z</time>
      </trkpt>
      <trkpt lat="44.62467" lon="5.92825">
        <ele>2518.3</ele>
        <time>2015-11-15T12:29:28Z</time>
      </trkpt>
      <trkpt lat="44.62465" lon="5.92812">
        <ele>2525.3</ele>
        <time>2015-11-15T12:29:41Z</time>
      </trkpt>
      <trkpt lat="44.62466" lon="5.92795">
        <ele>2533.3</ele>
        <time>2015-11-15T12:30:35Z</time>
      </trkpt>
      <trkpt lat="44.62469" lon="5.92782">
        <ele>2531.3</ele>
        <time>2015-11-15T12:30:45Z</time>
      </trkpt>
      <trkpt lat="44.62469" lon="5.92769">
        <ele>2532.3</ele>
        <time>2015-11-15T12:31:17Z</time>
      </trkpt>
      <trkpt lat="44.62472" lon="5.92756">
        <ele>2529.3</ele>
        <time>2015-11-15T12:31:46Z</time>
      </trkpt>
      <trkpt lat="44.62474" lon="5.92742">
        <ele>2527.3</ele>
        <time>2015-11-15T12:31:59Z</time>
      </trkpt>
      <trkpt lat="44.62466" lon="5.92736">
        <ele>2528.3</ele>
        <time>2015-11-15T12:32:27Z</time>
      </trkpt>
      <trkpt lat="44.62457" lon="5.92741">
        <ele>2521.3</ele>
        <time>2015-11-15T12:33:14Z</time>
      </trkpt>
      <trkpt lat="44.62449" lon="5.92734">
        <ele>2519.3</ele>
        <time>2015-11-15T12:33:58Z</time>
      </trkpt>
      <trkpt lat="44.62449" lon="5.9272">
        <ele>2512.3</ele>
        <time>2015-11-15T12:34:26Z</time>
      </trkpt>
      <trkpt lat="44.62443" lon="5.92711">
        <ele>2506.3</ele>
        <time>2015-11-15T12:35:03Z</time>
      </trkpt>
      <trkpt lat="44.6244" lon="5.92697">
        <ele>2500.3</ele>
        <time>2015-11-15T12:35:35Z</time>
      </trkpt>
      <trkpt lat="44.62437" lon="5.92683">
        <ele>2493.3</ele>
        <time>2015-11-15T12:36:15Z</time>
      </trkpt>
      <trkpt lat="44.62441" lon="5.92672">
        <ele>2482.3</ele>
        <time>2015-11-15T12:36:30Z</time>
      </trkpt>
      <trkpt lat="44.62435" lon="5.92662">
        <ele>2479.3</ele>
        <time>2015-11-15T12:37:00Z</time>
      </trkpt>
      <trkpt lat="44.62435" lon="5.92649">
        <ele>2476.3</ele>
        <time>2015-11-15T12:37:15Z</time>
      </trkpt>
      <trkpt lat="44.6244" lon="5.92633">
        <ele>2470.3</ele>
        <time>2015-11-15T12:38:23Z</time>
      </trkpt>
      <trkpt lat="44.62446" lon="5.9262">
        <ele>2467.3</ele>
        <time>2015-11-15T12:38:46Z</time>
      </trkpt>
      <trkpt lat="44.62446" lon="5.92607">
        <ele>2470.3</ele>
        <time>2015-11-15T12:39:05Z</time>
      </trkpt>
      <trkpt lat="44.62452" lon="5.92598">
        <ele>2467.3</ele>
        <time>2015-11-15T12:39:16Z</time>
      </trkpt>
      <trkpt lat="44.6245" lon="5.92585">
        <ele>2471.3</ele>
        <time>2015-11-15T12:39:25Z</time>
      </trkpt>
      <trkpt lat="44.62451" lon="5.92571">
        <ele>2472.3</ele>
        <time>2015-11-15T12:39:36Z</time>
      </trkpt>
      <trkpt lat="44.62453" lon="5.9255">
        <ele>2472.3</ele>
        <time>2015-11-15T12:39:55Z</time>
      </trkpt>
      <trkpt lat="44.62454" lon="5.92537">
        <ele>2470.3</ele>
        <time>2015-11-15T12:40:11Z</time>
      </trkpt>
      <trkpt lat="44.62456" lon="5.92523">
        <ele>2467.3</ele>
        <time>2015-11-15T12:40:24Z</time>
      </trkpt>
      <trkpt lat="44.62458" lon="5.9251">
        <ele>2465.3</ele>
        <time>2015-11-15T12:40:33Z</time>
      </trkpt>
      <trkpt lat="44.62457" lon="5.92498">
        <ele>2463.3</ele>
        <time>2015-11-15T12:40:49Z</time>
      </trkpt>
      <trkpt lat="44.62458" lon="5.92485">
        <ele>2466.3</ele>
        <time>2015-11-15T12:41:02Z</time>
      </trkpt>
      <trkpt lat="44.62458" lon="5.92471">
        <ele>2461.3</ele>
        <time>2015-11-15T12:41:39Z</time>
      </trkpt>
      <trkpt lat="44.62457" lon="5.92459">
        <ele>2457.3</ele>
        <time>2015-11-15T12:42:04Z</time>
      </trkpt>
      <trkpt lat="44.62455" lon="5.92446">
        <ele>2458.3</ele>
        <time>2015-11-15T12:42:22Z</time>
      </trkpt>
      <trkpt lat="44.62458" lon="5.92434">
        <ele>2473.3</ele>
        <time>2015-11-15T12:42:33Z</time>
      </trkpt>
      <trkpt lat="44.62455" lon="5.92422">
        <ele>2459.3</ele>
        <time>2015-11-15T12:42:46Z</time>
      </trkpt>
      <trkpt lat="44.62451" lon="5.92408">
        <ele>2447.3</ele>
        <time>2015-11-15T12:43:33Z</time>
      </trkpt>
      <trkpt lat="44.62444" lon="5.92399">
        <ele>2448.3</ele>
        <time>2015-11-15T12:43:50Z</time>
      </trkpt>
      <trkpt lat="44.62442" lon="5.92386">
        <ele>2449.3</ele>
        <time>2015-11-15T12:44:06Z</time>
      </trkpt>
      <trkpt lat="44.62441" lon="5.92373">
        <ele>2441.3</ele>
        <time>2015-11-15T12:44:23Z</time>
      </trkpt>
      <trkpt lat="44.62437" lon="5.92384">
        <ele>2445.3</ele>
        <time>2015-11-15T12:44:53Z</time>
      </trkpt>
      <trkpt lat="44.62433" lon="5.92372">
        <ele>2442.3</ele>
        <time>2015-11-15T12:45:50Z</time>
      </trkpt>
      <trkpt lat="44.62433" lon="5.92359">
        <ele>2443.3</ele>
        <time>2015-11-15T12:46:01Z</time>
      </trkpt>
      <trkpt lat="44.62432" lon="5.92345">
        <ele>2445.3</ele>
        <time>2015-11-15T12:46:16Z</time>
      </trkpt>
      <trkpt lat="44.6243" lon="5.92332">
        <ele>2449.3</ele>
        <time>2015-11-15T12:46:36Z</time>
      </trkpt>
      <trkpt lat="44.62428" lon="5.9232">
        <ele>2455.3</ele>
        <time>2015-11-15T12:47:17Z</time>
      </trkpt>
      <trkpt lat="44.62428" lon="5.92304">
        <ele>2459.3</ele>
        <time>2015-11-15T12:49:17Z</time>
      </trkpt>
      <trkpt lat="44.62431" lon="5.9229">
        <ele>2457.3</ele>
        <time>2015-11-15T12:49:19Z</time>
      </trkpt>
      <trkpt lat="44.62423" lon="5.92285">
        <ele>2457.3</ele>
        <time>2015-11-15T12:49:39Z</time>
      </trkpt>
      <trkpt lat="44.62415" lon="5.92291">
        <ele>2448.3</ele>
        <time>2015-11-15T12:49:57Z</time>
      </trkpt>
      <trkpt lat="44.62411" lon="5.9228">
        <ele>2449.3</ele>
        <time>2015-11-15T12:50:16Z</time>
      </trkpt>
      <trkpt lat="44.62409" lon="5.92267">
        <ele>2448.3</ele>
        <time>2015-11-15T12:50:36Z</time>
      </trkpt>
      <trkpt lat="44.62407" lon="5.92255">
        <ele>2446.3</ele>
        <time>2015-11-15T12:50:55Z</time>
      </trkpt>
      <trkpt lat="44.62402" lon="5.92245">
        <ele>2437.3</ele>
        <time>2015-11-15T12:52:08Z</time>
      </trkpt>
      <trkpt lat="44.624" lon="5.9223">
        <ele>2433.3</ele>
        <time>2015-11-15T12:52:26Z</time>
      </trkpt>
      <trkpt lat="44.62402" lon="5.92218">
        <ele>2430.3</ele>
        <time>2015-11-15T12:52:45Z</time>
      </trkpt>
      <trkpt lat="44.62395" lon="5.92209">
        <ele>2432.3</ele>
        <time>2015-11-15T12:52:57Z</time>
      </trkpt>
      <trkpt lat="44.62403" lon="5.92201">
        <ele>2426.3</ele>
        <time>2015-11-15T12:53:09Z</time>
      </trkpt>
      <trkpt lat="44.62409" lon="5.92191">
        <ele>2421.3</ele>
        <time>2015-11-15T12:53:38Z</time>
      </trkpt>
      <trkpt lat="44.624" lon="5.92189">
        <ele>2417.3</ele>
        <time>2015-11-15T12:56:29Z</time>
      </trkpt>
      <trkpt lat="44.62393" lon="5.922">
        <ele>2416.3</ele>
        <time>2015-11-15T12:57:04Z</time>
      </trkpt>
      <trkpt lat="44.62399" lon="5.92209">
        <ele>2419.3</ele>
        <time>2015-11-15T12:57:27Z</time>
      </trkpt>
      <trkpt lat="44.624" lon="5.92222">
        <ele>2418.3</ele>
        <time>2015-11-15T12:59:04Z</time>
      </trkpt>
      <trkpt lat="44.62404" lon="5.92253">
        <ele>2432.3</ele>
        <time>2015-11-15T13:00:01Z</time>
      </trkpt>
      <trkpt lat="44.62409" lon="5.92265">
        <ele>2434.3</ele>
        <time>2015-11-15T13:00:26Z</time>
      </trkpt>
      <trkpt lat="44.62409" lon="5.92278">
        <ele>2434.3</ele>
        <time>2015-11-15T13:00:43Z</time>
      </trkpt>
      <trkpt lat="44.62413" lon="5.9229">
        <ele>2441.3</ele>
        <time>2015-11-15T13:01:15Z</time>
      </trkpt>
      <trkpt lat="44.62421" lon="5.923">
        <ele>2445.3</ele>
        <time>2015-11-15T13:01:38Z</time>
      </trkpt>
      <trkpt lat="44.62428" lon="5.92308">
        <ele>2452.3</ele>
        <time>2015-11-15T13:02:00Z</time>
      </trkpt>
      <trkpt lat="44.6243" lon="5.92321">
        <ele>2458.3</ele>
        <time>2015-11-15T13:02:28Z</time>
      </trkpt>
      <trkpt lat="44.62434" lon="5.92333">
        <ele>2461.3</ele>
        <time>2015-11-15T13:02:52Z</time>
      </trkpt>
      <trkpt lat="44.62441" lon="5.92341">
        <ele>2465.3</ele>
        <time>2015-11-15T13:03:24Z</time>
      </trkpt>
      <trkpt lat="44.6245" lon="5.92345">
        <ele>2475.3</ele>
        <time>2015-11-15T13:04:25Z</time>
      </trkpt>
      <trkpt lat="44.62441" lon="5.9234">
        <ele>2489.3</ele>
        <time>2015-11-15T13:52:43Z</time>
      </trkpt>
      <trkpt lat="44.62426" lon="5.92341">
        <ele>2502.3</ele>
        <time>2015-11-15T13:52:50Z</time>
      </trkpt>
      <trkpt lat="44.62413" lon="5.92343">
        <ele>2515.3</ele>
        <time>2015-11-15T13:52:56Z</time>
      </trkpt>
      <trkpt lat="44.62402" lon="5.92345">
        <ele>2524.3</ele>
        <time>2015-11-15T13:53:00Z</time>
      </trkpt>
      <trkpt lat="44.62393" lon="5.92349">
        <ele>2532.3</ele>
        <time>2015-11-15T13:53:06Z</time>
      </trkpt>
      <trkpt lat="44.62402" lon="5.92349">
        <ele>2525.3</ele>
        <time>2015-11-15T13:57:12Z</time>
      </trkpt>
      <trkpt lat="44.62411" lon="5.92348">
        <ele>2516.3</ele>
        <time>2015-11-15T13:58:56Z</time>
      </trkpt>
      <trkpt lat="44.6242" lon="5.92348">
        <ele>2508.3</ele>
        <time>2015-11-15T14:00:49Z</time>
      </trkpt>
      <trkpt lat="44.62429" lon="5.92347">
        <ele>2499.3</ele>
        <time>2015-11-15T14:03:58Z</time>
      </trkpt>
      <trkpt lat="44.62441" lon="5.92346">
        <ele>2491.3</ele>
        <time>2015-11-15T14:18:38Z</time>
      </trkpt>
      <trkpt lat="44.6245" lon="5.92344">
        <ele>2485.3</ele>
        <time>2015-11-15T14:20:11Z</time>
      </trkpt>
      <trkpt lat="44.62449" lon="5.92331">
        <ele>2475.3</ele>
        <time>2015-11-15T14:21:48Z</time>
      </trkpt>
      <trkpt lat="44.6244" lon="5.92332">
        <ele>2479.3</ele>
        <time>2015-11-15T14:24:52Z</time>
      </trkpt>
      <trkpt lat="44.62437" lon="5.92344">
        <ele>2476.3</ele>
        <time>2015-11-15T14:26:12Z</time>
      </trkpt>
      <trkpt lat="44.62436" lon="5.92331">
        <ele>2467.3</ele>
        <time>2015-11-15T14:26:42Z</time>
      </trkpt>
      <trkpt lat="44.62432" lon="5.92319">
        <ele>2463.3</ele>
        <time>2015-11-15T14:26:51Z</time>
      </trkpt>
      <trkpt lat="44.62425" lon="5.92311">
        <ele>2458.3</ele>
        <time>2015-11-15T14:27:08Z</time>
      </trkpt>
      <trkpt lat="44.6242" lon="5.92298">
        <ele>2453.3</ele>
        <time>2015-11-15T14:27:23Z</time>
      </trkpt>
      <trkpt lat="44.62412" lon="5.92293">
        <ele>2448.3</ele>
        <time>2015-11-15T14:27:40Z</time>
      </trkpt>
      <trkpt lat="44.62414" lon="5.92281">
        <ele>2444.3</ele>
        <time>2015-11-15T14:28:00Z</time>
      </trkpt>
      <trkpt lat="44.62409" lon="5.92269">
        <ele>2440.3</ele>
        <time>2015-11-15T14:28:13Z</time>
      </trkpt>
      <trkpt lat="44.62408" lon="5.92256">
        <ele>2436.3</ele>
        <time>2015-11-15T14:28:27Z</time>
      </trkpt>
      <trkpt lat="44.62404" lon="5.92243">
        <ele>2431.3</ele>
        <time>2015-11-15T14:28:48Z</time>
      </trkpt>
      <trkpt lat="44.62395" lon="5.92223">
        <ele>2426.3</ele>
        <time>2015-11-15T14:29:20Z</time>
      </trkpt>
      <trkpt lat="44.62404" lon="5.92215">
        <ele>2419.3</ele>
        <time>2015-11-15T14:29:28Z</time>
      </trkpt>
      <trkpt lat="44.62402" lon="5.92201">
        <ele>2413.3</ele>
        <time>2015-11-15T14:29:48Z</time>
      </trkpt>
      <trkpt lat="44.62395" lon="5.92191">
        <ele>2419.3</ele>
        <time>2015-11-15T14:30:10Z</time>
      </trkpt>
      <trkpt lat="44.62385" lon="5.92185">
        <ele>2422.3</ele>
        <time>2015-11-15T14:30:23Z</time>
      </trkpt>
      <trkpt lat="44.62388" lon="5.92172">
        <ele>2401.3</ele>
        <time>2015-11-15T14:31:29Z</time>
      </trkpt>
      <trkpt lat="44.62383" lon="5.9216">
        <ele>2405.3</ele>
        <time>2015-11-15T14:31:35Z</time>
      </trkpt>
      <trkpt lat="44.62385" lon="5.92147">
        <ele>2397.3</ele>
        <time>2015-11-15T14:32:03Z</time>
      </trkpt>
      <trkpt lat="44.6239" lon="5.92132">
        <ele>2379.3</ele>
        <time>2015-11-15T14:32:28Z</time>
      </trkpt>
      <trkpt lat="44.62392" lon="5.9212">
        <ele>2368.3</ele>
        <time>2015-11-15T14:32:41Z</time>
      </trkpt>
      <trkpt lat="44.62395" lon="5.92108">
        <ele>2353.3</ele>
        <time>2015-11-15T14:33:06Z</time>
      </trkpt>
      <trkpt lat="44.62384" lon="5.921">
        <ele>2358.3</ele>
        <time>2015-11-15T14:33:22Z</time>
      </trkpt>
      <trkpt lat="44.62374" lon="5.92108">
        <ele>2353.3</ele>
        <time>2015-11-15T14:33:34Z</time>
      </trkpt>
      <trkpt lat="44.62364" lon="5.92112">
        <ele>2352.3</ele>
        <time>2015-11-15T14:33:44Z</time>
      </trkpt>
      <trkpt lat="44.62355" lon="5.92113">
        <ele>2348.3</ele>
        <time>2015-11-15T14:33:52Z</time>
      </trkpt>
      <trkpt lat="44.62349" lon="5.92104">
        <ele>2343.3</ele>
        <time>2015-11-15T14:34:01Z</time>
      </trkpt>
      <trkpt lat="44.62344" lon="5.92092">
        <ele>2340.3</ele>
        <time>2015-11-15T14:34:07Z</time>
      </trkpt>
      <trkpt lat="44.62336" lon="5.92084">
        <ele>2338.3</ele>
        <time>2015-11-15T14:34:16Z</time>
      </trkpt>
      <trkpt lat="44.62331" lon="5.92073">
        <ele>2330.3</ele>
        <time>2015-11-15T14:34:24Z</time>
      </trkpt>
      <trkpt lat="44.62323" lon="5.92065">
        <ele>2323.3</ele>
        <time>2015-11-15T14:34:34Z</time>
      </trkpt>
      <trkpt lat="44.62314" lon="5.92063">
        <ele>2313.3</ele>
        <time>2015-11-15T14:34:44Z</time>
      </trkpt>
      <trkpt lat="44.62304" lon="5.92064">
        <ele>2308.3</ele>
        <time>2015-11-15T14:34:53Z</time>
      </trkpt>
      <trkpt lat="44.62294" lon="5.92067">
        <ele>2300.3</ele>
        <time>2015-11-15T14:35:13Z</time>
      </trkpt>
      <trkpt lat="44.62287" lon="5.92077">
        <ele>2293.3</ele>
        <time>2015-11-15T14:35:26Z</time>
      </trkpt>
      <trkpt lat="44.62278" lon="5.92078">
        <ele>2291.3</ele>
        <time>2015-11-15T14:35:33Z</time>
      </trkpt>
      <trkpt lat="44.62268" lon="5.92079">
        <ele>2287.3</ele>
        <time>2015-11-15T14:35:43Z</time>
      </trkpt>
      <trkpt lat="44.62259" lon="5.92081">
        <ele>2285.3</ele>
        <time>2015-11-15T14:35:51Z</time>
      </trkpt>
      <trkpt lat="44.62249" lon="5.92082">
        <ele>2280.3</ele>
        <time>2015-11-15T14:36:05Z</time>
      </trkpt>
      <trkpt lat="44.6224" lon="5.92084">
        <ele>2274.3</ele>
        <time>2015-11-15T14:36:23Z</time>
      </trkpt>
      <trkpt lat="44.62232" lon="5.92091">
        <ele>2272.3</ele>
        <time>2015-11-15T14:36:30Z</time>
      </trkpt>
      <trkpt lat="44.62223" lon="5.921">
        <ele>2268.3</ele>
        <time>2015-11-15T14:36:42Z</time>
      </trkpt>
      <trkpt lat="44.62215" lon="5.92105">
        <ele>2265.3</ele>
        <time>2015-11-15T14:36:56Z</time>
      </trkpt>
      <trkpt lat="44.62205" lon="5.92112">
        <ele>2260.3</ele>
        <time>2015-11-15T14:37:11Z</time>
      </trkpt>
      <trkpt lat="44.62194" lon="5.9212">
        <ele>2260.3</ele>
        <time>2015-11-15T14:37:20Z</time>
      </trkpt>
      <trkpt lat="44.62186" lon="5.92127">
        <ele>2257.3</ele>
        <time>2015-11-15T14:37:30Z</time>
      </trkpt>
      <trkpt lat="44.62176" lon="5.92132">
        <ele>2255.3</ele>
        <time>2015-11-15T14:37:40Z</time>
      </trkpt>
      <trkpt lat="44.62164" lon="5.92131">
        <ele>2255.3</ele>
        <time>2015-11-15T14:37:48Z</time>
      </trkpt>
      <trkpt lat="44.62155" lon="5.92124">
        <ele>2255.3</ele>
        <time>2015-11-15T14:37:54Z</time>
      </trkpt>
      <trkpt lat="44.62147" lon="5.9212">
        <ele>2255.3</ele>
        <time>2015-11-15T14:38:00Z</time>
      </trkpt>
      <trkpt lat="44.62135" lon="5.92109">
        <ele>2254.3</ele>
        <time>2015-11-15T14:38:09Z</time>
      </trkpt>
      <trkpt lat="44.62126" lon="5.92108">
        <ele>2250.3</ele>
        <time>2015-11-15T14:38:17Z</time>
      </trkpt>
      <trkpt lat="44.62118" lon="5.92112">
        <ele>2246.3</ele>
        <time>2015-11-15T14:38:24Z</time>
      </trkpt>
      <trkpt lat="44.62108" lon="5.92113">
        <ele>2247.3</ele>
        <time>2015-11-15T14:38:33Z</time>
      </trkpt>
      <trkpt lat="44.62099" lon="5.92119">
        <ele>2249.3</ele>
        <time>2015-11-15T14:38:40Z</time>
      </trkpt>
      <trkpt lat="44.62089" lon="5.9212">
        <ele>2250.3</ele>
        <time>2015-11-15T14:38:50Z</time>
      </trkpt>
      <trkpt lat="44.6208" lon="5.92118">
        <ele>2249.3</ele>
        <time>2015-11-15T14:38:58Z</time>
      </trkpt>
      <trkpt lat="44.62071" lon="5.92117">
        <ele>2248.3</ele>
        <time>2015-11-15T14:40:38Z</time>
      </trkpt>
      <trkpt lat="44.62069" lon="5.92103">
        <ele>2245.3</ele>
        <time>2015-11-15T14:42:25Z</time>
      </trkpt>
      <trkpt lat="44.62066" lon="5.92091">
        <ele>2242.3</ele>
        <time>2015-11-15T14:42:35Z</time>
      </trkpt>
      <trkpt lat="44.62061" lon="5.92079">
        <ele>2245.3</ele>
        <time>2015-11-15T14:42:51Z</time>
      </trkpt>
      <trkpt lat="44.62056" lon="5.92067">
        <ele>2249.3</ele>
        <time>2015-11-15T14:43:32Z</time>
      </trkpt>
      <trkpt lat="44.62065" lon="5.92062">
        <ele>2247.3</ele>
        <time>2015-11-15T14:44:08Z</time>
      </trkpt>
      <trkpt lat="44.62073" lon="5.92071">
        <ele>2243.3</ele>
        <time>2015-11-15T14:44:19Z</time>
      </trkpt>
      <trkpt lat="44.62072" lon="5.92084">
        <ele>2242.3</ele>
        <time>2015-11-15T14:44:31Z</time>
      </trkpt>
      <trkpt lat="44.6207" lon="5.92096">
        <ele>2241.3</ele>
        <time>2015-11-15T14:44:48Z</time>
      </trkpt>
      <trkpt lat="44.6207" lon="5.92109">
        <ele>2239.3</ele>
        <time>2015-11-15T14:45:04Z</time>
      </trkpt>
      <trkpt lat="44.6208" lon="5.92112">
        <ele>2241.3</ele>
        <time>2015-11-15T14:45:13Z</time>
      </trkpt>
      <trkpt lat="44.62087" lon="5.92103">
        <ele>2242.3</ele>
        <time>2015-11-15T14:45:23Z</time>
      </trkpt>
      <trkpt lat="44.62096" lon="5.92095">
        <ele>2242.3</ele>
        <time>2015-11-15T14:45:32Z</time>
      </trkpt>
      <trkpt lat="44.62104" lon="5.92088">
        <ele>2243.3</ele>
        <time>2015-11-15T14:45:42Z</time>
      </trkpt>
      <trkpt lat="44.62109" lon="5.92076">
        <ele>2235.3</ele>
        <time>2015-11-15T14:45:50Z</time>
      </trkpt>
      <trkpt lat="44.62108" lon="5.92063">
        <ele>2231.3</ele>
        <time>2015-11-15T14:45:56Z</time>
      </trkpt>
      <trkpt lat="44.6211" lon="5.9205">
        <ele>2227.3</ele>
        <time>2015-11-15T14:46:06Z</time>
      </trkpt>
      <trkpt lat="44.62104" lon="5.9204">
        <ele>2230.3</ele>
        <time>2015-11-15T14:46:18Z</time>
      </trkpt>
      <trkpt lat="44.62098" lon="5.9203">
        <ele>2232.3</ele>
        <time>2015-11-15T14:46:27Z</time>
      </trkpt>
      <trkpt lat="44.62089" lon="5.92028">
        <ele>2232.3</ele>
        <time>2015-11-15T14:46:37Z</time>
      </trkpt>
      <trkpt lat="44.6208" lon="5.92023">
        <ele>2229.3</ele>
        <time>2015-11-15T14:46:58Z</time>
      </trkpt>
      <trkpt lat="44.62071" lon="5.92019">
        <ele>2229.3</ele>
        <time>2015-11-15T14:47:08Z</time>
      </trkpt>
      <trkpt lat="44.62063" lon="5.92024">
        <ele>2227.3</ele>
        <time>2015-11-15T14:47:18Z</time>
      </trkpt>
      <trkpt lat="44.62064" lon="5.92037">
        <ele>2224.3</ele>
        <time>2015-11-15T14:47:29Z</time>
      </trkpt>
      <trkpt lat="44.62065" lon="5.9205">
        <ele>2216.3</ele>
        <time>2015-11-15T14:47:42Z</time>
      </trkpt>
      <trkpt lat="44.6206" lon="5.92062">
        <ele>2212.3</ele>
        <time>2015-11-15T14:47:55Z</time>
      </trkpt>
      <trkpt lat="44.62051" lon="5.92066">
        <ele>2211.3</ele>
        <time>2015-11-15T14:48:07Z</time>
      </trkpt>
      <trkpt lat="44.62042" lon="5.92072">
        <ele>2212.3</ele>
        <time>2015-11-15T14:48:18Z</time>
      </trkpt>
      <trkpt lat="44.62036" lon="5.9208">
        <ele>2209.3</ele>
        <time>2015-11-15T14:48:30Z</time>
      </trkpt>
      <trkpt lat="44.62031" lon="5.92069">
        <ele>2211.3</ele>
        <time>2015-11-15T14:49:10Z</time>
      </trkpt>
      <trkpt lat="44.62022" lon="5.92065">
        <ele>2206.3</ele>
        <time>2015-11-15T14:49:22Z</time>
      </trkpt>
      <trkpt lat="44.62013" lon="5.92062">
        <ele>2206.3</ele>
        <time>2015-11-15T14:49:34Z</time>
      </trkpt>
      <trkpt lat="44.62004" lon="5.92056">
        <ele>2205.3</ele>
        <time>2015-11-15T14:49:47Z</time>
      </trkpt>
      <trkpt lat="44.61994" lon="5.92055">
        <ele>2203.3</ele>
        <time>2015-11-15T14:49:54Z</time>
      </trkpt>
      <trkpt lat="44.61986" lon="5.9205">
        <ele>2199.3</ele>
        <time>2015-11-15T14:50:06Z</time>
      </trkpt>
      <trkpt lat="44.62" lon="5.92047">
        <ele>2202.3</ele>
        <time>2015-11-15T14:51:19Z</time>
      </trkpt>
      <trkpt lat="44.62008" lon="5.92041">
        <ele>2194.3</ele>
        <time>2015-11-15T14:51:29Z</time>
      </trkpt>
      <trkpt lat="44.62015" lon="5.92027">
        <ele>2190.3</ele>
        <time>2015-11-15T14:51:46Z</time>
      </trkpt>
      <trkpt lat="44.62023" lon="5.9202">
        <ele>2186.3</ele>
        <time>2015-11-15T14:52:02Z</time>
      </trkpt>
      <trkpt lat="44.62016" lon="5.92008">
        <ele>2185.3</ele>
        <time>2015-11-15T14:52:16Z</time>
      </trkpt>
      <trkpt lat="44.62005" lon="5.92016">
        <ele>2185.3</ele>
        <time>2015-11-15T14:52:20Z</time>
      </trkpt>
      <trkpt lat="44.62015" lon="5.92011">
        <ele>2169.3</ele>
        <time>2015-11-15T14:52:40Z</time>
      </trkpt>
      <trkpt lat="44.62007" lon="5.92003">
        <ele>2158.3</ele>
        <time>2015-11-15T14:53:10Z</time>
      </trkpt>
      <trkpt lat="44.61995" lon="5.92007">
        <ele>2144.3</ele>
        <time>2015-11-15T14:53:33Z</time>
      </trkpt>
      <trkpt lat="44.61985" lon="5.92007">
        <ele>2143.3</ele>
        <time>2015-11-15T14:53:44Z</time>
      </trkpt>
      <trkpt lat="44.61975" lon="5.92008">
        <ele>2140.3</ele>
        <time>2015-11-15T14:53:55Z</time>
      </trkpt>
      <trkpt lat="44.61966" lon="5.92011">
        <ele>2138.3</ele>
        <time>2015-11-15T14:54:05Z</time>
      </trkpt>
      <trkpt lat="44.61958" lon="5.92015">
        <ele>2135.3</ele>
        <time>2015-11-15T14:54:15Z</time>
      </trkpt>
      <trkpt lat="44.61948" lon="5.92015">
        <ele>2134.3</ele>
        <time>2015-11-15T14:54:30Z</time>
      </trkpt>
      <trkpt lat="44.61941" lon="5.92006">
        <ele>2135.3</ele>
        <time>2015-11-15T14:54:42Z</time>
      </trkpt>
      <trkpt lat="44.6193" lon="5.92">
        <ele>2126.3</ele>
        <time>2015-11-15T14:55:37Z</time>
      </trkpt>
      <trkpt lat="44.61921" lon="5.91995">
        <ele>2126.3</ele>
        <time>2015-11-15T14:56:00Z</time>
      </trkpt>
      <trkpt lat="44.61913" lon="5.91989">
        <ele>2119.3</ele>
        <time>2015-11-15T14:56:13Z</time>
      </trkpt>
      <trkpt lat="44.61907" lon="5.91979">
        <ele>2116.3</ele>
        <time>2015-11-15T14:56:39Z</time>
      </trkpt>
      <trkpt lat="44.619" lon="5.91971">
        <ele>2113.3</ele>
        <time>2015-11-15T14:56:52Z</time>
      </trkpt>
      <trkpt lat="44.6189" lon="5.91969">
        <ele>2104.3</ele>
        <time>2015-11-15T14:57:14Z</time>
      </trkpt>
      <trkpt lat="44.61882" lon="5.91961">
        <ele>2101.3</ele>
        <time>2015-11-15T14:57:27Z</time>
      </trkpt>
      <trkpt lat="44.61873" lon="5.91961">
        <ele>2094.3</ele>
        <time>2015-11-15T14:57:40Z</time>
      </trkpt>
      <trkpt lat="44.61864" lon="5.91955">
        <ele>2090.3</ele>
        <time>2015-11-15T14:57:57Z</time>
      </trkpt>
      <trkpt lat="44.61856" lon="5.91947">
        <ele>2086.3</ele>
        <time>2015-11-15T14:58:16Z</time>
      </trkpt>
      <trkpt lat="44.61863" lon="5.91939">
        <ele>2076.3</ele>
        <time>2015-11-15T14:59:53Z</time>
      </trkpt>
      <trkpt lat="44.61855" lon="5.91931">
        <ele>2077.3</ele>
        <time>2015-11-15T15:00:08Z</time>
      </trkpt>
      <trkpt lat="44.61849" lon="5.91921">
        <ele>2074.3</ele>
        <time>2015-11-15T15:00:22Z</time>
      </trkpt>
      <trkpt lat="44.61841" lon="5.91914">
        <ele>2067.3</ele>
        <time>2015-11-15T15:00:37Z</time>
      </trkpt>
      <trkpt lat="44.61831" lon="5.91914">
        <ele>2063.3</ele>
        <time>2015-11-15T15:00:54Z</time>
      </trkpt>
      <trkpt lat="44.6183" lon="5.91901">
        <ele>2053.3</ele>
        <time>2015-11-15T15:01:32Z</time>
      </trkpt>
      <trkpt lat="44.61821" lon="5.91897">
        <ele>2043.3</ele>
        <time>2015-11-15T15:02:19Z</time>
      </trkpt>
      <trkpt lat="44.61813" lon="5.91889">
        <ele>2040.3</ele>
        <time>2015-11-15T15:02:34Z</time>
      </trkpt>
      <trkpt lat="44.61805" lon="5.91884">
        <ele>2034.3</ele>
        <time>2015-11-15T15:02:57Z</time>
      </trkpt>
      <trkpt lat="44.61797" lon="5.91877">
        <ele>2035.3</ele>
        <time>2015-11-15T15:03:05Z</time>
      </trkpt>
      <trkpt lat="44.6179" lon="5.91868">
        <ele>2035.3</ele>
        <time>2015-11-15T15:03:16Z</time>
      </trkpt>
      <trkpt lat="44.61782" lon="5.91875">
        <ele>2029.3</ele>
        <time>2015-11-15T15:03:31Z</time>
      </trkpt>
      <trkpt lat="44.61777" lon="5.91864">
        <ele>2026.3</ele>
        <time>2015-11-15T15:03:47Z</time>
      </trkpt>
      <trkpt lat="44.61768" lon="5.91862">
        <ele>2019.3</ele>
        <time>2015-11-15T15:03:59Z</time>
      </trkpt>
      <trkpt lat="44.61763" lon="5.9185">
        <ele>2019.3</ele>
        <time>2015-11-15T15:04:11Z</time>
      </trkpt>
      <trkpt lat="44.61756" lon="5.91843">
        <ele>2016.3</ele>
        <time>2015-11-15T15:04:17Z</time>
      </trkpt>
      <trkpt lat="44.61747" lon="5.9184">
        <ele>2011.3</ele>
        <time>2015-11-15T15:04:32Z</time>
      </trkpt>
      <trkpt lat="44.6174" lon="5.91831">
        <ele>2007.3</ele>
        <time>2015-11-15T15:04:43Z</time>
      </trkpt>
      <trkpt lat="44.61733" lon="5.91822">
        <ele>2008.3</ele>
        <time>2015-11-15T15:06:05Z</time>
      </trkpt>
      <trkpt lat="44.61742" lon="5.91819">
        <ele>2005.3</ele>
        <time>2015-11-15T15:06:19Z</time>
      </trkpt>
      <trkpt lat="44.61753" lon="5.91816">
        <ele>2003.3</ele>
        <time>2015-11-15T15:06:29Z</time>
      </trkpt>
      <trkpt lat="44.61762" lon="5.91811">
        <ele>2004.3</ele>
        <time>2015-11-15T15:06:43Z</time>
      </trkpt>
      <trkpt lat="44.61773" lon="5.91809">
        <ele>1998.3</ele>
        <time>2015-11-15T15:06:55Z</time>
      </trkpt>
      <trkpt lat="44.61781" lon="5.91802">
        <ele>1996.3</ele>
        <time>2015-11-15T15:07:04Z</time>
      </trkpt>
      <trkpt lat="44.61791" lon="5.91796">
        <ele>1992.3</ele>
        <time>2015-11-15T15:07:18Z</time>
      </trkpt>
      <trkpt lat="44.618" lon="5.91793">
        <ele>1989.3</ele>
        <time>2015-11-15T15:07:30Z</time>
      </trkpt>
      <trkpt lat="44.61808" lon="5.91786">
        <ele>1984.3</ele>
        <time>2015-11-15T15:07:44Z</time>
      </trkpt>
      <trkpt lat="44.61818" lon="5.91781">
        <ele>1985.3</ele>
        <time>2015-11-15T15:07:54Z</time>
      </trkpt>
      <trkpt lat="44.61827" lon="5.91771">
        <ele>1984.3</ele>
        <time>2015-11-15T15:08:06Z</time>
      </trkpt>
      <trkpt lat="44.61835" lon="5.91765">
        <ele>1975.3</ele>
        <time>2015-11-15T15:08:24Z</time>
      </trkpt>
      <trkpt lat="44.61845" lon="5.91764">
        <ele>1969.3</ele>
        <time>2015-11-15T15:08:33Z</time>
      </trkpt>
      <trkpt lat="44.61855" lon="5.91759">
        <ele>1968.3</ele>
        <time>2015-11-15T15:08:49Z</time>
      </trkpt>
      <trkpt lat="44.61862" lon="5.91752">
        <ele>1963.3</ele>
        <time>2015-11-15T15:09:16Z</time>
      </trkpt>
      <trkpt lat="44.61872" lon="5.91751">
        <ele>1959.3</ele>
        <time>2015-11-15T15:09:28Z</time>
      </trkpt>
      <trkpt lat="44.61881" lon="5.91748">
        <ele>1957.3</ele>
        <time>2015-11-15T15:09:37Z</time>
      </trkpt>
      <trkpt lat="44.6189" lon="5.91743">
        <ele>1956.3</ele>
        <time>2015-11-15T15:09:47Z</time>
      </trkpt>
      <trkpt lat="44.619" lon="5.91739">
        <ele>1950.3</ele>
        <time>2015-11-15T15:10:01Z</time>
      </trkpt>
      <trkpt lat="44.6191" lon="5.91737">
        <ele>1948.3</ele>
        <time>2015-11-15T15:10:13Z</time>
      </trkpt>
      <trkpt lat="44.61914" lon="5.91725">
        <ele>1943.3</ele>
        <time>2015-11-15T15:10:56Z</time>
      </trkpt>
      <trkpt lat="44.61923" lon="5.91724">
        <ele>1938.3</ele>
        <time>2015-11-15T15:11:16Z</time>
      </trkpt>
      <trkpt lat="44.61928" lon="5.91713">
        <ele>1937.3</ele>
        <time>2015-11-15T15:11:28Z</time>
      </trkpt>
      <trkpt lat="44.61943" lon="5.91704">
        <ele>1935.3</ele>
        <time>2015-11-15T15:11:49Z</time>
      </trkpt>
      <trkpt lat="44.61951" lon="5.91696">
        <ele>1931.3</ele>
        <time>2015-11-15T15:12:02Z</time>
      </trkpt>
      <trkpt lat="44.6196" lon="5.91695">
        <ele>1929.3</ele>
        <time>2015-11-15T15:12:15Z</time>
      </trkpt>
      <trkpt lat="44.6197" lon="5.91689">
        <ele>1931.3</ele>
        <time>2015-11-15T15:12:25Z</time>
      </trkpt>
      <trkpt lat="44.6198" lon="5.91681">
        <ele>1928.3</ele>
        <time>2015-11-15T15:12:38Z</time>
      </trkpt>
      <trkpt lat="44.61986" lon="5.91671">
        <ele>1927.3</ele>
        <time>2015-11-15T15:12:48Z</time>
      </trkpt>
      <trkpt lat="44.61995" lon="5.91666">
        <ele>1926.3</ele>
        <time>2015-11-15T15:13:01Z</time>
      </trkpt>
      <trkpt lat="44.62005" lon="5.91662">
        <ele>1923.3</ele>
        <time>2015-11-15T15:13:10Z</time>
      </trkpt>
      <trkpt lat="44.62014" lon="5.9166">
        <ele>1919.3</ele>
        <time>2015-11-15T15:13:19Z</time>
      </trkpt>
      <trkpt lat="44.62021" lon="5.91651">
        <ele>1916.3</ele>
        <time>2015-11-15T15:13:28Z</time>
      </trkpt>
      <trkpt lat="44.62029" lon="5.91644">
        <ele>1917.3</ele>
        <time>2015-11-15T15:13:39Z</time>
      </trkpt>
      <trkpt lat="44.62034" lon="5.91632">
        <ele>1919.3</ele>
        <time>2015-11-15T15:13:49Z</time>
      </trkpt>
      <trkpt lat="44.6204" lon="5.91622">
        <ele>1914.3</ele>
        <time>2015-11-15T15:14:26Z</time>
      </trkpt>
      <trkpt lat="44.62037" lon="5.91608">
        <ele>1913.3</ele>
        <time>2015-11-15T15:14:38Z</time>
      </trkpt>
      <trkpt lat="44.62033" lon="5.91587">
        <ele>1913.3</ele>
        <time>2015-11-15T15:15:01Z</time>
      </trkpt>
      <trkpt lat="44.62035" lon="5.91574">
        <ele>1910.3</ele>
        <time>2015-11-15T15:15:17Z</time>
      </trkpt>
      <trkpt lat="44.62026" lon="5.91572">
        <ele>1904.3</ele>
        <time>2015-11-15T15:15:29Z</time>
      </trkpt>
      <trkpt lat="44.62019" lon="5.91563">
        <ele>1894.3</ele>
        <time>2015-11-15T15:15:50Z</time>
      </trkpt>
      <trkpt lat="44.62019" lon="5.91549">
        <ele>1890.3</ele>
        <time>2015-11-15T15:16:02Z</time>
      </trkpt>
      <trkpt lat="44.62011" lon="5.91539">
        <ele>1880.3</ele>
        <time>2015-11-15T15:16:15Z</time>
      </trkpt>
      <trkpt lat="44.62004" lon="5.9153">
        <ele>1877.3</ele>
        <time>2015-11-15T15:16:26Z</time>
      </trkpt>
      <trkpt lat="44.61998" lon="5.91521">
        <ele>1870.3</ele>
        <time>2015-11-15T15:16:46Z</time>
      </trkpt>
      <trkpt lat="44.61998" lon="5.91508">
        <ele>1865.3</ele>
        <time>2015-11-15T15:17:00Z</time>
      </trkpt>
      <trkpt lat="44.61994" lon="5.91497">
        <ele>1861.3</ele>
        <time>2015-11-15T15:17:17Z</time>
      </trkpt>
      <trkpt lat="44.61986" lon="5.91491">
        <ele>1858.3</ele>
        <time>2015-11-15T15:17:30Z</time>
      </trkpt>
      <trkpt lat="44.61977" lon="5.91486">
        <ele>1856.3</ele>
        <time>2015-11-15T15:17:57Z</time>
      </trkpt>
      <trkpt lat="44.61974" lon="5.91474">
        <ele>1852.3</ele>
        <time>2015-11-15T15:18:12Z</time>
      </trkpt>
      <trkpt lat="44.61968" lon="5.91463">
        <ele>1848.3</ele>
        <time>2015-11-15T15:18:23Z</time>
      </trkpt>
      <trkpt lat="44.61963" lon="5.91451">
        <ele>1844.3</ele>
        <time>2015-11-15T15:18:43Z</time>
      </trkpt>
      <trkpt lat="44.61961" lon="5.91438">
        <ele>1845.3</ele>
        <time>2015-11-15T15:18:58Z</time>
      </trkpt>
      <trkpt lat="44.61949" lon="5.91419">
        <ele>1835.3</ele>
        <time>2015-11-15T15:19:16Z</time>
      </trkpt>
      <trkpt lat="44.61947" lon="5.91406">
        <ele>1832.3</ele>
        <time>2015-11-15T15:19:33Z</time>
      </trkpt>
      <trkpt lat="44.61944" lon="5.91394">
        <ele>1832.3</ele>
        <time>2015-11-15T15:19:42Z</time>
      </trkpt>
      <trkpt lat="44.61946" lon="5.9138">
        <ele>1831.3</ele>
        <time>2015-11-15T15:19:52Z</time>
      </trkpt>
      <trkpt lat="44.61947" lon="5.91367">
        <ele>1825.3</ele>
        <time>2015-11-15T15:20:06Z</time>
      </trkpt>
      <trkpt lat="44.61946" lon="5.91354">
        <ele>1823.3</ele>
        <time>2015-11-15T15:20:18Z</time>
      </trkpt>
      <trkpt lat="44.6194" lon="5.91344">
        <ele>1819.3</ele>
        <time>2015-11-15T15:20:32Z</time>
      </trkpt>
      <trkpt lat="44.61938" lon="5.91332">
        <ele>1818.3</ele>
        <time>2015-11-15T15:20:48Z</time>
      </trkpt>
      <trkpt lat="44.61935" lon="5.91318">
        <ele>1819.3</ele>
        <time>2015-11-15T15:21:05Z</time>
      </trkpt>
      <trkpt lat="44.61932" lon="5.91305">
        <ele>1820.3</ele>
        <time>2015-11-15T15:21:25Z</time>
      </trkpt>
      <trkpt lat="44.61933" lon="5.91292">
        <ele>1818.3</ele>
        <time>2015-11-15T15:21:36Z</time>
      </trkpt>
      <trkpt lat="44.61936" lon="5.91275">
        <ele>1816.3</ele>
        <time>2015-11-15T15:21:55Z</time>
      </trkpt>
      <trkpt lat="44.61933" lon="5.91263">
        <ele>1818.3</ele>
        <time>2015-11-15T15:22:41Z</time>
      </trkpt>
      <trkpt lat="44.61931" lon="5.91251">
        <ele>1815.3</ele>
        <time>2015-11-15T15:22:55Z</time>
      </trkpt>
      <trkpt lat="44.61931" lon="5.91238">
        <ele>1815.3</ele>
        <time>2015-11-15T15:23:05Z</time>
      </trkpt>
      <trkpt lat="44.61931" lon="5.91225">
        <ele>1814.3</ele>
        <time>2015-11-15T15:23:17Z</time>
      </trkpt>
      <trkpt lat="44.61934" lon="5.91212">
        <ele>1804.3</ele>
        <time>2015-11-15T15:23:33Z</time>
      </trkpt>
      <trkpt lat="44.61931" lon="5.912">
        <ele>1806.3</ele>
        <time>2015-11-15T15:23:47Z</time>
      </trkpt>
      <trkpt lat="44.61928" lon="5.91186">
        <ele>1808.3</ele>
        <time>2015-11-15T15:24:04Z</time>
      </trkpt>
      <trkpt lat="44.61926" lon="5.91174">
        <ele>1809.3</ele>
        <time>2015-11-15T15:24:14Z</time>
      </trkpt>
      <trkpt lat="44.61926" lon="5.9116">
        <ele>1808.3</ele>
        <time>2015-11-15T15:24:23Z</time>
      </trkpt>
      <trkpt lat="44.61923" lon="5.91146">
        <ele>1807.3</ele>
        <time>2015-11-15T15:24:33Z</time>
      </trkpt>
      <trkpt lat="44.6192" lon="5.91134">
        <ele>1804.3</ele>
        <time>2015-11-15T15:24:45Z</time>
      </trkpt>
      <trkpt lat="44.61921" lon="5.91121">
        <ele>1802.3</ele>
        <time>2015-11-15T15:24:56Z</time>
      </trkpt>
      <trkpt lat="44.61917" lon="5.91108">
        <ele>1806.3</ele>
        <time>2015-11-15T15:25:07Z</time>
      </trkpt>
      <trkpt lat="44.61913" lon="5.91096">
        <ele>1804.3</ele>
        <time>2015-11-15T15:25:16Z</time>
      </trkpt>
      <trkpt lat="44.61909" lon="5.91084">
        <ele>1804.3</ele>
        <time>2015-11-15T15:25:26Z</time>
      </trkpt>
      <trkpt lat="44.61908" lon="5.91071">
        <ele>1809.3</ele>
        <time>2015-11-15T15:25:34Z</time>
      </trkpt>
      <trkpt lat="44.61906" lon="5.91058">
        <ele>1810.3</ele>
        <time>2015-11-15T15:25:47Z</time>
      </trkpt>
      <trkpt lat="44.61904" lon="5.91045">
        <ele>1811.3</ele>
        <time>2015-11-15T15:25:56Z</time>
      </trkpt>
      <trkpt lat="44.61903" lon="5.91032">
        <ele>1811.3</ele>
        <time>2015-11-15T15:26:08Z</time>
      </trkpt>
      <trkpt lat="44.61899" lon="5.91019">
        <ele>1813.3</ele>
        <time>2015-11-15T15:26:16Z</time>
      </trkpt>
      <trkpt lat="44.61898" lon="5.91006">
        <ele>1814.3</ele>
        <time>2015-11-15T15:26:30Z</time>
      </trkpt>
      <trkpt lat="44.61903" lon="5.90996">
        <ele>1815.3</ele>
        <time>2015-11-15T15:26:44Z</time>
      </trkpt>
      <trkpt lat="44.61906" lon="5.90982">
        <ele>1820.3</ele>
        <time>2015-11-15T15:28:06Z</time>
      </trkpt>
      <trkpt lat="44.61916" lon="5.90978">
        <ele>1822.3</ele>
        <time>2015-11-15T15:28:19Z</time>
      </trkpt>
      <trkpt lat="44.61924" lon="5.90971">
        <ele>1823.3</ele>
        <time>2015-11-15T15:28:29Z</time>
      </trkpt>
      <trkpt lat="44.61932" lon="5.90962">
        <ele>1824.3</ele>
        <time>2015-11-15T15:28:37Z</time>
      </trkpt>
      <trkpt lat="44.61939" lon="5.90955">
        <ele>1824.3</ele>
        <time>2015-11-15T15:28:45Z</time>
      </trkpt>
      <trkpt lat="44.61948" lon="5.90947">
        <ele>1823.3</ele>
        <time>2015-11-15T15:28:53Z</time>
      </trkpt>
      <trkpt lat="44.61955" lon="5.90938">
        <ele>1823.3</ele>
        <time>2015-11-15T15:29:03Z</time>
      </trkpt>
      <trkpt lat="44.61963" lon="5.9093">
        <ele>1822.3</ele>
        <time>2015-11-15T15:29:13Z</time>
      </trkpt>
      <trkpt lat="44.61969" lon="5.90919">
        <ele>1824.3</ele>
        <time>2015-11-15T15:29:27Z</time>
      </trkpt>
      <trkpt lat="44.61971" lon="5.90907">
        <ele>1827.3</ele>
        <time>2015-11-15T15:29:36Z</time>
      </trkpt>
      <trkpt lat="44.61975" lon="5.90895">
        <ele>1831.3</ele>
        <time>2015-11-15T15:29:49Z</time>
      </trkpt>
      <trkpt lat="44.61981" lon="5.90885">
        <ele>1836.3</ele>
        <time>2015-11-15T15:30:00Z</time>
      </trkpt>
      <trkpt lat="44.6199" lon="5.90878">
        <ele>1834.3</ele>
        <time>2015-11-15T15:30:14Z</time>
      </trkpt>
      <trkpt lat="44.61996" lon="5.90868">
        <ele>1846.3</ele>
        <time>2015-11-15T15:30:33Z</time>
      </trkpt>
      <trkpt lat="44.62" lon="5.90858">
        <ele>1855.3</ele>
        <time>2015-11-15T15:30:54Z</time>
      </trkpt>
      <trkpt lat="44.62003" lon="5.90845">
        <ele>1861.3</ele>
        <time>2015-11-15T15:31:07Z</time>
      </trkpt>
      <trkpt lat="44.62003" lon="5.90831">
        <ele>1863.3</ele>
        <time>2015-11-15T15:31:25Z</time>
      </trkpt>
      <trkpt lat="44.6201" lon="5.90821">
        <ele>1866.3</ele>
        <time>2015-11-15T15:31:44Z</time>
      </trkpt>
      <trkpt lat="44.62017" lon="5.9081">
        <ele>1865.3</ele>
        <time>2015-11-15T15:31:57Z</time>
      </trkpt>
      <trkpt lat="44.62015" lon="5.90796">
        <ele>1871.3</ele>
        <time>2015-11-15T15:32:14Z</time>
      </trkpt>
      <trkpt lat="44.6202" lon="5.90784">
        <ele>1872.3</ele>
        <time>2015-11-15T15:32:26Z</time>
      </trkpt>
      <trkpt lat="44.6202" lon="5.90771">
        <ele>1875.3</ele>
        <time>2015-11-15T15:32:40Z</time>
      </trkpt>
      <trkpt lat="44.62018" lon="5.90756">
        <ele>1879.3</ele>
        <time>2015-11-15T15:33:01Z</time>
      </trkpt>
      <trkpt lat="44.6201" lon="5.9075">
        <ele>1876.3</ele>
        <time>2015-11-15T15:33:11Z</time>
      </trkpt>
      <trkpt lat="44.62002" lon="5.90741">
        <ele>1873.3</ele>
        <time>2015-11-15T15:33:23Z</time>
      </trkpt>
      <trkpt lat="44.6199" lon="5.9073">
        <ele>1874.3</ele>
        <time>2015-11-15T15:33:38Z</time>
      </trkpt>
      <trkpt lat="44.61991" lon="5.90717">
        <ele>1874.3</ele>
        <time>2015-11-15T15:33:51Z</time>
      </trkpt>
      <trkpt lat="44.61998" lon="5.90709">
        <ele>1869.3</ele>
        <time>2015-11-15T15:34:07Z</time>
      </trkpt>
      <trkpt lat="44.62007" lon="5.90708">
        <ele>1867.3</ele>
        <time>2015-11-15T15:34:15Z</time>
      </trkpt>
      <trkpt lat="44.62016" lon="5.90703">
        <ele>1866.3</ele>
        <time>2015-11-15T15:34:35Z</time>
      </trkpt>
      <trkpt lat="44.62008" lon="5.90692">
        <ele>1881.3</ele>
        <time>2015-11-15T15:35:39Z</time>
      </trkpt>
      <trkpt lat="44.61998" lon="5.90683">
        <ele>1882.3</ele>
        <time>2015-11-15T15:35:48Z</time>
      </trkpt>
      <trkpt lat="44.6199" lon="5.90677">
        <ele>1890.3</ele>
        <time>2015-11-15T15:36:10Z</time>
      </trkpt>
      <trkpt lat="44.61988" lon="5.90665">
        <ele>1893.3</ele>
        <time>2015-11-15T15:39:04Z</time>
      </trkpt>
      <trkpt lat="44.61992" lon="5.90629">
        <ele>1901.3</ele>
        <time>2015-11-15T15:39:42Z</time>
      </trkpt>
      <trkpt lat="44.61993" lon="5.90611">
        <ele>1923.3</ele>
        <time>2015-11-15T15:40:20Z</time>
      </trkpt>
      <trkpt lat="44.62" lon="5.90603">
        <ele>1922.3</ele>
        <time>2015-11-15T15:40:25Z</time>
      </trkpt>
      <trkpt lat="44.62006" lon="5.90591">
        <ele>1921.3</ele>
        <time>2015-11-15T15:40:30Z</time>
      </trkpt>
      <trkpt lat="44.61999" lon="5.90583">
        <ele>1931.3</ele>
        <time>2015-11-15T15:41:53Z</time>
      </trkpt>
      <trkpt lat="44.61997" lon="5.90568">
        <ele>1934.3</ele>
        <time>2015-11-15T15:42:09Z</time>
      </trkpt>
      <trkpt lat="44.61988" lon="5.90565">
        <ele>1945.3</ele>
        <time>2015-11-15T15:42:25Z</time>
      </trkpt>
      <trkpt lat="44.61978" lon="5.90558">
        <ele>1949.3</ele>
        <time>2015-11-15T15:42:36Z</time>
      </trkpt>
      <trkpt lat="44.61969" lon="5.90555">
        <ele>1961.3</ele>
        <time>2015-11-15T15:42:58Z</time>
      </trkpt>
      <trkpt lat="44.61959" lon="5.90555">
        <ele>1969.3</ele>
        <time>2015-11-15T15:43:07Z</time>
      </trkpt>
      <trkpt lat="44.61952" lon="5.90549">
        <ele>1972.3</ele>
        <time>2015-11-15T15:43:19Z</time>
      </trkpt>
      <trkpt lat="44.61946" lon="5.90538">
        <ele>1975.3</ele>
        <time>2015-11-15T15:43:55Z</time>
      </trkpt>
      <trkpt lat="44.61939" lon="5.90529">
        <ele>1979.3</ele>
        <time>2015-11-15T15:44:11Z</time>
      </trkpt>
      <trkpt lat="44.61932" lon="5.9052">
        <ele>1974.3</ele>
        <time>2015-11-15T15:44:21Z</time>
      </trkpt>
      <trkpt lat="44.61924" lon="5.90516">
        <ele>1976.3</ele>
        <time>2015-11-15T15:44:33Z</time>
      </trkpt>
      <trkpt lat="44.61927" lon="5.90504">
        <ele>1985.3</ele>
        <time>2015-11-15T15:45:15Z</time>
      </trkpt>
      <trkpt lat="44.6192" lon="5.90494">
        <ele>1988.3</ele>
        <time>2015-11-15T15:45:54Z</time>
      </trkpt>
      <trkpt lat="44.61924" lon="5.90482">
        <ele>2002.3</ele>
        <time>2015-11-15T15:46:38Z</time>
      </trkpt>
      <trkpt lat="44.61934" lon="5.90485">
        <ele>1995.3</ele>
        <time>2015-11-15T15:47:00Z</time>
      </trkpt>
      <trkpt lat="44.61932" lon="5.90473">
        <ele>2011.3</ele>
        <time>2015-11-15T15:47:49Z</time>
      </trkpt>
      <trkpt lat="44.61936" lon="5.90461">
        <ele>2012.3</ele>
        <time>2015-11-15T15:48:31Z</time>
      </trkpt>
      <trkpt lat="44.61937" lon="5.90449">
        <ele>2015.3</ele>
        <time>2015-11-15T15:48:50Z</time>
      </trkpt>
      <trkpt lat="44.6193" lon="5.90441">
        <ele>2015.3</ele>
        <time>2015-11-15T15:49:18Z</time>
      </trkpt>
      <trkpt lat="44.61922" lon="5.90432">
        <ele>2023.3</ele>
        <time>2015-11-15T15:49:48Z</time>
      </trkpt>
      <trkpt lat="44.61913" lon="5.90428">
        <ele>2027.3</ele>
        <time>2015-11-15T15:50:02Z</time>
      </trkpt>
      <trkpt lat="44.61907" lon="5.90418">
        <ele>2034.3</ele>
        <time>2015-11-15T15:50:35Z</time>
      </trkpt>
      <trkpt lat="44.61898" lon="5.90412">
        <ele>2033.3</ele>
        <time>2015-11-15T15:50:51Z</time>
      </trkpt>
      <trkpt lat="44.6189" lon="5.90405">
        <ele>2036.3</ele>
        <time>2015-11-15T15:51:09Z</time>
      </trkpt>
      <trkpt lat="44.61882" lon="5.90397">
        <ele>2038.3</ele>
        <time>2015-11-15T15:51:24Z</time>
      </trkpt>
      <trkpt lat="44.61883" lon="5.90385">
        <ele>2038.3</ele>
        <time>2015-11-15T15:52:12Z</time>
      </trkpt>
      <trkpt lat="44.61882" lon="5.90372">
        <ele>2041.3</ele>
        <time>2015-11-15T15:52:32Z</time>
      </trkpt>
      <trkpt lat="44.61887" lon="5.9036">
        <ele>2045.3</ele>
        <time>2015-11-15T15:53:09Z</time>
      </trkpt>
      <trkpt lat="44.61893" lon="5.90371">
        <ele>2047.3</ele>
        <time>2015-11-15T15:53:30Z</time>
      </trkpt>
      <trkpt lat="44.61901" lon="5.90363">
        <ele>2046.3</ele>
        <time>2015-11-15T15:54:16Z</time>
      </trkpt>
      <trkpt lat="44.61903" lon="5.90351">
        <ele>2060.3</ele>
        <time>2015-11-15T15:55:11Z</time>
      </trkpt>
      <trkpt lat="44.61911" lon="5.90345">
        <ele>2068.3</ele>
        <time>2015-11-15T15:56:34Z</time>
      </trkpt>
      <trkpt lat="44.61917" lon="5.90334">
        <ele>2075.3</ele>
        <time>2015-11-15T15:57:30Z</time>
      </trkpt>
      <trkpt lat="44.6192" lon="5.90322">
        <ele>2078.3</ele>
        <time>2015-11-15T15:57:56Z</time>
      </trkpt>
      <trkpt lat="44.61922" lon="5.90309">
        <ele>2086.3</ele>
        <time>2015-11-15T15:58:43Z</time>
      </trkpt>
      <trkpt lat="44.6193" lon="5.90316">
        <ele>2096.3</ele>
        <time>2015-11-15T15:59:41Z</time>
      </trkpt>
      <trkpt lat="44.61937" lon="5.90324">
        <ele>2101.3</ele>
        <time>2015-11-15T16:00:05Z</time>
      </trkpt>
      <trkpt lat="44.61941" lon="5.9031">
        <ele>2103.3</ele>
        <time>2015-11-15T16:00:59Z</time>
      </trkpt>
      <trkpt lat="44.6194" lon="5.90297">
        <ele>2104.3</ele>
        <time>2015-11-15T16:01:24Z</time>
      </trkpt>
      <trkpt lat="44.61938" lon="5.90284">
        <ele>2106.3</ele>
        <time>2015-11-15T16:01:55Z</time>
      </trkpt>
      <trkpt lat="44.61945" lon="5.90293">
        <ele>2113.3</ele>
        <time>2015-11-15T16:02:27Z</time>
      </trkpt>
      <trkpt lat="44.61947" lon="5.9028">
        <ele>2119.3</ele>
        <time>2015-11-15T16:03:12Z</time>
      </trkpt>
      <trkpt lat="44.61946" lon="5.90267">
        <ele>2117.3</ele>
        <time>2015-11-15T16:03:32Z</time>
      </trkpt>
      <trkpt lat="44.61946" lon="5.90253">
        <ele>2115.3</ele>
        <time>2015-11-15T16:04:22Z</time>
      </trkpt>
      <trkpt lat="44.61944" lon="5.90241">
        <ele>2123.3</ele>
        <time>2015-11-15T16:05:29Z</time>
      </trkpt>
      <trkpt lat="44.61948" lon="5.90252">
        <ele>2125.3</ele>
        <time>2015-11-15T16:06:29Z</time>
      </trkpt>
      <trkpt lat="44.6194" lon="5.90245">
        <ele>2123.3</ele>
        <time>2015-11-15T16:06:54Z</time>
      </trkpt>
      <trkpt lat="44.61931" lon="5.90241">
        <ele>2111.3</ele>
        <time>2015-11-15T16:07:51Z</time>
      </trkpt>
      <trkpt lat="44.61922" lon="5.90243">
        <ele>2111.3</ele>
        <time>2015-11-15T16:08:14Z</time>
      </trkpt>
      <trkpt lat="44.61913" lon="5.90248">
        <ele>2101.3</ele>
        <time>2015-11-15T16:09:14Z</time>
      </trkpt>
      <trkpt lat="44.61917" lon="5.9026">
        <ele>2093.3</ele>
        <time>2015-11-15T16:09:36Z</time>
      </trkpt>
      <trkpt lat="44.61913" lon="5.90273">
        <ele>2087.3</ele>
        <time>2015-11-15T16:10:04Z</time>
      </trkpt>
      <trkpt lat="44.61913" lon="5.90286">
        <ele>2088.3</ele>
        <time>2015-11-15T16:10:25Z</time>
      </trkpt>
      <trkpt lat="44.61911" lon="5.90299">
        <ele>2087.3</ele>
        <time>2015-11-15T16:10:50Z</time>
      </trkpt>
      <trkpt lat="44.61913" lon="5.90312">
        <ele>2087.3</ele>
        <time>2015-11-15T16:11:12Z</time>
      </trkpt>
      <trkpt lat="44.61914" lon="5.90325">
        <ele>2085.3</ele>
        <time>2015-11-15T16:11:33Z</time>
      </trkpt>
      <trkpt lat="44.61913" lon="5.90338">
        <ele>2081.3</ele>
        <time>2015-11-15T16:12:00Z</time>
      </trkpt>
      <trkpt lat="44.61906" lon="5.90346">
        <ele>2079.3</ele>
        <time>2015-11-15T16:12:25Z</time>
      </trkpt>
      <trkpt lat="44.61901" lon="5.90357">
        <ele>2072.3</ele>
        <time>2015-11-15T16:13:00Z</time>
      </trkpt>
      <trkpt lat="44.61898" lon="5.9037">
        <ele>2063.3</ele>
        <time>2015-11-15T16:13:34Z</time>
      </trkpt>
      <trkpt lat="44.61898" lon="5.90383">
        <ele>2060.3</ele>
        <time>2015-11-15T16:13:57Z</time>
      </trkpt>
      <trkpt lat="44.61888" lon="5.90384">
        <ele>2057.3</ele>
        <time>2015-11-15T16:14:19Z</time>
      </trkpt>
      <trkpt lat="44.61884" lon="5.90397">
        <ele>2052.3</ele>
        <time>2015-11-15T16:14:38Z</time>
      </trkpt>
      <trkpt lat="44.61886" lon="5.9041">
        <ele>2047.3</ele>
        <time>2015-11-15T16:14:56Z</time>
      </trkpt>
      <trkpt lat="44.6188" lon="5.90421">
        <ele>2038.3</ele>
        <time>2015-11-15T16:15:22Z</time>
      </trkpt>
      <trkpt lat="44.61882" lon="5.90433">
        <ele>2037.3</ele>
        <time>2015-11-15T16:15:35Z</time>
      </trkpt>
      <trkpt lat="44.61874" lon="5.90439">
        <ele>2028.3</ele>
        <time>2015-11-15T16:16:05Z</time>
      </trkpt>
      <trkpt lat="44.6187" lon="5.90451">
        <ele>2023.3</ele>
        <time>2015-11-15T16:16:26Z</time>
      </trkpt>
      <trkpt lat="44.6187" lon="5.90465">
        <ele>2017.3</ele>
        <time>2015-11-15T16:16:41Z</time>
      </trkpt>
      <trkpt lat="44.61871" lon="5.90478">
        <ele>2016.3</ele>
        <time>2015-11-15T16:16:54Z</time>
      </trkpt>
      <trkpt lat="44.61878" lon="5.90486">
        <ele>2013.3</ele>
        <time>2015-11-15T16:17:13Z</time>
      </trkpt>
      <trkpt lat="44.61888" lon="5.90481">
        <ele>2015.3</ele>
        <time>2015-11-15T16:18:06Z</time>
      </trkpt>
      <trkpt lat="44.61897" lon="5.90478">
        <ele>2014.3</ele>
        <time>2015-11-15T16:18:19Z</time>
      </trkpt>
      <trkpt lat="44.61906" lon="5.90475">
        <ele>2012.3</ele>
        <time>2015-11-15T16:18:30Z</time>
      </trkpt>
      <trkpt lat="44.61914" lon="5.90481">
        <ele>2013.3</ele>
        <time>2015-11-15T16:18:49Z</time>
      </trkpt>
      <trkpt lat="44.61919" lon="5.90492">
        <ele>2000.3</ele>
        <time>2015-11-15T16:19:21Z</time>
      </trkpt>
      <trkpt lat="44.61923" lon="5.90504">
        <ele>1996.3</ele>
        <time>2015-11-15T16:19:37Z</time>
      </trkpt>
      <trkpt lat="44.61926" lon="5.90517">
        <ele>1996.3</ele>
        <time>2015-11-15T16:19:52Z</time>
      </trkpt>
      <trkpt lat="44.61933" lon="5.90524">
        <ele>1995.3</ele>
        <time>2015-11-15T16:20:08Z</time>
      </trkpt>
      <trkpt lat="44.61941" lon="5.90533">
        <ele>1993.3</ele>
        <time>2015-11-15T16:20:21Z</time>
      </trkpt>
      <trkpt lat="44.61949" lon="5.90539">
        <ele>1991.3</ele>
        <time>2015-11-15T16:20:33Z</time>
      </trkpt>
      <trkpt lat="44.61957" lon="5.90546">
        <ele>1983.3</ele>
        <time>2015-11-15T16:20:59Z</time>
      </trkpt>
      <trkpt lat="44.61963" lon="5.90555">
        <ele>1981.3</ele>
        <time>2015-11-15T16:21:26Z</time>
      </trkpt>
      <trkpt lat="44.61973" lon="5.90551">
        <ele>1978.3</ele>
        <time>2015-11-15T16:21:40Z</time>
      </trkpt>
      <trkpt lat="44.61982" lon="5.90553">
        <ele>1971.3</ele>
        <time>2015-11-15T16:21:57Z</time>
      </trkpt>
      <trkpt lat="44.61991" lon="5.90549">
        <ele>1965.3</ele>
        <time>2015-11-15T16:22:12Z</time>
      </trkpt>
      <trkpt lat="44.62" lon="5.90553">
        <ele>1969.3</ele>
        <time>2015-11-15T16:22:30Z</time>
      </trkpt>
      <trkpt lat="44.62004" lon="5.90564">
        <ele>1968.3</ele>
        <time>2015-11-15T16:22:42Z</time>
      </trkpt>
      <trkpt lat="44.62003" lon="5.90577">
        <ele>1956.3</ele>
        <time>2015-11-15T16:22:54Z</time>
      </trkpt>
      <trkpt lat="44.62007" lon="5.90589">
        <ele>1949.3</ele>
        <time>2015-11-15T16:23:03Z</time>
      </trkpt>
      <trkpt lat="44.6201" lon="5.90602">
        <ele>1941.3</ele>
        <time>2015-11-15T16:23:19Z</time>
      </trkpt>
      <trkpt lat="44.62008" lon="5.90615">
        <ele>1931.3</ele>
        <time>2015-11-15T16:23:35Z</time>
      </trkpt>
      <trkpt lat="44.62009" lon="5.90628">
        <ele>1926.3</ele>
        <time>2015-11-15T16:23:44Z</time>
      </trkpt>
      <trkpt lat="44.62007" lon="5.90641">
        <ele>1920.3</ele>
        <time>2015-11-15T16:23:58Z</time>
      </trkpt>
      <trkpt lat="44.62002" lon="5.90652">
        <ele>1913.3</ele>
        <time>2015-11-15T16:24:09Z</time>
      </trkpt>
      <trkpt lat="44.62004" lon="5.90665">
        <ele>1910.3</ele>
        <time>2015-11-15T16:24:26Z</time>
      </trkpt>
      <trkpt lat="44.62002" lon="5.90677">
        <ele>1909.3</ele>
        <time>2015-11-15T16:24:43Z</time>
      </trkpt>
      <trkpt lat="44.62004" lon="5.9069">
        <ele>1906.3</ele>
        <time>2015-11-15T16:24:56Z</time>
      </trkpt>
      <trkpt lat="44.62001" lon="5.90702">
        <ele>1901.3</ele>
        <time>2015-11-15T16:25:20Z</time>
      </trkpt>
      <trkpt lat="44.61995" lon="5.90712">
        <ele>1898.3</ele>
        <time>2015-11-15T16:25:38Z</time>
      </trkpt>
      <trkpt lat="44.61987" lon="5.90721">
        <ele>1893.3</ele>
        <time>2015-11-15T16:25:53Z</time>
      </trkpt>
      <trkpt lat="44.61989" lon="5.90733">
        <ele>1888.3</ele>
        <time>2015-11-15T16:26:04Z</time>
      </trkpt>
      <trkpt lat="44.61997" lon="5.90741">
        <ele>1881.3</ele>
        <time>2015-11-15T16:26:13Z</time>
      </trkpt>
      <trkpt lat="44.62005" lon="5.90748">
        <ele>1875.3</ele>
        <time>2015-11-15T16:26:21Z</time>
      </trkpt>
      <trkpt lat="44.62013" lon="5.90753">
        <ele>1869.3</ele>
        <time>2015-11-15T16:26:31Z</time>
      </trkpt>
      <trkpt lat="44.62019" lon="5.90763">
        <ele>1869.3</ele>
        <time>2015-11-15T16:26:42Z</time>
      </trkpt>
      <trkpt lat="44.62023" lon="5.90775">
        <ele>1865.3</ele>
        <time>2015-11-15T16:26:58Z</time>
      </trkpt>
      <trkpt lat="44.6202" lon="5.90788">
        <ele>1862.3</ele>
        <time>2015-11-15T16:27:12Z</time>
      </trkpt>
      <trkpt lat="44.62015" lon="5.908">
        <ele>1867.3</ele>
        <time>2015-11-15T16:27:22Z</time>
      </trkpt>
      <trkpt lat="44.6201" lon="5.90811">
        <ele>1867.3</ele>
        <time>2015-11-15T16:27:32Z</time>
      </trkpt>
      <trkpt lat="44.62011" lon="5.90824">
        <ele>1866.3</ele>
        <time>2015-11-15T16:27:40Z</time>
      </trkpt>
      <trkpt lat="44.62007" lon="5.90836">
        <ele>1860.3</ele>
        <time>2015-11-15T16:27:55Z</time>
      </trkpt>
      <trkpt lat="44.62008" lon="5.90849">
        <ele>1859.3</ele>
        <time>2015-11-15T16:28:04Z</time>
      </trkpt>
      <trkpt lat="44.61999" lon="5.90854">
        <ele>1857.3</ele>
        <time>2015-11-15T16:28:19Z</time>
      </trkpt>
      <trkpt lat="44.61994" lon="5.90865">
        <ele>1854.3</ele>
        <time>2015-11-15T16:28:30Z</time>
      </trkpt>
      <trkpt lat="44.61985" lon="5.90873">
        <ele>1850.3</ele>
        <time>2015-11-15T16:28:42Z</time>
      </trkpt>
      <trkpt lat="44.61978" lon="5.90881">
        <ele>1848.3</ele>
        <time>2015-11-15T16:28:52Z</time>
      </trkpt>
      <trkpt lat="44.61973" lon="5.90892">
        <ele>1844.3</ele>
        <time>2015-11-15T16:29:04Z</time>
      </trkpt>
      <trkpt lat="44.61963" lon="5.90895">
        <ele>1845.3</ele>
        <time>2015-11-15T16:29:11Z</time>
      </trkpt>
      <trkpt lat="44.61956" lon="5.90904">
        <ele>1842.3</ele>
        <time>2015-11-15T16:29:21Z</time>
      </trkpt>
      <trkpt lat="44.61948" lon="5.90911">
        <ele>1840.3</ele>
        <time>2015-11-15T16:29:29Z</time>
      </trkpt>
      <trkpt lat="44.6194" lon="5.90918">
        <ele>1840.3</ele>
        <time>2015-11-15T16:29:37Z</time>
      </trkpt>
      <trkpt lat="44.61931" lon="5.90923">
        <ele>1843.3</ele>
        <time>2015-11-15T16:29:43Z</time>
      </trkpt>
      <trkpt lat="44.61924" lon="5.9093">
        <ele>1843.3</ele>
        <time>2015-11-15T16:29:49Z</time>
      </trkpt>
      <trkpt lat="44.61915" lon="5.90938">
        <ele>1842.3</ele>
        <time>2015-11-15T16:29:59Z</time>
      </trkpt>
      <trkpt lat="44.61906" lon="5.90941">
        <ele>1835.3</ele>
        <time>2015-11-15T16:30:10Z</time>
      </trkpt>
      <trkpt lat="44.61897" lon="5.90947">
        <ele>1833.3</ele>
        <time>2015-11-15T16:30:18Z</time>
      </trkpt>
      <trkpt lat="44.61894" lon="5.90962">
        <ele>1831.3</ele>
        <time>2015-11-15T16:30:27Z</time>
      </trkpt>
      <trkpt lat="44.61889" lon="5.90974">
        <ele>1827.3</ele>
        <time>2015-11-15T16:30:34Z</time>
      </trkpt>
      <trkpt lat="44.6189" lon="5.90987">
        <ele>1823.3</ele>
        <time>2015-11-15T16:30:47Z</time>
      </trkpt>
      <trkpt lat="44.61866" lon="5.9094">
        <ele>1805.3</ele>
        <time>2015-11-15T16:32:42Z</time>
      </trkpt>
      <trkpt lat="44.61857" lon="5.90934">
        <ele>1805.3</ele>
        <time>2015-11-15T16:32:48Z</time>
      </trkpt>
      <trkpt lat="44.61851" lon="5.90922">
        <ele>1803.3</ele>
        <time>2015-11-15T16:32:57Z</time>
      </trkpt>
      <trkpt lat="44.6184" lon="5.90925">
        <ele>1797.3</ele>
        <time>2015-11-15T16:33:07Z</time>
      </trkpt>
      <trkpt lat="44.61833" lon="5.90934">
        <ele>1800.3</ele>
        <time>2015-11-15T16:33:10Z</time>
      </trkpt>
      <trkpt lat="44.61826" lon="5.90943">
        <ele>1803.3</ele>
        <time>2015-11-15T16:33:14Z</time>
      </trkpt>
      <trkpt lat="44.61827" lon="5.90958">
        <ele>1800.3</ele>
        <time>2015-11-15T16:33:19Z</time>
      </trkpt>
      <trkpt lat="44.61822" lon="5.9097">
        <ele>1799.3</ele>
        <time>2015-11-15T16:33:25Z</time>
      </trkpt>
      <trkpt lat="44.6182" lon="5.90984">
        <ele>1800.3</ele>
        <time>2015-11-15T16:33:34Z</time>
      </trkpt>
      <trkpt lat="44.61819" lon="5.90998">
        <ele>1800.3</ele>
        <time>2015-11-15T16:33:43Z</time>
      </trkpt>
      <trkpt lat="44.61821" lon="5.91011">
        <ele>1798.3</ele>
        <time>2015-11-15T16:33:48Z</time>
      </trkpt>
      <trkpt lat="44.61821" lon="5.91024">
        <ele>1799.3</ele>
        <time>2015-11-15T16:33:56Z</time>
      </trkpt>
      <trkpt lat="44.61818" lon="5.9113">
        <ele>1775.3</ele>
        <time>2015-11-15T16:35:02Z</time>
      </trkpt>
      <trkpt lat="44.61821" lon="5.91143">
        <ele>1772.3</ele>
        <time>2015-11-15T16:35:11Z</time>
      </trkpt>
      <trkpt lat="44.61829" lon="5.91148">
        <ele>1767.3</ele>
        <time>2015-11-15T16:35:20Z</time>
      </trkpt>
      <trkpt lat="44.61829" lon="5.91161">
        <ele>1767.3</ele>
        <time>2015-11-15T16:35:29Z</time>
      </trkpt>
      <trkpt lat="44.61829" lon="5.91181">
        <ele>1763.3</ele>
        <time>2015-11-15T16:35:41Z</time>
      </trkpt>
      <trkpt lat="44.61828" lon="5.91195">
        <ele>1763.3</ele>
        <time>2015-11-15T16:35:48Z</time>
      </trkpt>
      <trkpt lat="44.61826" lon="5.91207">
        <ele>1763.3</ele>
        <time>2015-11-15T16:35:57Z</time>
      </trkpt>
      <trkpt lat="44.61822" lon="5.9122">
        <ele>1762.3</ele>
        <time>2015-11-15T16:36:03Z</time>
      </trkpt>
      <trkpt lat="44.61821" lon="5.91206">
        <ele>1755.3</ele>
        <time>2015-11-15T16:36:23Z</time>
      </trkpt>
      <trkpt lat="44.61813" lon="5.91192">
        <ele>2126.3</ele>
        <time>2015-11-15T16:36:36Z</time>
      </trkpt>
      <trkpt lat="44.61807" lon="5.91182">
        <ele>1819.3</ele>
        <time>2015-11-15T16:36:45Z</time>
      </trkpt>
      <trkpt lat="44.61799" lon="5.91177">
        <ele>1766.3</ele>
        <time>2015-11-15T16:36:56Z</time>
      </trkpt>
      <trkpt lat="44.61791" lon="5.91169">
        <ele>1765.3</ele>
        <time>2015-11-15T16:37:04Z</time>
      </trkpt>
      <trkpt lat="44.61793" lon="5.91184">
        <ele>1752.3</ele>
        <time>2015-11-15T16:37:12Z</time>
      </trkpt>
      <trkpt lat="44.61792" lon="5.91198">
        <ele>1743.3</ele>
        <time>2015-11-15T16:37:19Z</time>
      </trkpt>
      <trkpt lat="44.61791" lon="5.9121">
        <ele>1740.3</ele>
        <time>2015-11-15T16:37:26Z</time>
      </trkpt>
      <trkpt lat="44.61782" lon="5.91202">
        <ele>1733.3</ele>
        <time>2015-11-15T16:37:43Z</time>
      </trkpt>
      <trkpt lat="44.61775" lon="5.91194">
        <ele>1730.3</ele>
        <time>2015-11-15T16:37:51Z</time>
      </trkpt>
      <trkpt lat="44.61768" lon="5.91185">
        <ele>1725.3</ele>
        <time>2015-11-15T16:38:01Z</time>
      </trkpt>
      <trkpt lat="44.61758" lon="5.91177">
        <ele>1721.3</ele>
        <time>2015-11-15T16:38:09Z</time>
      </trkpt>
      <trkpt lat="44.6175" lon="5.91168">
        <ele>1712.3</ele>
        <time>2015-11-15T16:38:19Z</time>
      </trkpt>
      <trkpt lat="44.61741" lon="5.91172">
        <ele>1711.3</ele>
        <time>2015-11-15T16:38:28Z</time>
      </trkpt>
      <trkpt lat="44.61738" lon="5.91186">
        <ele>1709.3</ele>
        <time>2015-11-15T16:38:37Z</time>
      </trkpt>
      <trkpt lat="44.61738" lon="5.912">
        <ele>1706.3</ele>
        <time>2015-11-15T16:38:44Z</time>
      </trkpt>
      <trkpt lat="44.6174" lon="5.91214">
        <ele>1705.3</ele>
        <time>2015-11-15T16:38:58Z</time>
      </trkpt>
      <trkpt lat="44.61742" lon="5.91227">
        <ele>1700.3</ele>
        <time>2015-11-15T16:39:07Z</time>
      </trkpt>
      <trkpt lat="44.61744" lon="5.91241">
        <ele>1698.3</ele>
        <time>2015-11-15T16:39:14Z</time>
      </trkpt>
      <trkpt lat="44.61739" lon="5.91252">
        <ele>1701.3</ele>
        <time>2015-11-15T16:39:20Z</time>
      </trkpt>
      <trkpt lat="44.61737" lon="5.91266">
        <ele>1700.3</ele>
        <time>2015-11-15T16:39:29Z</time>
      </trkpt>
      <trkpt lat="44.61732" lon="5.91277">
        <ele>1699.3</ele>
        <time>2015-11-15T16:39:38Z</time>
      </trkpt>
      <trkpt lat="44.61726" lon="5.91267">
        <ele>1697.3</ele>
        <time>2015-11-15T16:39:52Z</time>
      </trkpt>
      <trkpt lat="44.6172" lon="5.91255">
        <ele>1692.3</ele>
        <time>2015-11-15T16:40:03Z</time>
      </trkpt>
      <trkpt lat="44.61715" lon="5.91243">
        <ele>1689.3</ele>
        <time>2015-11-15T16:40:11Z</time>
      </trkpt>
      <trkpt lat="44.6171" lon="5.91232">
        <ele>1689.3</ele>
        <time>2015-11-15T16:40:20Z</time>
      </trkpt>
      <trkpt lat="44.61704" lon="5.91221">
        <ele>1688.3</ele>
        <time>2015-11-15T16:40:27Z</time>
      </trkpt>
      <trkpt lat="44.61697" lon="5.91212">
        <ele>1686.3</ele>
        <time>2015-11-15T16:40:49Z</time>
      </trkpt>
      <trkpt lat="44.6169" lon="5.91203">
        <ele>1683.3</ele>
        <time>2015-11-15T16:40:56Z</time>
      </trkpt>
      <trkpt lat="44.61683" lon="5.91196">
        <ele>1681.3</ele>
        <time>2015-11-15T16:41:04Z</time>
      </trkpt>
      <trkpt lat="44.61675" lon="5.91187">
        <ele>1679.3</ele>
        <time>2015-11-15T16:41:13Z</time>
      </trkpt>
      <trkpt lat="44.61672" lon="5.91199">
        <ele>1678.3</ele>
        <time>2015-11-15T16:41:25Z</time>
      </trkpt>
      <trkpt lat="44.61668" lon="5.91212">
        <ele>1674.3</ele>
        <time>2015-11-15T16:41:38Z</time>
      </trkpt>
      <trkpt lat="44.61665" lon="5.91225">
        <ele>1668.3</ele>
        <time>2015-11-15T16:41:49Z</time>
      </trkpt>
      <trkpt lat="44.61662" lon="5.91238">
        <ele>1664.3</ele>
        <time>2015-11-15T16:41:57Z</time>
      </trkpt>
      <trkpt lat="44.61659" lon="5.9125">
        <ele>1663.3</ele>
        <time>2015-11-15T16:42:06Z</time>
      </trkpt>
      <trkpt lat="44.61657" lon="5.91262">
        <ele>1660.3</ele>
        <time>2015-11-15T16:42:15Z</time>
      </trkpt>
      <trkpt lat="44.61647" lon="5.91264">
        <ele>1658.3</ele>
        <time>2015-11-15T16:42:23Z</time>
      </trkpt>
      <trkpt lat="44.61641" lon="5.91274">
        <ele>1655.3</ele>
        <time>2015-11-15T16:42:30Z</time>
      </trkpt>
      <trkpt lat="44.61632" lon="5.91281">
        <ele>1654.3</ele>
        <time>2015-11-15T16:42:38Z</time>
      </trkpt>
      <trkpt lat="44.61636" lon="5.9127">
        <ele>1654.3</ele>
        <time>2015-11-15T16:42:50Z</time>
      </trkpt>
      <trkpt lat="44.61638" lon="5.91256">
        <ele>1652.3</ele>
        <time>2015-11-15T16:42:59Z</time>
      </trkpt>
      <trkpt lat="44.61636" lon="5.91243">
        <ele>1644.3</ele>
        <time>2015-11-15T16:43:10Z</time>
      </trkpt>
      <trkpt lat="44.61627" lon="5.91247">
        <ele>1640.3</ele>
        <time>2015-11-15T16:43:23Z</time>
      </trkpt>
      <trkpt lat="44.61613" lon="5.91256">
        <ele>1637.3</ele>
        <time>2015-11-15T16:43:40Z</time>
      </trkpt>
      <trkpt lat="44.61608" lon="5.91267">
        <ele>1636.3</ele>
        <time>2015-11-15T16:43:48Z</time>
      </trkpt>
      <trkpt lat="44.61605" lon="5.91255">
        <ele>1632.3</ele>
        <time>2015-11-15T16:44:08Z</time>
      </trkpt>
      <trkpt lat="44.61608" lon="5.91242">
        <ele>1633.3</ele>
        <time>2015-11-15T16:44:19Z</time>
      </trkpt>
      <trkpt lat="44.61604" lon="5.91225">
        <ele>1628.3</ele>
        <time>2015-11-15T16:44:36Z</time>
      </trkpt>
      <trkpt lat="44.61604" lon="5.91205">
        <ele>1623.3</ele>
        <time>2015-11-15T16:44:52Z</time>
      </trkpt>
      <trkpt lat="44.61601" lon="5.91192">
        <ele>1621.3</ele>
        <time>2015-11-15T16:45:01Z</time>
      </trkpt>
      <trkpt lat="44.616" lon="5.91179">
        <ele>1619.3</ele>
        <time>2015-11-15T16:45:12Z</time>
      </trkpt>
      <trkpt lat="44.61601" lon="5.91166">
        <ele>1617.3</ele>
        <time>2015-11-15T16:45:20Z</time>
      </trkpt>
      <trkpt lat="44.61598" lon="5.91152">
        <ele>1607.3</ele>
        <time>2015-11-15T16:46:41Z</time>
      </trkpt>
      <trkpt lat="44.61597" lon="5.91139">
        <ele>1607.3</ele>
        <time>2015-11-15T16:47:04Z</time>
      </trkpt>
      <trkpt lat="44.61597" lon="5.91124">
        <ele>1606.3</ele>
        <time>2015-11-15T16:47:10Z</time>
      </trkpt>
      <trkpt lat="44.61594" lon="5.91109">
        <ele>1608.3</ele>
        <time>2015-11-15T16:47:19Z</time>
      </trkpt>
      <trkpt lat="44.61595" lon="5.91095">
        <ele>1611.3</ele>
        <time>2015-11-15T16:47:26Z</time>
      </trkpt>
      <trkpt lat="44.61593" lon="5.91081">
        <ele>1615.3</ele>
        <time>2015-11-15T16:47:34Z</time>
      </trkpt>
      <trkpt lat="44.61585" lon="5.91069">
        <ele>1619.3</ele>
        <time>2015-11-15T16:47:42Z</time>
      </trkpt>
      <trkpt lat="44.61586" lon="5.91055">
        <ele>1624.3</ele>
        <time>2015-11-15T16:47:51Z</time>
      </trkpt>
      <trkpt lat="44.61584" lon="5.91042">
        <ele>1620.3</ele>
        <time>2015-11-15T16:48:00Z</time>
      </trkpt>
      <trkpt lat="44.61589" lon="5.91027">
        <ele>1621.3</ele>
        <time>2015-11-15T16:48:13Z</time>
      </trkpt>
      <trkpt lat="44.61595" lon="5.91016">
        <ele>1619.3</ele>
        <time>2015-11-15T16:48:24Z</time>
      </trkpt>
      <trkpt lat="44.61597" lon="5.91003">
        <ele>1619.3</ele>
        <time>2015-11-15T16:48:31Z</time>
      </trkpt>
      <trkpt lat="44.61596" lon="5.90989">
        <ele>1623.3</ele>
        <time>2015-11-15T16:48:38Z</time>
      </trkpt>
      <trkpt lat="44.61595" lon="5.90977">
        <ele>1626.3</ele>
        <time>2015-11-15T16:48:48Z</time>
      </trkpt>
      <trkpt lat="44.61586" lon="5.90972">
        <ele>1623.3</ele>
        <time>2015-11-15T16:49:01Z</time>
      </trkpt>
      <trkpt lat="44.61577" lon="5.90967">
        <ele>1615.3</ele>
        <time>2015-11-15T16:49:18Z</time>
      </trkpt>
      <trkpt lat="44.61571" lon="5.90957">
        <ele>1616.3</ele>
        <time>2015-11-15T16:49:27Z</time>
      </trkpt>
      <trkpt lat="44.6156" lon="5.90943">
        <ele>1614.3</ele>
        <time>2015-11-15T16:49:37Z</time>
      </trkpt>
      <trkpt lat="44.61552" lon="5.90937">
        <ele>1613.3</ele>
        <time>2015-11-15T16:49:45Z</time>
      </trkpt>
      <trkpt lat="44.61544" lon="5.9093">
        <ele>1607.3</ele>
        <time>2015-11-15T16:49:53Z</time>
      </trkpt>
      <trkpt lat="44.61539" lon="5.90918">
        <ele>1606.3</ele>
        <time>2015-11-15T16:50:02Z</time>
      </trkpt>
      <trkpt lat="44.61531" lon="5.90909">
        <ele>1610.3</ele>
        <time>2015-11-15T16:50:10Z</time>
      </trkpt>
      <trkpt lat="44.61521" lon="5.90897">
        <ele>1611.3</ele>
        <time>2015-11-15T16:50:21Z</time>
      </trkpt>
      <trkpt lat="44.61511" lon="5.90898">
        <ele>1611.3</ele>
        <time>2015-11-15T16:50:31Z</time>
      </trkpt>
      <trkpt lat="44.61503" lon="5.90903">
        <ele>1610.3</ele>
        <time>2015-11-15T16:50:37Z</time>
      </trkpt>
      <trkpt lat="44.61494" lon="5.90895">
        <ele>1609.3</ele>
        <time>2015-11-15T16:50:47Z</time>
      </trkpt>
      <trkpt lat="44.61488" lon="5.90884">
        <ele>1611.3</ele>
        <time>2015-11-15T16:50:55Z</time>
      </trkpt>
      <trkpt lat="44.61485" lon="5.90871">
        <ele>1611.3</ele>
        <time>2015-11-15T16:51:02Z</time>
      </trkpt>
      <trkpt lat="44.61486" lon="5.90856">
        <ele>1609.3</ele>
        <time>2015-11-15T16:51:16Z</time>
      </trkpt>
      <trkpt lat="44.61478" lon="5.90848">
        <ele>1610.3</ele>
        <time>2015-11-15T16:51:29Z</time>
      </trkpt>
      <trkpt lat="44.61471" lon="5.9084">
        <ele>1607.3</ele>
        <time>2015-11-15T16:51:43Z</time>
      </trkpt>
      <trkpt lat="44.61464" lon="5.90827">
        <ele>1608.3</ele>
        <time>2015-11-15T16:51:53Z</time>
      </trkpt>
      <trkpt lat="44.61455" lon="5.90823">
        <ele>1608.3</ele>
        <time>2015-11-15T16:52:03Z</time>
      </trkpt>
      <trkpt lat="44.61446" lon="5.90819">
        <ele>1604.3</ele>
        <time>2015-11-15T16:52:12Z</time>
      </trkpt>
      <trkpt lat="44.61436" lon="5.90812">
        <ele>1608.3</ele>
        <time>2015-11-15T16:52:24Z</time>
      </trkpt>
      <trkpt lat="44.61426" lon="5.90813">
        <ele>1609.3</ele>
        <time>2015-11-15T16:52:32Z</time>
      </trkpt>
      <trkpt lat="44.61416" lon="5.90812">
        <ele>1611.3</ele>
        <time>2015-11-15T16:52:38Z</time>
      </trkpt>
      <trkpt lat="44.61408" lon="5.90806">
        <ele>1609.3</ele>
        <time>2015-11-15T16:52:47Z</time>
      </trkpt>
      <trkpt lat="44.61398" lon="5.90791">
        <ele>1617.3</ele>
        <time>2015-11-15T16:52:58Z</time>
      </trkpt>
      <trkpt lat="44.6139" lon="5.90781">
        <ele>1616.3</ele>
        <time>2015-11-15T16:53:08Z</time>
      </trkpt>
      <trkpt lat="44.61381" lon="5.90779">
        <ele>1618.3</ele>
        <time>2015-11-15T16:53:15Z</time>
      </trkpt>
      <trkpt lat="44.61372" lon="5.90778">
        <ele>1617.3</ele>
        <time>2015-11-15T16:53:23Z</time>
      </trkpt>
      <trkpt lat="44.61364" lon="5.90774">
        <ele>1619.3</ele>
        <time>2015-11-15T16:53:32Z</time>
      </trkpt>
      <trkpt lat="44.61355" lon="5.90776">
        <ele>1616.3</ele>
        <time>2015-11-15T16:53:45Z</time>
      </trkpt>
      <trkpt lat="44.61345" lon="5.90776">
        <ele>1616.3</ele>
        <time>2015-11-15T16:53:53Z</time>
      </trkpt>
      <trkpt lat="44.61335" lon="5.90778">
        <ele>1614.3</ele>
        <time>2015-11-15T16:54:02Z</time>
      </trkpt>
      <trkpt lat="44.61324" lon="5.9078">
        <ele>1607.3</ele>
        <time>2015-11-15T16:54:11Z</time>
      </trkpt>
      <trkpt lat="44.61306" lon="5.90783">
        <ele>1596.3</ele>
        <time>2015-11-15T16:54:27Z</time>
      </trkpt>
      <trkpt lat="44.61299" lon="5.90771">
        <ele>1588.3</ele>
        <time>2015-11-15T16:54:45Z</time>
      </trkpt>
      <trkpt lat="44.61296" lon="5.90758">
        <ele>1582.3</ele>
        <time>2015-11-15T16:54:56Z</time>
      </trkpt>
      <trkpt lat="44.61293" lon="5.90745">
        <ele>1582.3</ele>
        <time>2015-11-15T16:55:03Z</time>
      </trkpt>
      <trkpt lat="44.61291" lon="5.90731">
        <ele>1578.3</ele>
        <time>2015-11-15T16:55:13Z</time>
      </trkpt>
      <trkpt lat="44.61282" lon="5.90728">
        <ele>1579.3</ele>
        <time>2015-11-15T16:55:20Z</time>
      </trkpt>
      <trkpt lat="44.61273" lon="5.9073">
        <ele>1580.3</ele>
        <time>2015-11-15T16:55:29Z</time>
      </trkpt>
      <trkpt lat="44.61264" lon="5.90737">
        <ele>1574.3</ele>
        <time>2015-11-15T16:55:37Z</time>
      </trkpt>
      <trkpt lat="44.61256" lon="5.90741">
        <ele>1572.3</ele>
        <time>2015-11-15T16:55:45Z</time>
      </trkpt>
      <trkpt lat="44.61246" lon="5.90754">
        <ele>1570.3</ele>
        <time>2015-11-15T16:55:57Z</time>
      </trkpt>
      <trkpt lat="44.61238" lon="5.90762">
        <ele>1567.3</ele>
        <time>2015-11-15T16:56:05Z</time>
      </trkpt>
      <trkpt lat="44.6123" lon="5.90771">
        <ele>1560.3</ele>
        <time>2015-11-15T16:56:13Z</time>
      </trkpt>
      <trkpt lat="44.61221" lon="5.90776">
        <ele>1561.3</ele>
        <time>2015-11-15T16:56:22Z</time>
      </trkpt>
      <trkpt lat="44.61211" lon="5.90782">
        <ele>1562.3</ele>
        <time>2015-11-15T16:56:29Z</time>
      </trkpt>
      <trkpt lat="44.61202" lon="5.90784">
        <ele>1560.3</ele>
        <time>2015-11-15T16:56:37Z</time>
      </trkpt>
      <trkpt lat="44.61193" lon="5.90788">
        <ele>1559.3</ele>
        <time>2015-11-15T16:56:46Z</time>
      </trkpt>
      <trkpt lat="44.61184" lon="5.90783">
        <ele>1554.3</ele>
        <time>2015-11-15T16:56:56Z</time>
      </trkpt>
      <trkpt lat="44.61178" lon="5.90772">
        <ele>1554.3</ele>
        <time>2015-11-15T16:57:06Z</time>
      </trkpt>
      <trkpt lat="44.61167" lon="5.90767">
        <ele>1552.3</ele>
        <time>2015-11-15T16:57:17Z</time>
      </trkpt>
      <trkpt lat="44.61158" lon="5.90773">
        <ele>1552.3</ele>
        <time>2015-11-15T16:57:23Z</time>
      </trkpt>
      <trkpt lat="44.6115" lon="5.90782">
        <ele>1553.3</ele>
        <time>2015-11-15T16:57:31Z</time>
      </trkpt>
      <trkpt lat="44.6114" lon="5.90786">
        <ele>1554.3</ele>
        <time>2015-11-15T16:57:38Z</time>
      </trkpt>
      <trkpt lat="44.6113" lon="5.90792">
        <ele>1546.3</ele>
        <time>2015-11-15T16:57:46Z</time>
      </trkpt>
      <trkpt lat="44.61122" lon="5.90797">
        <ele>1547.3</ele>
        <time>2015-11-15T16:57:52Z</time>
      </trkpt>
      <trkpt lat="44.61113" lon="5.90794">
        <ele>1545.3</ele>
        <time>2015-11-15T16:58:01Z</time>
      </trkpt>
      <trkpt lat="44.61102" lon="5.9079">
        <ele>1541.3</ele>
        <time>2015-11-15T16:58:09Z</time>
      </trkpt>
      <trkpt lat="44.61093" lon="5.90791">
        <ele>1540.3</ele>
        <time>2015-11-15T16:58:17Z</time>
      </trkpt>
      <trkpt lat="44.61083" lon="5.90797">
        <ele>1535.3</ele>
        <time>2015-11-15T16:58:28Z</time>
      </trkpt>
      <trkpt lat="44.61072" lon="5.90802">
        <ele>1537.3</ele>
        <time>2015-11-15T16:58:34Z</time>
      </trkpt>
      <trkpt lat="44.61046" lon="5.90798">
        <ele>1535.3</ele>
        <time>2015-11-15T16:58:57Z</time>
      </trkpt>
      <trkpt lat="44.61038" lon="5.90804">
        <ele>1527.3</ele>
        <time>2015-11-15T16:59:25Z</time>
      </trkpt>
      <trkpt lat="44.61029" lon="5.90798">
        <ele>1525.3</ele>
        <time>2015-11-15T16:59:36Z</time>
      </trkpt>
      <trkpt lat="44.6102" lon="5.90795">
        <ele>1523.3</ele>
        <time>2015-11-15T16:59:44Z</time>
      </trkpt>
      <trkpt lat="44.61005" lon="5.90793">
        <ele>1521.3</ele>
        <time>2015-11-15T16:59:55Z</time>
      </trkpt>
      <trkpt lat="44.60994" lon="5.9079">
        <ele>1520.3</ele>
        <time>2015-11-15T17:00:04Z</time>
      </trkpt>
      <trkpt lat="44.60985" lon="5.90786">
        <ele>1518.3</ele>
        <time>2015-11-15T17:00:15Z</time>
      </trkpt>
      <trkpt lat="44.60976" lon="5.90781">
        <ele>1520.3</ele>
        <time>2015-11-15T17:00:22Z</time>
      </trkpt>
      <trkpt lat="44.60967" lon="5.90788">
        <ele>1523.3</ele>
        <time>2015-11-15T17:00:30Z</time>
      </trkpt>
      <trkpt lat="44.60958" lon="5.90787">
        <ele>1520.3</ele>
        <time>2015-11-15T17:00:36Z</time>
      </trkpt>
      <trkpt lat="44.60948" lon="5.90779">
        <ele>1520.3</ele>
        <time>2015-11-15T17:00:45Z</time>
      </trkpt>
      <trkpt lat="44.60938" lon="5.90777">
        <ele>1514.3</ele>
        <time>2015-11-15T17:00:52Z</time>
      </trkpt>
      <trkpt lat="44.60929" lon="5.90782">
        <ele>1515.3</ele>
        <time>2015-11-15T17:01:00Z</time>
      </trkpt>
      <trkpt lat="44.6092" lon="5.90776">
        <ele>1510.3</ele>
        <time>2015-11-15T17:01:11Z</time>
      </trkpt>
      <trkpt lat="44.60911" lon="5.90772">
        <ele>1509.3</ele>
        <time>2015-11-15T17:01:18Z</time>
      </trkpt>
      <trkpt lat="44.60902" lon="5.90765">
        <ele>1508.3</ele>
        <time>2015-11-15T17:01:28Z</time>
      </trkpt>
      <trkpt lat="44.60894" lon="5.9076">
        <ele>1510.3</ele>
        <time>2015-11-15T17:01:36Z</time>
      </trkpt>
      <trkpt lat="44.60885" lon="5.90758">
        <ele>1510.3</ele>
        <time>2015-11-15T17:01:50Z</time>
      </trkpt>
      <trkpt lat="44.60878" lon="5.9077">
        <ele>1507.3</ele>
        <time>2015-11-15T17:02:03Z</time>
      </trkpt>
      <trkpt lat="44.6087" lon="5.90778">
        <ele>1506.3</ele>
        <time>2015-11-15T17:02:08Z</time>
      </trkpt>
      <trkpt lat="44.60864" lon="5.90789">
        <ele>1507.3</ele>
        <time>2015-11-15T17:02:18Z</time>
      </trkpt>
      <trkpt lat="44.60856" lon="5.90811">
        <ele>1500.3</ele>
        <time>2015-11-15T17:02:34Z</time>
      </trkpt>
      <trkpt lat="44.60849" lon="5.90821">
        <ele>1500.3</ele>
        <time>2015-11-15T17:02:44Z</time>
      </trkpt>
      <trkpt lat="44.6084" lon="5.90824">
        <ele>1502.3</ele>
        <time>2015-11-15T17:02:53Z</time>
      </trkpt>
      <trkpt lat="44.6083" lon="5.90829">
        <ele>1502.3</ele>
        <time>2015-11-15T17:03:03Z</time>
      </trkpt>
      <trkpt lat="44.60822" lon="5.90837">
        <ele>1498.3</ele>
        <time>2015-11-15T17:03:11Z</time>
      </trkpt>
      <trkpt lat="44.60813" lon="5.90842">
        <ele>1500.3</ele>
        <time>2015-11-15T17:03:17Z</time>
      </trkpt>
      <trkpt lat="44.60804" lon="5.90847">
        <ele>1498.3</ele>
        <time>2015-11-15T17:03:23Z</time>
      </trkpt>
      <trkpt lat="44.60795" lon="5.90851">
        <ele>1496.3</ele>
        <time>2015-11-15T17:03:31Z</time>
      </trkpt>
      <trkpt lat="44.60785" lon="5.90852">
        <ele>1490.3</ele>
        <time>2015-11-15T17:03:38Z</time>
      </trkpt>
      <trkpt lat="44.60776" lon="5.90856">
        <ele>1484.3</ele>
        <time>2015-11-15T17:03:44Z</time>
      </trkpt>
      <trkpt lat="44.60761" lon="5.90858">
        <ele>1479.3</ele>
        <time>2015-11-15T17:03:57Z</time>
      </trkpt>
      <trkpt lat="44.60752" lon="5.90857">
        <ele>1479.3</ele>
        <time>2015-11-15T17:04:04Z</time>
      </trkpt>
      <trkpt lat="44.60743" lon="5.90857">
        <ele>1476.3</ele>
        <time>2015-11-15T17:04:11Z</time>
      </trkpt>
      <trkpt lat="44.60732" lon="5.90859">
        <ele>1470.3</ele>
        <time>2015-11-15T17:04:19Z</time>
      </trkpt>
      <trkpt lat="44.60722" lon="5.90857">
        <ele>1469.3</ele>
        <time>2015-11-15T17:04:26Z</time>
      </trkpt>
      <trkpt lat="44.60711" lon="5.90851">
        <ele>1469.3</ele>
        <time>2015-11-15T17:04:40Z</time>
      </trkpt>
      <trkpt lat="44.60705" lon="5.90842">
        <ele>1472.3</ele>
        <time>2015-11-15T17:04:47Z</time>
      </trkpt>
      <trkpt lat="44.60695" lon="5.90836">
        <ele>1471.3</ele>
        <time>2015-11-15T17:04:53Z</time>
      </trkpt>
      <trkpt lat="44.60688" lon="5.90827">
        <ele>1472.3</ele>
        <time>2015-11-15T17:05:02Z</time>
      </trkpt>
      <trkpt lat="44.60681" lon="5.90818">
        <ele>1472.3</ele>
        <time>2015-11-15T17:05:10Z</time>
      </trkpt>
      <trkpt lat="44.60669" lon="5.90815">
        <ele>1470.3</ele>
        <time>2015-11-15T17:05:18Z</time>
      </trkpt>
      <trkpt lat="44.6066" lon="5.90809">
        <ele>1467.3</ele>
        <time>2015-11-15T17:05:25Z</time>
      </trkpt>
      <trkpt lat="44.60652" lon="5.90803">
        <ele>1466.3</ele>
        <time>2015-11-15T17:05:32Z</time>
      </trkpt>
      <trkpt lat="44.60638" lon="5.90788">
        <ele>1463.3</ele>
        <time>2015-11-15T17:05:46Z</time>
      </trkpt>
      <trkpt lat="44.60631" lon="5.9078">
        <ele>1459.3</ele>
        <time>2015-11-15T17:05:54Z</time>
      </trkpt>
      <trkpt lat="44.60622" lon="5.90773">
        <ele>1458.3</ele>
        <time>2015-11-15T17:06:03Z</time>
      </trkpt>
      <trkpt lat="44.60615" lon="5.90764">
        <ele>1460.3</ele>
        <time>2015-11-15T17:06:10Z</time>
      </trkpt>
      <trkpt lat="44.60606" lon="5.90757">
        <ele>1458.3</ele>
        <time>2015-11-15T17:06:21Z</time>
      </trkpt>
      <trkpt lat="44.60599" lon="5.90749">
        <ele>1460.3</ele>
        <time>2015-11-15T17:06:27Z</time>
      </trkpt>
      <trkpt lat="44.6059" lon="5.90741">
        <ele>1459.3</ele>
        <time>2015-11-15T17:06:35Z</time>
      </trkpt>
      <trkpt lat="44.60581" lon="5.90736">
        <ele>1453.3</ele>
        <time>2015-11-15T17:06:41Z</time>
      </trkpt>
      <trkpt lat="44.60575" lon="5.90724">
        <ele>1448.3</ele>
        <time>2015-11-15T17:06:50Z</time>
      </trkpt>
      <trkpt lat="44.60564" lon="5.90719">
        <ele>1445.3</ele>
        <time>2015-11-15T17:06:56Z</time>
      </trkpt>
      <trkpt lat="44.60556" lon="5.90711">
        <ele>1445.3</ele>
        <time>2015-11-15T17:07:03Z</time>
      </trkpt>
      <trkpt lat="44.60548" lon="5.90701">
        <ele>1449.3</ele>
        <time>2015-11-15T17:07:10Z</time>
      </trkpt>
      <trkpt lat="44.60537" lon="5.90689">
        <ele>1453.3</ele>
        <time>2015-11-15T17:07:20Z</time>
      </trkpt>
      <trkpt lat="44.60529" lon="5.90681">
        <ele>1451.3</ele>
        <time>2015-11-15T17:07:26Z</time>
      </trkpt>
      <trkpt lat="44.60521" lon="5.90676">
        <ele>1450.3</ele>
        <time>2015-11-15T17:07:34Z</time>
      </trkpt>
      <trkpt lat="44.60512" lon="5.90667">
        <ele>1449.3</ele>
        <time>2015-11-15T17:07:45Z</time>
      </trkpt>
      <trkpt lat="44.60503" lon="5.90662">
        <ele>1451.3</ele>
        <time>2015-11-15T17:07:55Z</time>
      </trkpt>
      <trkpt lat="44.60493" lon="5.90659">
        <ele>1449.3</ele>
        <time>2015-11-15T17:08:03Z</time>
      </trkpt>
      <trkpt lat="44.60483" lon="5.90655">
        <ele>1445.3</ele>
        <time>2015-11-15T17:08:12Z</time>
      </trkpt>
      <trkpt lat="44.60474" lon="5.90651">
        <ele>1444.3</ele>
        <time>2015-11-15T17:08:19Z</time>
      </trkpt>
      <trkpt lat="44.60465" lon="5.90646">
        <ele>1447.3</ele>
        <time>2015-11-15T17:08:25Z</time>
      </trkpt>
      <trkpt lat="44.60457" lon="5.90639">
        <ele>1447.3</ele>
        <time>2015-11-15T17:08:33Z</time>
      </trkpt>
      <trkpt lat="44.60448" lon="5.90633">
        <ele>1446.3</ele>
        <time>2015-11-15T17:08:40Z</time>
      </trkpt>
      <trkpt lat="44.60439" lon="5.9063">
        <ele>1440.3</ele>
        <time>2015-11-15T17:08:48Z</time>
      </trkpt>
      <trkpt lat="44.6043" lon="5.90627">
        <ele>1436.3</ele>
        <time>2015-11-15T17:08:58Z</time>
      </trkpt>
      <trkpt lat="44.60419" lon="5.90619">
        <ele>1436.3</ele>
        <time>2015-11-15T17:09:11Z</time>
      </trkpt>
      <trkpt lat="44.6041" lon="5.90613">
        <ele>1432.3</ele>
        <time>2015-11-15T17:09:19Z</time>
      </trkpt>
      <trkpt lat="44.604" lon="5.90611">
        <ele>1432.3</ele>
        <time>2015-11-15T17:09:27Z</time>
      </trkpt>
      <trkpt lat="44.60391" lon="5.90607">
        <ele>1429.3</ele>
        <time>2015-11-15T17:09:36Z</time>
      </trkpt>
      <trkpt lat="44.60383" lon="5.90604">
        <ele>1432.3</ele>
        <time>2015-11-15T17:09:45Z</time>
      </trkpt>
      <trkpt lat="44.60373" lon="5.90601">
        <ele>1406.3</ele>
        <time>2015-11-15T17:10:26Z</time>
      </trkpt>
      <trkpt lat="44.60358" lon="5.90591">
        <ele>1411.3</ele>
        <time>2015-11-15T17:10:34Z</time>
      </trkpt>
      <trkpt lat="44.60345" lon="5.90579">
        <ele>1405.3</ele>
        <time>2015-11-15T17:10:51Z</time>
      </trkpt>
      <trkpt lat="44.60336" lon="5.90571">
        <ele>1405.3</ele>
        <time>2015-11-15T17:11:00Z</time>
      </trkpt>
      <trkpt lat="44.60327" lon="5.90566">
        <ele>1399.3</ele>
        <time>2015-11-15T17:11:08Z</time>
      </trkpt>
      <trkpt lat="44.60317" lon="5.90563">
        <ele>1397.3</ele>
        <time>2015-11-15T17:11:16Z</time>
      </trkpt>
      <trkpt lat="44.60301" lon="5.90547">
        <ele>1392.3</ele>
        <time>2015-11-15T17:11:34Z</time>
      </trkpt>
      <trkpt lat="44.60293" lon="5.90539">
        <ele>1391.3</ele>
        <time>2015-11-15T17:11:41Z</time>
      </trkpt>
      <trkpt lat="44.60287" lon="5.90527">
        <ele>1388.3</ele>
        <time>2015-11-15T17:11:49Z</time>
      </trkpt>
      <trkpt lat="44.60278" lon="5.90519">
        <ele>1384.3</ele>
        <time>2015-11-15T17:11:58Z</time>
      </trkpt>
      <trkpt lat="44.6027" lon="5.90514">
        <ele>1382.3</ele>
        <time>2015-11-15T17:12:04Z</time>
      </trkpt>
      <trkpt lat="44.60261" lon="5.9051">
        <ele>1378.3</ele>
        <time>2015-11-15T17:12:14Z</time>
      </trkpt>
      <trkpt lat="44.60239" lon="5.90502">
        <ele>1363.3</ele>
        <time>2015-11-15T17:15:29Z</time>
      </trkpt>
    </trkseg>
  </trk>
</gpx>